B62953 / N612JB 7700 Squawk Report (21st of October, 2021)

Aircraft A320 Reg No. N612JB Age 16 years old
Model A320 Jet engines 2 First flight 04-05-05
Registered 26-05-05 Rollout 04-05 Delivered 26-05-05
Construction No. 2447 Line No. N/A Series 232
ADSHEX A7F6F6 Airline name JetBlue Airways Owner jetBlue Airways Corp.
Airfield based New York-JFK~NY~N First tracked N/A

Flight history for N612JB

Route Flight No Date Playback
Los Angeles Intl (LAX) - Raleigh Durham Intl (RDU) B6522 2021-11-29 20:03:00
???? N/A 2021-11-28 13:05:00
John F Kennedy Intl (JFK) - Los Angeles Intl (LAX) B6123 2021-11-28 11:56:00
???? B6661 2021-11-28 09:39:00
???? B6456 2021-11-28 08:34:00
San Francisco Intl (SFO) - Los Angeles Intl (LAX) B6535 2021-11-28 07:15:00
Los Angeles Intl (LAX) - San Francisco Intl (SFO) B6536 2021-11-28 01:14:00
Austin Bergstrom Intl (AUS) - Los Angeles Intl (LAX) B6817 2021-11-27 22:55:00
Los Angeles Intl (LAX) - Austin Bergstrom Intl (AUS) B6516 2021-11-27 19:27:00
???? N/A 2021-11-27 14:19:00
???? N/A 2021-11-27 10:22:00
Los Cabos Intl (SJD) - Los Angeles Intl (LAX) B61464 2021-11-27 04:56:00
Los Angeles Intl (LAX) - Los Cabos Intl (SJD) B61463 2021-11-26 21:44:00
Salt Lake City Intl (SLC) - Los Angeles Intl (LAX) B62531 2021-11-26 16:29:00
Los Angeles Intl (LAX) - Salt Lake City Intl (SLC) B62532 2021-11-26 05:13:00
Austin Bergstrom Intl (AUS) - Los Angeles Intl (LAX) B6817 2021-11-26 00:33:00
Los Angeles Intl (LAX) - Austin Bergstrom Intl (AUS) B6516 2021-11-25 19:08:00
Cancun Intl (CUN) - Los Angeles Intl (LAX) B61069 2021-11-24 10:45:00
Los Angeles Intl (LAX) - Cancun Intl (CUN) B61070 2021-11-24 00:57:00
Jacksonville Intl (JAX) - Los Angeles Intl (LAX) B62798 2021-11-23 18:10:00
Time Lat Lon Altitude Heading Speed Vertical Rate
2021-10-21 18:08:49 GMT 36.079781 -115.138229 0 320 4 0
2021-10-21 18:08:48 GMT 36.079762 -115.138222 0 320 4 0
2021-10-21 18:08:46 GMT 36.079731 -115.138206 0 320 4 0
2021-10-21 18:08:45 GMT 36.079731 -115.138260 0 318 4 0
2021-10-21 18:08:44 GMT 36.079720 -115.138260 0 318 4 0
2021-10-21 18:08:42 GMT 36.079708 -115.138229 0 319 4 0
2021-10-21 18:08:41 GMT 36.079708 -115.138222 0 320 6 0
2021-10-21 18:08:39 GMT 36.079659 -115.138184 0 318 5 0
2021-10-21 18:08:38 GMT 36.079639 -115.138153 0 312 5 0
2021-10-21 18:08:37 GMT 36.079601 -115.138153 0 306 4 0
2021-10-21 18:08:35 GMT 36.079601 -115.138130 0 315 6 0
2021-10-21 18:08:33 GMT 36.079552 -115.138062 0 321 4 0
2021-10-21 18:08:32 GMT 36.079540 -115.138031 0 323 4 0
2021-10-21 18:08:31 GMT 36.079529 -115.138000 0 319 3 0
2021-10-21 18:08:29 GMT 36.079498 -115.138008 0 313 4 0
2021-10-21 18:08:28 GMT 36.079491 -115.137993 0 306 4 0
2021-10-21 18:08:25 GMT 36.079449 -115.137962 0 299 4 0
2021-10-21 18:08:23 GMT 36.079399 -115.137939 0 290 3 0
2021-10-21 18:08:22 GMT 36.079399 -115.137932 0 291 3 0
2021-10-21 18:08:21 GMT 36.079380 -115.137917 0 291 4 0
2021-10-21 18:08:19 GMT 36.079391 -115.137871 0 293 3 0
2021-10-21 18:08:18 GMT 36.079369 -115.137848 0 291 3 0
2021-10-21 18:08:17 GMT 36.079361 -115.137840 0 291 3 0
2021-10-21 18:08:15 GMT 36.079330 -115.137802 0 291 2 0
2021-10-21 18:08:14 GMT 36.079350 -115.137779 0 293 0 0
2021-10-21 18:08:12 GMT 36.079361 -115.137772 0 292 0 0
2021-10-21 18:08:11 GMT 36.079361 -115.137779 0 292 2 0
2021-10-21 18:08:10 GMT 36.079369 -115.137772 0 292 2 0
2021-10-21 18:08:08 GMT 36.079350 -115.137741 0 289 2 0
2021-10-21 18:08:07 GMT 36.079330 -115.137741 0 289 2 0
2021-10-21 18:08:06 GMT 36.079330 -115.137718 0 289 2 0
2021-10-21 18:08:04 GMT 36.079319 -115.137718 0 288 4 0
2021-10-21 18:08:02 GMT 36.079311 -115.137680 0 283 5 0
2021-10-21 18:08:01 GMT 36.079281 -115.137657 0 277 4 0
2021-10-21 18:08:00 GMT 36.079262 -115.137611 0 272 4 0
2021-10-21 18:07:58 GMT 36.079262 -115.137611 0 275 6 0
2021-10-21 18:07:57 GMT 36.079262 -115.137550 0 279 5 0
2021-10-21 18:07:55 GMT 36.079269 -115.137512 0 283 6 0
2021-10-21 18:07:53 GMT 36.079262 -115.137444 0 284 5 0
2021-10-21 18:07:52 GMT 36.079262 -115.137421 0 280 6 0
2021-10-21 18:07:51 GMT 36.079220 -115.137383 0 277 8 0
2021-10-21 18:07:49 GMT 36.079231 -115.137329 0 282 8 0
2021-10-21 18:07:48 GMT 36.079239 -115.137283 0 284 8 0
2021-10-21 18:07:46 GMT 36.079220 -115.137192 0 284 6 0
2021-10-21 18:07:45 GMT 36.079201 -115.137161 0 282 5 0
2021-10-21 18:07:43 GMT 36.079208 -115.137100 0 280 6 0
2021-10-21 18:07:41 GMT 36.079182 -115.137016 0 294 4 0
2021-10-21 18:07:39 GMT 36.079189 -115.136971 0 300 5 0
2021-10-21 18:07:38 GMT 36.079170 -115.136940 0 280 4 0
2021-10-21 18:07:36 GMT 36.079140 -115.136917 0 271 4 0
2021-10-21 18:07:35 GMT 36.079109 -115.136909 0 264 4 0
2021-10-21 18:07:34 GMT 36.079121 -115.136871 0 270 4 0
2021-10-21 18:07:32 GMT 36.079121 -115.136841 0 276 4 0
2021-10-21 18:07:31 GMT 36.079128 -115.136787 0 280 5 0
2021-10-21 18:07:29 GMT 36.079128 -115.136757 0 277 6 0
2021-10-21 18:07:28 GMT 36.079109 -115.136742 0 270 6 0
2021-10-21 18:07:27 GMT 36.079090 -115.136703 0 271 6 0
2021-10-21 18:07:25 GMT 36.079121 -115.136642 0 282 6 0
2021-10-21 18:07:24 GMT 36.079121 -115.136620 0 281 8 0
2021-10-21 18:07:23 GMT 36.079090 -115.136513 0 284 5 0
2021-10-21 18:07:21 GMT 36.079102 -115.136482 0 289 5 0
2021-10-21 18:07:19 GMT 36.079079 -115.136429 0 285 6 0
2021-10-21 18:07:18 GMT 36.079060 -115.136391 0 282 5 0
2021-10-21 18:07:17 GMT 36.079041 -115.136360 0 281 5 0
2021-10-21 18:07:15 GMT 36.079048 -115.136292 0 288 4 0
2021-10-21 18:07:14 GMT 36.079041 -115.136269 0 290 5 0
2021-10-21 18:07:13 GMT 36.079041 -115.136200 0 296 4 0
2021-10-21 18:07:11 GMT 36.079021 -115.136192 0 297 4 0
2021-10-21 18:07:10 GMT 36.079041 -115.136169 0 303 4 0
2021-10-21 18:07:09 GMT 36.079010 -115.136108 0 305 2 0
2021-10-21 18:07:07 GMT 36.078999 -115.136108 0 307 3 0
2021-10-21 18:07:06 GMT 36.078979 -115.136078 0 313 3 0
2021-10-21 18:07:04 GMT 36.078960 -115.136063 0 316 3 0
2021-10-21 18:07:03 GMT 36.078972 -115.136040 0 316 3 0
2021-10-21 18:07:01 GMT 36.078972 -115.136009 0 322 4 0
2021-10-21 18:07:00 GMT 36.078960 -115.135986 0 325 4 0
2021-10-21 18:06:59 GMT 36.078930 -115.135948 0 331 2 0
2021-10-21 18:06:57 GMT 36.078930 -115.135941 0 330 3 0
2021-10-21 18:06:55 GMT 36.078911 -115.135948 0 328 3 0
2021-10-21 18:06:54 GMT 36.078880 -115.135933 0 334 2 0
2021-10-21 18:06:53 GMT 36.078880 -115.135910 0 338 2 0
2021-10-21 18:06:52 GMT 36.078861 -115.135910 0 339 3 0
2021-10-21 18:06:50 GMT 36.078892 -115.135880 0 343 5 0
2021-10-21 18:06:48 GMT 36.078838 -115.135849 0 347 5 0
2021-10-21 18:06:47 GMT 36.078819 -115.135841 0 347 5 0
2021-10-21 18:06:46 GMT 36.078812 -115.135841 0 343 7 0
2021-10-21 18:06:44 GMT 36.078739 -115.135818 0 347 5 0
2021-10-21 18:06:43 GMT 36.078720 -115.135803 0 358 4 0
2021-10-21 18:06:41 GMT 36.078671 -115.135780 0 4 3 0
2021-10-21 18:06:40 GMT 36.078678 -115.135811 0 356 5 0
2021-10-21 18:06:39 GMT 36.078659 -115.135811 0 356 5 0
2021-10-21 18:06:37 GMT 36.078609 -115.135803 0 13 3 0
2021-10-21 18:06:36 GMT 36.078609 -115.135788 0 16 6 0
2021-10-21 18:06:34 GMT 36.078571 -115.135788 0 25 7 0
2021-10-21 18:06:33 GMT 36.078541 -115.135811 0 24 7 0
2021-10-21 18:06:32 GMT 36.078510 -115.135818 0 32 7 0
2021-10-21 18:06:31 GMT 36.078442 -115.135849 0 51 7 0
2021-10-21 18:06:28 GMT 36.078381 -115.135880 0 65 7 0
2021-10-21 18:06:26 GMT 36.078331 -115.135963 0 75 7 0
2021-10-21 18:06:25 GMT 36.078339 -115.135971 0 67 9 0
2021-10-21 18:06:24 GMT 36.078339 -115.136101 0 50 8 0
2021-10-21 18:06:22 GMT 36.078308 -115.136139 0 58 6 0
2021-10-21 18:06:20 GMT 36.078251 -115.136177 0 89 7 0
2021-10-21 18:06:19 GMT 36.078232 -115.136253 0 101 3 0
2021-10-21 18:06:17 GMT 36.078220 -115.136299 0 106 5 0
2021-10-21 18:06:14 GMT 36.078220 -115.136391 0 102 10 0
2021-10-21 18:06:13 GMT 36.078232 -115.136429 0 99 12 0
2021-10-21 18:06:12 GMT 36.078251 -115.136467 0 92 15 0
2021-10-21 18:06:10 GMT 36.078270 -115.136642 0 87 15 0
2021-10-21 18:06:08 GMT 36.078289 -115.136780 0 80 19 0
2021-10-21 18:06:07 GMT 36.078270 -115.136879 0 81 20 0
2021-10-21 18:06:06 GMT 36.078239 -115.137093 0 86 22 0
2021-10-21 18:06:04 GMT 36.078220 -115.137192 0 90 24 0
2021-10-21 18:06:03 GMT 36.078220 -115.137337 0 91 22 0
2021-10-21 18:06:01 GMT 36.078201 -115.137604 0 95 23 0
2021-10-21 18:06:00 GMT 36.078232 -115.137733 0 92 22 0
2021-10-21 18:05:59 GMT 36.078239 -115.137863 0 90 22 0
2021-10-21 18:05:58 GMT 36.078239 -115.137993 0 91 21 0
2021-10-21 18:05:56 GMT 36.078239 -115.138222 0 91 22 0
2021-10-21 18:05:55 GMT 36.078251 -115.138359 0 88 20 0
2021-10-21 18:05:53 GMT 36.078251 -115.138603 0 90 20 0
2021-10-21 18:05:52 GMT 36.078239 -115.138733 0 94 18 0
2021-10-21 18:05:50 GMT 36.078259 -115.138924 0 88 19 0
2021-10-21 18:05:49 GMT 36.078259 -115.139038 0 88 18 0
2021-10-21 18:05:47 GMT 36.078251 -115.139259 0 88 18 0
2021-10-21 18:05:46 GMT 36.078259 -115.139359 0 85 18 0
2021-10-21 18:05:44 GMT 36.078232 -115.139572 0 93 15 0
2021-10-21 18:05:43 GMT 36.078239 -115.139648 0 93 17 0
2021-10-21 18:05:42 GMT 36.078251 -115.139740 0 90 17 0
2021-10-21 18:05:40 GMT 36.078239 -115.139938 0 88 15 0
2021-10-21 18:05:39 GMT 36.078232 -115.140053 0 96 13 0
2021-10-21 18:05:37 GMT 36.078251 -115.140198 0 91 14 0
2021-10-21 18:05:36 GMT 36.078270 -115.140282 0 86 13 0
2021-10-21 18:05:34 GMT 36.078251 -115.140442 0 91 13 0
2021-10-21 18:05:33 GMT 36.078251 -115.140511 0 89 13 0
2021-10-21 18:05:31 GMT 36.078259 -115.140671 0 91 10 0
2021-10-21 18:05:30 GMT 36.078251 -115.140717 0 94 9 0
2021-10-21 18:05:29 GMT 36.078239 -115.140762 0 95 11 0
2021-10-21 18:05:27 GMT 36.078251 -115.140900 0 89 9 0
2021-10-21 18:05:26 GMT 36.078251 -115.140984 0 89 13 0
2021-10-21 18:05:24 GMT 36.078251 -115.141052 0 93 13 0
2021-10-21 18:05:23 GMT 36.078259 -115.141129 0 91 13 0
2021-10-21 18:05:22 GMT 36.078259 -115.141251 0 89 16 0
2021-10-21 18:05:20 GMT 36.078259 -115.141342 0 91 16 0
2021-10-21 18:05:19 GMT 36.078259 -115.141449 0 91 15 0
2021-10-21 18:05:17 GMT 36.078270 -115.141586 0 84 18 0
2021-10-21 18:05:16 GMT 36.078270 -115.141678 0 85 19 0
2021-10-21 18:05:14 GMT 36.078251 -115.141891 0 89 18 0
2021-10-21 18:05:13 GMT 36.078232 -115.141991 0 94 18 0
2021-10-21 18:05:11 GMT 36.078251 -115.142319 0 93 16 0
2021-10-21 18:05:09 GMT 36.078259 -115.142418 0 92 16 0
2021-10-21 18:05:07 GMT 36.078281 -115.142601 0 83 16 0
2021-10-21 18:05:06 GMT 36.078259 -115.142700 0 88 14 0
2021-10-21 18:05:05 GMT 36.078251 -115.142868 0 89 14 0
2021-10-21 18:05:03 GMT 36.078239 -115.142937 0 93 15 0
2021-10-21 18:05:02 GMT 36.078239 -115.143028 0 96 14 0
2021-10-21 18:05:01 GMT 36.078259 -115.143211 0 94 11 0
2021-10-21 18:04:59 GMT 36.078259 -115.143288 0 94 10 0
2021-10-21 18:04:57 GMT 36.078270 -115.143372 0 91 14 0
2021-10-21 18:04:56 GMT 36.078270 -115.143463 0 93 13 0
2021-10-21 18:04:54 GMT 36.078281 -115.143608 0 94 13 0
2021-10-21 18:04:53 GMT 36.078281 -115.143692 0 95 13 0
2021-10-21 18:04:52 GMT 36.078281 -115.143761 0 96 13 0
2021-10-21 18:04:50 GMT 36.078300 -115.143898 0 95 16 0
2021-10-21 18:04:48 GMT 36.078308 -115.144073 0 94 17 0
2021-10-21 18:04:47 GMT 36.078320 -115.144173 0 93 17 0
2021-10-21 18:04:45 GMT 36.078339 -115.144371 0 89 17 0
2021-10-21 18:04:44 GMT 36.078331 -115.144470 0 91 16 0
2021-10-21 18:04:43 GMT 36.078320 -115.144562 0 94 17 0
2021-10-21 18:04:41 GMT 36.078331 -115.144737 0 96 19 0
2021-10-21 18:04:40 GMT 36.078350 -115.144859 0 94 17 0
2021-10-21 18:04:39 GMT 36.078362 -115.144958 0 92 17 0
2021-10-21 18:04:37 GMT 36.078362 -115.145149 0 92 15 0
2021-10-21 18:04:36 GMT 36.078362 -115.145241 0 95 15 0
2021-10-21 18:04:34 GMT 36.078369 -115.145401 0 98 15 0
2021-10-21 18:04:33 GMT 36.078362 -115.145493 0 104 14 0
2021-10-21 18:04:32 GMT 36.078400 -115.145569 0 96 14 0
2021-10-21 18:04:31 GMT 36.078411 -115.145653 0 93 14 0
2021-10-21 18:04:30 GMT 36.078419 -115.145813 0 94 13 0
2021-10-21 18:04:28 GMT 36.078430 -115.145912 0 94 11 0
2021-10-21 18:04:27 GMT 36.078430 -115.145958 0 93 12 0
2021-10-21 18:04:25 GMT 36.078430 -115.146103 0 97 11 0
2021-10-21 18:04:24 GMT 36.078430 -115.146156 0 99 12 0
2021-10-21 18:04:22 GMT 36.078461 -115.146278 0 93 12 0
2021-10-21 18:04:21 GMT 36.078461 -115.146347 0 93 12 0
2021-10-21 18:04:19 GMT 36.078491 -115.146477 0 86 13 0
2021-10-21 18:04:18 GMT 36.078480 -115.146538 0 87 14 0
2021-10-21 18:04:16 GMT 36.078449 -115.146698 0 101 14 0
2021-10-21 18:04:15 GMT 36.078480 -115.146790 0 95 13 0
2021-10-21 18:04:14 GMT 36.078468 -115.146858 0 97 14 0
2021-10-21 18:04:12 GMT 36.078468 -115.147034 0 103 13 0
2021-10-21 18:04:11 GMT 36.078522 -115.147179 0 94 12 0
2021-10-21 18:04:09 GMT 36.078510 -115.147240 0 92 13 0
2021-10-21 18:04:07 GMT 36.078529 -115.147392 0 91 11 0
2021-10-21 18:04:06 GMT 36.078522 -115.147453 0 96 11 0
2021-10-21 18:04:05 GMT 36.078529 -115.147522 0 96 11 0
2021-10-21 18:04:04 GMT 36.078548 -115.147659 0 93 8 0
2021-10-21 18:04:02 GMT 36.078548 -115.147713 0 92 8 0
2021-10-21 18:04:01 GMT 36.078548 -115.147758 0 93 7 0
2021-10-21 18:04:00 GMT 36.078541 -115.147858 0 98 6 0
2021-10-21 18:03:58 GMT 36.078560 -115.147881 0 90 8 0
2021-10-21 18:03:56 GMT 36.078571 -115.147957 0 93 11 0
2021-10-21 18:03:55 GMT 36.078571 -115.148033 0 95 12 0
2021-10-21 18:03:54 GMT 36.078560 -115.148064 0 95 15 0
2021-10-21 18:03:52 GMT 36.078579 -115.148209 0 93 18 0
2021-10-21 18:03:50 GMT 36.078579 -115.148407 0 98 20 0
2021-10-21 18:03:49 GMT 36.078579 -115.148514 0 100 22 0
2021-10-21 18:03:48 GMT 36.078609 -115.148628 0 95 22 0
2021-10-21 18:03:47 GMT 36.078651 -115.148888 0 90 21 0
2021-10-21 18:03:45 GMT 36.078640 -115.149132 0 92 22 0
2021-10-21 18:03:43 GMT 36.078651 -115.149269 0 91 21 0
2021-10-21 18:03:42 GMT 36.078659 -115.149521 0 93 20 0
2021-10-21 18:03:41 GMT 36.078659 -115.149628 0 94 21 0
2021-10-21 18:03:39 GMT 36.078671 -115.149857 0 99 22 0
2021-10-21 18:03:37 GMT 36.078701 -115.149986 0 94 20 0
2021-10-21 18:03:36 GMT 36.078701 -115.150108 0 94 20 0
2021-10-21 18:03:34 GMT 36.078720 -115.150337 0 93 19 0
2021-10-21 18:03:33 GMT 36.078709 -115.150459 0 99 19 0
2021-10-21 18:03:32 GMT 36.078720 -115.150574 0 102 18 0
2021-10-21 18:03:30 GMT 36.078770 -115.150757 0 92 19 0
2021-10-21 18:03:29 GMT 36.078751 -115.150879 0 97 19 0
2021-10-21 18:03:27 GMT 36.078781 -115.151070 0 90 19 0
2021-10-21 18:03:26 GMT 36.078781 -115.151192 0 88 18 0
2021-10-21 18:03:25 GMT 36.078781 -115.151398 0 78 17 0
2021-10-21 18:03:23 GMT 36.078800 -115.151497 0 65 16 0
2021-10-21 18:03:21 GMT 36.078751 -115.151703 0 50 14 0
2021-10-21 18:03:20 GMT 36.078690 -115.151817 0 39 15 0
2021-10-21 18:03:18 GMT 36.078640 -115.151901 0 34 15 0
2021-10-21 18:03:17 GMT 36.078571 -115.151962 0 31 13 0
2021-10-21 18:03:16 GMT 36.078461 -115.152031 0 37 14 0
2021-10-21 18:03:14 GMT 36.078430 -115.152077 0 32 15 0
2021-10-21 18:03:13 GMT 36.078362 -115.152122 0 34 15 0
2021-10-21 18:03:11 GMT 36.078239 -115.152229 0 34 15 0
2021-10-21 18:03:10 GMT 36.078121 -115.152321 0 39 14 0
2021-10-21 18:03:08 GMT 36.078079 -115.152382 0 29 14 0
2021-10-21 18:03:07 GMT 36.078018 -115.152451 0 26 12 0
2021-10-21 18:03:05 GMT 36.077911 -115.152496 0 28 11 0
2021-10-21 18:03:04 GMT 36.077862 -115.152519 0 24 12 0
2021-10-21 18:03:02 GMT 36.077770 -115.152580 0 2 11 0
2021-10-21 18:03:01 GMT 36.077721 -115.152634 0 351 11 0
2021-10-21 18:02:59 GMT 36.077621 -115.152634 0 340 12 0
2021-10-21 18:02:58 GMT 36.077579 -115.152634 0 338 14 0
2021-10-21 18:02:57 GMT 36.077541 -115.152588 0 341 15 0
2021-10-21 18:02:55 GMT 36.077419 -115.152550 0 338 18 0
2021-10-21 18:02:54 GMT 36.077339 -115.152519 0 337 18 0
2021-10-21 18:02:53 GMT 36.077179 -115.152473 0 326 19 0
2021-10-21 18:02:51 GMT 36.077099 -115.152397 0 329 18 0
2021-10-21 18:02:50 GMT 36.077030 -115.152351 0 331 17 0
2021-10-21 18:02:48 GMT 36.076889 -115.152252 0 333 19 0
2021-10-21 18:02:47 GMT 36.076832 -115.152199 0 335 20 0
2021-10-21 18:02:46 GMT 36.076740 -115.152161 0 333 20 0
2021-10-21 18:02:45 GMT 36.076672 -115.152100 0 336 20 0
2021-10-21 18:02:44 GMT 36.076488 -115.152008 0 334 21 0
2021-10-21 18:02:42 GMT 36.076401 -115.151947 0 334 20 0
2021-10-21 18:02:40 GMT 36.076241 -115.151848 0 338 21 0
2021-10-21 18:02:39 GMT 36.076149 -115.151802 0 337 21 0
2021-10-21 18:02:38 GMT 36.075970 -115.151711 0 338 22 0
2021-10-21 18:02:36 GMT 36.075878 -115.151657 0 337 22 0
2021-10-21 18:02:35 GMT 36.075699 -115.151558 0 333 24 0
2021-10-21 18:02:33 GMT 36.075600 -115.151497 0 332 24 0
2021-10-21 18:02:32 GMT 36.075508 -115.151443 0 328 25 0
2021-10-21 18:02:29 GMT 36.075199 -115.151222 0 314 24 0
2021-10-21 18:02:28 GMT 36.075119 -115.151131 0 312 25 0
2021-10-21 18:02:27 GMT 36.075050 -115.151031 0 310 26 0
2021-10-21 18:02:25 GMT 36.074890 -115.150818 0 304 28 0
2021-10-21 18:02:24 GMT 36.074821 -115.150703 0 303 29 0
2021-10-21 18:02:23 GMT 36.074741 -115.150574 0 301 30 0
2021-10-21 18:02:21 GMT 36.074589 -115.150284 0 299 30 0
2021-10-21 18:02:20 GMT 36.074451 -115.149971 0 301 29 0
2021-10-21 18:02:18 GMT 36.074390 -115.149841 0 299 31 0
2021-10-21 18:02:17 GMT 36.074329 -115.149681 0 301 32 0
2021-10-21 18:02:15 GMT 36.074181 -115.149368 0 296 32 0
2021-10-21 18:02:14 GMT 36.074100 -115.149231 0 290 34 0
2021-10-21 18:02:13 GMT 36.073990 -115.148849 0 288 32 0
2021-10-21 18:02:11 GMT 36.073921 -115.148682 0 284 32 0
2021-10-21 18:02:10 GMT 36.073879 -115.148514 0 282 34 0
2021-10-21 18:02:08 GMT 36.073811 -115.148109 0 280 35 0
2021-10-21 18:02:07 GMT 36.073780 -115.147911 0 279 37 0
2021-10-21 18:02:06 GMT 36.073761 -115.147697 0 279 39 0
2021-10-21 18:02:04 GMT 36.073711 -115.147240 0 276 43 0
2021-10-21 18:02:03 GMT 36.073689 -115.147003 0 274 45 0
2021-10-21 18:02:02 GMT 36.073662 -115.146751 0 272 48 0
2021-10-21 18:02:00 GMT 36.073620 -115.146187 0 269 55 0
2021-10-21 18:01:59 GMT 36.073589 -115.145882 0 267 58 0
2021-10-21 18:01:58 GMT 36.073631 -115.145203 0 269 64 0
2021-10-21 18:01:56 GMT 36.073639 -115.144852 0 270 68 0
2021-10-21 18:01:55 GMT 36.073639 -115.144501 0 270 74 0
2021-10-21 18:01:54 GMT 36.073650 -115.144081 0 271 75 0
2021-10-21 18:01:52 GMT 36.073620 -115.143188 0 269 81 128
2021-10-21 18:01:51 GMT 36.073620 -115.142738 0 269 86 128
2021-10-21 18:01:50 GMT 36.073631 -115.141762 1,800 269 95 128
2021-10-21 18:01:48 GMT 36.073631 -115.141251 1,800 269 102 128
2021-10-21 18:01:47 GMT 36.073650 -115.140678 1,800 270 104 128
2021-10-21 18:01:45 GMT 36.073650 -115.139503 1,775 270 113 160
2021-10-21 18:01:44 GMT 36.073639 -115.138870 1,775 269 117 160
2021-10-21 18:01:43 GMT 36.073639 -115.138222 1,775 269 121 -32
2021-10-21 18:01:41 GMT 36.073650 -115.136879 1,775 269 131 64
2021-10-21 18:01:40 GMT 36.073650 -115.136169 1,775 269 135 64
2021-10-21 18:01:38 GMT 36.073662 -115.134651 1,750 269 139 64
2021-10-21 18:01:37 GMT 36.073662 -115.133858 1,750 269 139 64
2021-10-21 18:01:35 GMT 36.073639 -115.132278 1,750 269 143 -32
2021-10-21 18:01:34 GMT 36.073681 -115.131493 1,750 270 145 0
2021-10-21 18:01:32 GMT 36.073662 -115.129829 1,800 270 145 -736
2021-10-21 18:01:31 GMT 36.073639 -115.129013 1,800 269 145 -736
2021-10-21 18:01:30 GMT 36.073639 -115.127350 1,825 269 145 -736
2021-10-21 18:01:28 GMT 36.073669 -115.126541 1,900 270 149 -736
2021-10-21 18:01:27 GMT 36.073681 -115.125702 1,875 270 146 -736
2021-10-21 18:01:26 GMT 36.073662 -115.124023 1,875 270 141 -736
2021-10-21 18:01:24 GMT 36.073669 -115.123199 1,900 271 141 -736
2021-10-21 18:01:23 GMT 36.073639 -115.121590 1,900 270 145 -736
2021-10-21 18:01:21 GMT 36.073631 -115.120743 2,000 269 142 -736
2021-10-21 18:01:19 GMT 36.073620 -115.119110 2,000 269 145 -736
2021-10-21 18:01:18 GMT 36.073631 -115.118301 2,000 270 145 -736
2021-10-21 18:01:17 GMT 36.073601 -115.116631 2,000 268 143 -736
2021-10-21 18:01:14 GMT 36.073620 -115.115013 2,000 269 142 -736
2021-10-21 18:01:13 GMT 36.073662 -115.114288 2,100 270 149 -736
2021-10-21 18:01:12 GMT 36.073620 -115.113411 2,100 268 147 -832
2021-10-21 18:01:11 GMT 36.073711 -115.111710 2,100 272 145 -832
2021-10-21 18:01:09 GMT 36.073662 -115.110970 2,100 270 150 -832
2021-10-21 18:01:07 GMT 36.073650 -115.109200 2,100 269 144 -832
2021-10-21 18:01:06 GMT 36.073738 -115.108353 2,100 272 143 -832
2021-10-21 18:01:05 GMT 36.073650 -115.107529 2,100 268 143 -832
2021-10-21 18:01:03 GMT 36.073662 -115.105942 2,175 268 146 -832
2021-10-21 18:01:02 GMT 36.073750 -115.105087 2,175 271 146 -832
2021-10-21 18:01:00 GMT 36.073689 -115.103333 2,200 271 137 -832
2021-10-21 18:00:59 GMT 36.073711 -115.102638 2,300 271 144 -832
2021-10-21 18:00:58 GMT 36.073620 -115.100990 2,300 269 145 -832
2021-10-21 18:00:56 GMT 36.073631 -115.100121 2,300 269 141 -832
2021-10-21 18:00:55 GMT 36.073662 -115.099350 2,250 269 143 -832
2021-10-21 18:00:53 GMT 36.073669 -115.097748 2,300 270 146 -832
2021-10-21 18:00:52 GMT 36.073639 -115.096916 2,300 269 146 -832
2021-10-21 18:00:50 GMT 36.073681 -115.095268 2,400 270 146 -832
2021-10-21 18:00:49 GMT 36.073662 -115.094391 2,400 270 142 -832
2021-10-21 18:00:48 GMT 36.073662 -115.093567 2,400 270 142 -832
2021-10-21 18:00:46 GMT 36.073620 -115.091980 2,400 269 144 -832
2021-10-21 18:00:45 GMT 36.073669 -115.090340 2,400 272 144 -832
2021-10-21 18:00:43 GMT 36.073551 -115.089523 2,400 268 146 -832
2021-10-21 18:00:42 GMT 36.073551 -115.088669 2,400 267 144 -832
2021-10-21 18:00:40 GMT 36.073681 -115.087051 2,500 271 146 -832
2021-10-21 18:00:39 GMT 36.073589 -115.086197 2,500 268 145 -832
2021-10-21 18:00:37 GMT 36.073639 -115.084480 2,500 269 140 -832
2021-10-21 18:00:36 GMT 36.073589 -115.083778 2,525 267 148 -832
2021-10-21 18:00:35 GMT 36.073669 -115.082909 2,525 269 147 -832
2021-10-21 18:00:33 GMT 36.073650 -115.081177 2,600 270 141 -832
2021-10-21 18:00:32 GMT 36.073620 -115.080452 2,600 268 146 -832
2021-10-21 18:00:30 GMT 36.073639 -115.078781 2,600 268 145 -832
2021-10-21 18:00:29 GMT 36.073669 -115.077957 2,600 268 145 -832
2021-10-21 18:00:28 GMT 36.073761 -115.076332 2,650 271 146 -832
2021-10-21 18:00:26 GMT 36.073700 -115.075539 2,650 270 149 -832
2021-10-21 18:00:24 GMT 36.073689 -115.073738 2,700 271 140 -832
2021-10-21 18:00:23 GMT 36.073669 -115.072906 2,700 271 139 -832
2021-10-21 18:00:22 GMT 36.073540 -115.071388 2,700 268 146 -832
2021-10-21 18:00:20 GMT 36.073601 -115.070511 2,700 269 143 -832
2021-10-21 18:00:19 GMT 36.073631 -115.069702 2,700 270 143 -832
2021-10-21 18:00:18 GMT 36.073608 -115.068100 2,800 270 146 -832
2021-10-21 18:00:16 GMT 36.073608 -115.067268 2,800 270 146 -832
2021-10-21 18:00:14 GMT 36.073608 -115.065552 2,800 270 141 -832
2021-10-21 18:00:13 GMT 36.073582 -115.064819 2,800 269 147 -832
2021-10-21 18:00:11 GMT 36.073608 -115.063141 2,900 269 146 -832
2021-10-21 18:00:10 GMT 36.073608 -115.062286 2,900 269 146 -832
2021-10-21 18:00:08 GMT 36.073608 -115.060677 2,900 269 149 -832
2021-10-21 18:00:07 GMT 36.073608 -115.059822 2,900 269 148 -832
2021-10-21 18:00:06 GMT 36.073608 -115.058060 2,900 269 143 -832
2021-10-21 18:00:04 GMT 36.073608 -115.057312 3,000 269 148 -832
2021-10-21 18:00:03 GMT 36.073608 -115.055641 3,000 269 149 -832
2021-10-21 18:00:01 GMT 36.073608 -115.054787 3,000 269 149 -832
2021-10-21 18:00:00 GMT 36.073608 -115.053909 3,000 269 147 -832
2021-10-21 17:59:58 GMT 36.073608 -115.052292 3,100 270 152 -832
2021-10-21 17:59:57 GMT 36.073608 -115.051399 3,100 270 152 -832
2021-10-21 17:59:55 GMT 36.073620 -115.049698 3,100 270 153 -832
2021-10-21 17:59:54 GMT 36.073620 -115.048828 3,100 270 153 -832
2021-10-21 17:59:52 GMT 36.073608 -115.047096 3,100 270 155 -832
2021-10-21 17:59:51 GMT 36.073601 -115.046181 3,100 270 153 -832
2021-10-21 17:59:50 GMT 36.073570 -115.045372 3,200 269 157 -832
2021-10-21 17:59:49 GMT 36.073570 -115.043579 3,200 269 157 -832
2021-10-21 17:59:47 GMT 36.073559 -115.042671 3,200 269 155 -832
2021-10-21 17:59:46 GMT 36.073559 -115.040916 3,200 269 158 -832
2021-10-21 17:59:44 GMT 36.073559 -115.040047 3,200 269 161 -832
2021-10-21 17:59:42 GMT 36.073570 -115.038193 3,200 269 159 -832
2021-10-21 17:59:41 GMT 36.073570 -115.037338 3,300 269 164 -832
2021-10-21 17:59:40 GMT 36.073589 -115.036430 3,300 270 165 -832
2021-10-21 17:59:39 GMT 36.073620 -115.035500 3,300 270 165 -832
2021-10-21 17:59:37 GMT 36.073589 -115.033569 3,300 270 163 -832
2021-10-21 17:59:36 GMT 36.073559 -115.031769 3,500 269 169 -832
2021-10-21 17:59:34 GMT 36.073570 -115.030800 3,500 269 168 -832
2021-10-21 17:59:33 GMT 36.073589 -115.028938 3,500 270 170 -832
2021-10-21 17:59:31 GMT 36.073608 -115.028023 3,500 270 173 -832
2021-10-21 17:59:30 GMT 36.073570 -115.026009 3,500 269 171 -832
2021-10-21 17:59:28 GMT 36.073570 -115.024971 3,500 269 167 -832
2021-10-21 17:59:27 GMT 36.073570 -115.024078 3,700 269 171 -832
2021-10-21 17:59:25 GMT 36.073570 -115.022041 3,700 270 165 -832
2021-10-21 17:59:24 GMT 36.073570 -115.021049 3,700 270 163 -832
2021-10-21 17:59:22 GMT 36.073570 -115.019180 3,700 270 165 -832
2021-10-21 17:59:20 GMT 36.073570 -115.016281 3,700 270 168 -832
2021-10-21 17:59:18 GMT 36.073559 -115.015427 3,800 269 177 -832
2021-10-21 17:59:17 GMT 36.073551 -115.014519 3,800 269 186 -832
2021-10-21 17:59:16 GMT 36.073551 -115.013603 3,800 269 196 -832
2021-10-21 17:59:14 GMT 36.073551 -115.011513 3,800 268 210 -832
2021-10-21 17:59:07 GMT 36.073563 -115.005051 3,950 270 174 -1088
2021-10-21 17:59:03 GMT 36.073608 -115.000793 4,000 270 179 -704
2021-10-21 17:58:56 GMT 36.073608 -114.994064 4,050 270 189 -512
2021-10-21 17:58:52 GMT 36.073608 -114.989571 4,075 271 193 -768
2021-10-21 17:58:46 GMT 36.073563 -114.982513 4,175 271 196 -896
2021-10-21 17:58:43 GMT 36.073563 -114.977875 4,225 270 197 -768
2021-10-21 17:58:36 GMT 36.073563 -114.971237 4,325 271 199 -832
2021-10-21 17:58:31 GMT 36.073563 -114.966202 4,375 271 200 -704
2021-10-21 17:58:25 GMT 36.073517 -114.959221 4,450 270 202 -832
2021-10-21 17:58:22 GMT 36.073517 -114.953674 4,525 270 203 -1024
2021-10-21 17:58:15 GMT 36.073563 -114.947205 4,625 271 203 -1088
2021-10-21 17:58:10 GMT 36.073517 -114.941948 4,725 270 202 -1216
2021-10-21 17:58:04 GMT 36.073517 -114.934700 4,850 270 201 -1280
2021-10-21 17:58:01 GMT 36.073517 -114.930023 4,950 270 200 -1280
2021-10-21 17:57:53 GMT 36.073517 -114.922134 5,075 271 199 -1088
2021-10-21 17:57:49 GMT 36.073517 -114.917809 5,150 271 199 -1152
2021-10-21 17:57:44 GMT 36.073467 -114.911034 5,275 271 199 -1152
2021-10-21 17:57:39 GMT 36.073421 -114.905304 5,375 271 201 -1216
2021-10-21 17:57:33 GMT 36.073421 -114.899109 5,475 270 205 -1088
2021-10-21 17:57:29 GMT 36.073471 -114.894218 5,550 269 208 -1024
2021-10-21 17:57:23 GMT 36.073517 -114.885612 5,650 270 215 -832
2021-10-21 17:57:18 GMT 36.073517 -114.881516 5,700 270 218 -1088
2021-10-21 17:57:11 GMT 36.073563 -114.872589 5,850 270 220 -1152
2021-10-21 17:57:08 GMT 36.073563 -114.868179 5,925 270 222 -1024
2021-10-21 17:57:02 GMT 36.073608 -114.860077 6,025 270 225 -1088
2021-10-21 17:56:57 GMT 36.073608 -114.854813 6,100 270 227 -1088
2021-10-21 17:56:51 GMT 36.073563 -114.846107 6,200 272 229 -1088
2021-10-21 17:56:48 GMT 36.073467 -114.841553 6,275 272 229 -1088
2021-10-21 17:56:41 GMT 36.073288 -114.832649 6,375 272 232 -768
2021-10-21 17:56:36 GMT 36.073189 -114.827583 6,425 271 234 -704
2021-10-21 17:56:29 GMT 36.073143 -114.817879 6,500 270 237 -704
2021-10-21 17:56:24 GMT 36.073189 -114.809586 6,575 270 239 -704
2021-10-21 17:56:20 GMT 36.073196 -114.804214 6,625 270 241 -768
2021-10-21 17:56:16 GMT 36.073242 -114.799400 6,675 270 242 -768
2021-10-21 17:56:06 GMT 36.073334 -114.784698 6,825 270 245 -832
2021-10-21 17:55:59 GMT 36.073425 -114.775024 6,975 270 245 -1472
2021-10-21 17:55:55 GMT 36.073471 -114.770454 7,050 270 244 -1472
2021-10-21 17:55:45 GMT 36.073563 -114.755295 7,325 270 240 -1600
2021-10-21 17:55:38 GMT 36.073563 -114.745621 7,425 271 242 -768
2021-10-21 17:55:33 GMT 36.073563 -114.740807 7,500 271 242 -1216
2021-10-21 17:55:27 GMT 36.073284 -114.731506 7,625 275 241 -896
2021-10-21 17:55:23 GMT 36.072876 -114.726501 7,675 278 240 -640
2021-10-21 17:55:17 GMT 36.071651 -114.717484 7,700 282 239 0
2021-10-21 17:55:12 GMT 36.070770 -114.711990 7,700 282 239 0
2021-10-21 17:55:05 GMT 36.069279 -114.702873 7,700 282 240 0
2021-10-21 17:55:02 GMT 36.068619 -114.698639 7,700 282 240 0
2021-10-21 17:54:54 GMT 36.066696 -114.686790 7,700 282 239 0
2021-10-21 17:54:45 GMT 36.064819 -114.674950 7,700 282 239 0
2021-10-21 17:54:42 GMT 36.064178 -114.670944 7,700 282 239 0
2021-10-21 17:54:32 GMT 36.061890 -114.656296 7,700 282 239 0
2021-10-21 17:54:20 GMT 36.059689 -114.642220 7,700 282 240 0
2021-10-21 17:54:14 GMT 36.058090 -114.632095 7,700 282 240 0
2021-10-21 17:54:11 GMT 36.057541 -114.628716 7,725 282 240 -64
2021-10-21 17:54:00 GMT 36.055298 -114.614525 7,725 281 242 0
2021-10-21 17:53:50 GMT 36.053078 -114.600258 7,700 281 247 0
2021-10-21 17:53:39 GMT 36.050751 -114.585243 7,700 282 256 0
2021-10-21 17:53:31 GMT 36.048889 -114.573730 7,725 282 262 0
2021-10-21 17:53:28 GMT 36.048283 -114.569984 7,725 282 262 0
2021-10-21 17:53:18 GMT 36.045776 -114.554611 7,700 282 263 0
2021-10-21 17:53:10 GMT 36.043808 -114.542831 7,700 282 264 0
2021-10-21 17:53:07 GMT 36.043259 -114.539566 7,700 282 264 0
2021-10-21 17:52:58 GMT 36.040604 -114.524231 7,700 283 264 0
2021-10-21 17:52:46 GMT 36.037766 -114.508209 7,700 283 264 0
2021-10-21 17:52:37 GMT 36.035019 -114.493050 7,700 283 264 0
2021-10-21 17:52:28 GMT 36.032738 -114.480110 7,700 282 263 -64
2021-10-21 17:52:24 GMT 36.031952 -114.475655 7,700 283 263 -64
2021-10-21 17:52:16 GMT 36.029663 -114.461823 7,725 282 259 64
2021-10-21 17:52:04 GMT 36.027195 -114.446976 7,775 282 263 -1152
2021-10-21 17:51:55 GMT 36.024673 -114.431587 7,975 282 264 -1024
2021-10-21 17:51:44 GMT 36.022167 -114.416122 8,150 282 265 -1088
2021-10-21 17:51:33 GMT 36.019684 -114.400978 8,350 282 266 -1152
2021-10-21 17:51:23 GMT 36.017139 -114.385208 8,550 282 267 -1152
2021-10-21 17:51:15 GMT 36.014858 -114.371765 8,725 282 267 -1344
2021-10-21 17:51:12 GMT 36.014511 -114.369621 8,775 282 267 -1344
2021-10-21 17:51:03 GMT 36.011787 -114.353882 9,000 283 267 -1216
2021-10-21 17:50:52 GMT 36.008514 -114.338898 9,200 292 268 -1408
2021-10-21 17:50:42 GMT 36.002010 -114.325134 9,450 313 270 -1344
2021-10-21 17:50:30 GMT 35.991772 -114.313911 9,675 328 272 -1152
2021-10-21 17:50:21 GMT 35.979950 -114.307022 9,875 344 275 -1280
2021-10-21 17:50:12 GMT 35.968643 -114.304672 10,075 0 276 -1344
2021-10-21 17:50:09 GMT 35.966679 -114.304619 10,125 1 276 -1216
2021-10-21 17:50:00 GMT 35.953503 -114.305267 10,300 3 277 -1088
2021-10-21 17:49:49 GMT 35.940216 -114.306503 10,475 7 279 -960
2021-10-21 17:49:39 GMT 35.926083 -114.310287 10,650 18 281 -1024
2021-10-21 17:49:28 GMT 35.914124 -114.316116 10,800 22 284 -960
2021-10-21 17:49:18 GMT 35.901169 -114.322701 11,000 22 285 -1024
2021-10-21 17:49:07 GMT 35.888580 -114.328880 11,150 20 288 -768
2021-10-21 17:48:57 GMT 35.875214 -114.333511 11,275 0 292 -768
2021-10-21 17:48:46 GMT 35.860867 -114.333664 11,400 351 294 -832
2021-10-21 17:48:35 GMT 35.847038 -114.328461 11,550 330 299 -832
2021-10-21 17:48:26 GMT 35.835114 -114.318642 11,700 317 303 -1024
2021-10-21 17:48:14 GMT 35.825394 -114.304153 11,875 302 307 -960
2021-10-21 17:48:05 GMT 35.818501 -114.288788 12,025 299 316 -832
2021-10-21 17:47:54 GMT 35.811035 -114.272057 12,150 299 326 -832
2021-10-21 17:47:44 GMT 35.802979 -114.254036 12,325 299 333 -896
2021-10-21 17:47:33 GMT 35.795380 -114.237160 12,475 299 343 -1024
2021-10-21 17:47:23 GMT 35.787460 -114.219360 12,725 299 347 -1920
2021-10-21 17:47:11 GMT 35.778625 -114.199509 13,050 299 349 -1344
2021-10-21 17:47:02 GMT 35.771252 -114.182953 13,275 299 353 -1856
2021-10-21 17:46:52 GMT 35.762924 -114.163399 13,600 295 355 -1600
2021-10-21 17:46:40 GMT 35.757156 -114.144058 13,825 285 358 -1024
2021-10-21 17:46:31 GMT 35.753376 -114.122879 13,975 282 365 -832
2021-10-21 17:46:20 GMT 35.750023 -114.101669 14,150 282 374 -1216
2021-10-21 17:46:09 GMT 35.746262 -114.077972 14,425 282 382 -1856
2021-10-21 17:45:58 GMT 35.742764 -114.055794 14,825 281 385 -2368
2021-10-21 17:45:47 GMT 35.738804 -114.030663 15,275 281 390 -2432
2021-10-21 17:45:37 GMT 35.735546 -114.009918 15,675 281 394 -2432
2021-10-21 17:45:26 GMT 35.731823 -113.986717 16,100 282 397 -2432
2021-10-21 17:45:16 GMT 35.728100 -113.963577 16,525 282 400 -2688
2021-10-21 17:45:06 GMT 35.724327 -113.940552 17,025 282 400 -3136
2021-10-21 17:44:56 GMT 35.720463 -113.917175 17,600 282 397 -3136
2021-10-21 17:44:45 GMT 35.716736 -113.894524 18,100 282 395 -2560
2021-10-21 17:44:35 GMT 35.712799 -113.870712 18,550 282 396 -2432
2021-10-21 17:44:23 GMT 35.708862 -113.846626 18,975 282 396 -2432
2021-10-21 17:44:14 GMT 35.705288 -113.824730 19,450 282 394 -3008
2021-10-21 17:44:04 GMT 35.701904 -113.803993 19,950 282 390 -3328
2021-10-21 17:44:00 GMT 35.700539 -113.795624 20,150 282 390 -3072
2021-10-21 17:43:53 GMT 35.697784 -113.778816 20,475 282 390 -2240
2021-10-21 17:43:41 GMT 35.693928 -113.754951 20,825 282 393 -1408
2021-10-21 17:43:32 GMT 35.690250 -113.732452 21,075 282 398 -1792
2021-10-21 17:43:20 GMT 35.686340 -113.707970 21,500 282 400 -2432
2021-10-21 17:43:11 GMT 35.682755 -113.685883 21,875 282 401 -2432
2021-10-21 17:43:02 GMT 35.679405 -113.665489 22,250 282 402 -2304
2021-10-21 17:42:59 GMT 35.678707 -113.661041 22,325 282 402 -2176
2021-10-21 17:42:50 GMT 35.675491 -113.641663 22,600 282 402 -1664
2021-10-21 17:42:40 GMT 35.671490 -113.617157 22,850 282 402 -1024
2021-10-21 17:42:35 GMT 35.669998 -113.608131 22,900 282 401 -960
2021-10-21 17:42:30 GMT 35.667908 -113.595474 23,000 282 401 -960
2021-10-21 17:42:26 GMT 35.666649 -113.587708 23,050 282 400 -960
2021-10-21 17:42:20 GMT 35.664135 -113.572273 23,175 282 400 -960
2021-10-21 17:42:17 GMT 35.663437 -113.568069 23,200 282 400 -960
2021-10-21 17:42:07 GMT 35.659607 -113.544502 23,350 282 401 -960
2021-10-21 17:41:58 GMT 35.656128 -113.523270 23,525 282 402 -960
2021-10-21 17:41:48 GMT 35.652683 -113.501221 23,675 280 401 -1024
2021-10-21 17:41:43 GMT 35.651287 -113.490639 23,750 280 401 -1024
2021-10-21 17:41:36 GMT 35.649284 -113.472755 23,875 278 402 -960
2021-10-21 17:41:28 GMT 35.647144 -113.453941 24,025 278 404 -960
2021-10-21 17:41:22 GMT 35.645920 -113.442879 24,100 278 404 -960
2021-10-21 17:41:17 GMT 35.644592 -113.431267 24,175 278 405 -960
2021-10-21 17:41:11 GMT 35.642769 -113.415138 24,275 278 406 -960
2021-10-21 17:41:07 GMT 35.641846 -113.407288 24,350 279 408 -1024
2021-10-21 17:41:03 GMT 35.640930 -113.399277 24,400 279 408 -1024
2021-10-21 17:40:55 GMT 35.638996 -113.382355 24,525 279 409 -960
2021-10-21 17:40:52 GMT 35.637772 -113.371696 24,600 278 409 -960
2021-10-21 17:40:46 GMT 35.636261 -113.358765 24,700 278 410 -896
2021-10-21 17:40:38 GMT 35.634388 -113.342499 24,800 278 410 -896
2021-10-21 17:40:33 GMT 35.632828 -113.328728 24,875 278 411 -960
2021-10-21 17:40:25 GMT 35.630585 -113.309036 25,025 278 412 -960
2021-10-21 17:40:21 GMT 35.629898 -113.302979 25,050 278 413 -960
2021-10-21 17:40:15 GMT 35.628288 -113.288681 25,175 278 414 -960
2021-10-21 17:40:12 GMT 35.627243 -113.279739 25,225 279 415 -960
2021-10-21 17:40:03 GMT 35.625172 -113.261620 25,350 279 416 -1024
2021-10-21 17:40:00 GMT 35.624313 -113.253998 25,400 278 417 -1024
2021-10-21 17:39:53 GMT 35.622379 -113.237312 25,500 278 417 -1024
2021-10-21 17:39:48 GMT 35.620979 -113.225098 25,600 279 416 -1088
2021-10-21 17:39:43 GMT 35.618980 -113.207802 25,725 278 417 -1024
2021-10-21 17:39:32 GMT 35.616421 -113.185593 25,875 279 416 -1088
2021-10-21 17:39:29 GMT 35.615860 -113.180687 25,925 279 415 -1152
2021-10-21 17:39:19 GMT 35.613052 -113.156609 26,125 279 412 -1024
2021-10-21 17:39:10 GMT 35.610626 -113.135834 26,300 279 407 -832
2021-10-21 17:39:03 GMT 35.609016 -113.122360 26,375 279 402 -704
2021-10-21 17:38:59 GMT 35.607971 -113.113342 26,425 279 395 -896
2021-10-21 17:38:56 GMT 35.606922 -113.104362 26,475 279 395 -960
2021-10-21 17:38:50 GMT 35.605663 -113.093674 26,600 278 395 -1024
2021-10-21 17:38:47 GMT 35.602825 -113.069008 26,625 278 395 -1024
2021-10-21 17:38:39 GMT 35.602825 -113.069008 26,725 278 395 -1088
2021-10-21 17:38:30 GMT 35.600266 -113.046570 26,925 278 395 -1024
2021-10-21 17:38:25 GMT 35.599091 -113.036446 27,000 279 395 -896
2021-10-21 17:38:19 GMT 35.597534 -113.023109 27,100 279 395 -960
2021-10-21 17:38:15 GMT 35.596355 -113.013199 27,150 279 395 -896
2021-10-21 17:38:09 GMT 35.594913 -113.000580 27,250 279 395 -896
2021-10-21 17:38:06 GMT 35.594212 -112.994797 27,275 279 396 -896
2021-10-21 17:38:01 GMT 35.592911 -112.983223 27,375 279 396 -960
2021-10-21 17:37:57 GMT 35.591904 -112.974815 27,425 279 396 -960
2021-10-21 17:37:53 GMT 35.590668 -112.963943 27,500 279 397 -1024
2021-10-21 17:37:45 GMT 35.588699 -112.946945 27,625 279 399 -1024
2021-10-21 17:37:37 GMT 35.586578 -112.928932 27,750 279 399 -1024
2021-10-21 17:37:30 GMT 35.584534 -112.911591 28,025 279 400 -960
2021-10-21 17:37:27 GMT 35.584019 -112.907021 27,925 279 400 -960
2021-10-21 17:37:21 GMT 35.582474 -112.893906 28,025 279 400 -960
2021-10-21 17:37:17 GMT 35.581238 -112.883553 28,100 279 400 -896
2021-10-21 17:37:11 GMT 35.579548 -112.869560 28,175 279 400 -896
2021-10-21 17:37:06 GMT 35.578400 -112.859802 28,250 279 400 -832
2021-10-21 17:36:59 GMT 35.576706 -112.845901 28,350 279 400 -1024
2021-10-21 17:36:55 GMT 35.575218 -112.833626 28,425 279 400 -1024
2021-10-21 17:36:52 GMT 35.574383 -112.826904 28,475 279 400 -1024
2021-10-21 17:36:47 GMT 35.573174 -112.816795 28,550 279 401 -1024
2021-10-21 17:36:44 GMT 35.572475 -112.811417 28,600 279 401 -1024
2021-10-21 17:36:39 GMT 35.570984 -112.799263 28,725 279 403 -960
2021-10-21 17:36:35 GMT 35.569820 -112.789795 28,775 279 403 -960
2021-10-21 17:36:26 GMT 35.567261 -112.769226 28,925 279 403 -960
2021-10-21 17:36:21 GMT 35.565994 -112.759094 29,000 279 405 -960
2021-10-21 17:36:17 GMT 35.564850 -112.749825 29,075 279 407 -896
2021-10-21 17:36:11 GMT 35.563068 -112.735100 29,175 279 408 -960
2021-10-21 17:36:08 GMT 35.562511 -112.730476 29,425 279 417 -896
2021-10-21 17:36:03 GMT 35.560974 -112.717857 29,275 279 411 -896
2021-10-21 17:35:59 GMT 35.559673 -112.706985 29,350 279 415 -896
2021-10-21 17:35:52 GMT 35.558121 -112.693634 29,425 279 415 -896
2021-10-21 17:35:49 GMT 35.557110 -112.684837 29,525 279 419 -896
2021-10-21 17:35:41 GMT 35.554691 -112.664093 29,625 279 422 -960
2021-10-21 17:35:38 GMT 35.553993 -112.657898 29,650 278 426 -960
2021-10-21 17:35:31 GMT 35.552399 -112.643906 29,725 279 428 -960
2021-10-21 17:35:21 GMT 35.549244 -112.617111 29,875 279 436 -896
2021-10-21 17:35:17 GMT 35.548187 -112.608376 29,950 279 439 -320
2021-10-21 17:35:08 GMT 35.545425 -112.585144 30,000 279 438 0
2021-10-21 17:35:01 GMT 35.543289 -112.567291 30,000 279 438 0
2021-10-21 17:34:56 GMT 35.541656 -112.553940 30,000 279 438 0
2021-10-21 17:34:50 GMT 35.540222 -112.541771 30,000 279 438 0
2021-10-21 17:34:46 GMT 35.538864 -112.530563 30,000 279 438 0
2021-10-21 17:34:40 GMT 35.537048 -112.515602 30,000 279 438 0
2021-10-21 17:34:35 GMT 35.535931 -112.506256 30,000 279 438 0
2021-10-21 17:34:33 GMT 35.535187 -112.500000 30,000 279 438 0
2021-10-21 17:34:29 GMT 35.533997 -112.490158 30,000 279 438 0
2021-10-21 17:34:25 GMT 35.532906 -112.481186 30,000 279 438 0
2021-10-21 17:34:21 GMT 35.531662 -112.470985 30,000 279 438 0
2021-10-21 17:34:17 GMT 35.530392 -112.460258 30,000 279 438 0
2021-10-21 17:34:14 GMT 35.529327 -112.451530 30,000 279 438 0
2021-10-21 17:34:08 GMT 35.527817 -112.439232 30,000 279 438 0
2021-10-21 17:34:04 GMT 35.526665 -112.430054 30,000 279 438 0
2021-10-21 17:34:00 GMT 35.525391 -112.419601 30,000 279 438 0
2021-10-21 17:33:57 GMT 35.524479 -112.412109 30,000 279 438 0
2021-10-21 17:33:53 GMT 35.522942 -112.399605 30,000 279 438 0
2021-10-21 17:33:48 GMT 35.521454 -112.387672 30,000 279 437 0
2021-10-21 17:33:44 GMT 35.520401 -112.379089 30,000 279 438 0
2021-10-21 17:33:39 GMT 35.518982 -112.367538 30,000 279 438 0
2021-10-21 17:33:36 GMT 35.518101 -112.360275 30,000 279 438 0
2021-10-21 17:33:33 GMT 35.517216 -112.353203 30,000 279 438 0
2021-10-21 17:33:30 GMT 35.516006 -112.343216 30,000 279 438 0
2021-10-21 17:33:27 GMT 35.515091 -112.335838 30,000 279 439 0
2021-10-21 17:33:22 GMT 35.513538 -112.323166 30,000 279 439 0
2021-10-21 17:33:18 GMT 35.512894 -112.318092 30,000 279 440 0
2021-10-21 17:33:15 GMT 35.511703 -112.308250 30,000 279 439 0
2021-10-21 17:33:09 GMT 35.509769 -112.292839 30,000 279 440 0
2021-10-21 17:33:06 GMT 35.508789 -112.284714 30,000 279 440 0
2021-10-21 17:33:01 GMT 35.507034 -112.270775 30,000 279 440 0
2021-10-21 17:32:57 GMT 35.506416 -112.265427 30,000 279 440 0
2021-10-21 17:32:54 GMT 35.505295 -112.256416 30,000 279 441 0
2021-10-21 17:32:49 GMT 35.503006 -112.238159 30,000 279 442 0
2021-10-21 17:32:44 GMT 35.502041 -112.230598 30,000 279 442 0
2021-10-21 17:32:40 GMT 35.500690 -112.219673 30,000 279 442 0
2021-10-21 17:32:37 GMT 35.500076 -112.214645 30,000 279 442 0
2021-10-21 17:32:34 GMT 35.499153 -112.207054 30,000 279 442 0
2021-10-21 17:32:30 GMT 35.497879 -112.197021 30,000 279 443 0
2021-10-21 17:32:27 GMT 35.496689 -112.187477 30,000 279 443 0
2021-10-21 17:32:24 GMT 35.495819 -112.180428 30,000 279 443 0
2021-10-21 17:32:20 GMT 35.494675 -112.171265 30,000 279 442 0
2021-10-21 17:32:17 GMT 35.494080 -112.166290 30,000 279 442 0
2021-10-21 17:32:14 GMT 35.492706 -112.155418 30,000 279 442 0
2021-10-21 17:32:08 GMT 35.490829 -112.140022 30,000 279 442 0
2021-10-21 17:32:03 GMT 35.489548 -112.129845 30,000 279 442 0
2021-10-21 17:31:59 GMT 35.488174 -112.118683 30,000 279 442 0
2021-10-21 17:31:56 GMT 35.487469 -112.113144 30,000 279 442 0
2021-10-21 17:31:53 GMT 35.486351 -112.103966 30,000 279 441 0
2021-10-21 17:31:47 GMT 35.484787 -112.091446 30,000 279 442 0
2021-10-21 17:31:42 GMT 35.482719 -112.074745 30,000 279 442 0
2021-10-21 17:31:38 GMT 35.481674 -112.066498 30,000 279 442 0
2021-10-21 17:31:32 GMT 35.479836 -112.051491 30,000 279 443 0
2021-10-21 17:31:26 GMT 35.478298 -112.039337 30,000 279 443 0
2021-10-21 17:31:22 GMT 35.476913 -112.028336 30,000 279 443 0
2021-10-21 17:31:17 GMT 35.475227 -112.014618 30,000 279 442 0
2021-10-21 17:31:11 GMT 35.473251 -111.999146 30,000 279 442 0
2021-10-21 17:31:08 GMT 35.472759 -111.995270 30,000 279 442 0
2021-10-21 17:31:05 GMT 35.471828 -111.987846 30,000 279 442 0
2021-10-21 17:31:00 GMT 35.469818 -111.972137 30,000 279 442 0
2021-10-21 17:30:54 GMT 35.467918 -111.956940 30,000 279 442 0
2021-10-21 17:30:48 GMT 35.466335 -111.944839 30,000 279 442 0
2021-10-21 17:30:45 GMT 35.465263 -111.936424 30,000 280 442 0
2021-10-21 17:30:42 GMT 35.464096 -111.927628 30,000 280 443 0
2021-10-21 17:30:37 GMT 35.462631 -111.916466 30,000 280 443 0
2021-10-21 17:30:32 GMT 35.461029 -111.904228 30,000 280 444 0
2021-10-21 17:30:28 GMT 35.458561 -111.884354 30,000 277 445 0
2021-10-21 17:30:24 GMT 35.458561 -111.884354 30,000 277 445 0
2021-10-21 17:30:21 GMT 35.457733 -111.875725 30,000 275 445 0
2021-10-21 17:30:18 GMT 35.457184 -111.868233 30,000 275 445 0
2021-10-21 17:30:14 GMT 35.456635 -111.858154 30,000 273 445 0
2021-10-21 17:30:11 GMT 35.456451 -111.851639 30,000 271 446 0
2021-10-21 17:30:06 GMT 35.456360 -111.839272 30,000 270 446 0
2021-10-21 17:30:03 GMT 35.456451 -111.831436 30,000 269 446 0
2021-10-21 17:30:00 GMT 35.456635 -111.822334 30,000 269 447 0
2021-10-21 17:29:57 GMT 35.456772 -111.814781 30,000 269 447 0
2021-10-21 17:29:53 GMT 35.456955 -111.805687 30,000 269 447 0
2021-10-21 17:29:50 GMT 35.457047 -111.798309 30,000 269 447 0
2021-10-21 17:29:45 GMT 35.457256 -111.787056 30,000 269 447 0
2021-10-21 17:29:39 GMT 35.457550 -111.771523 30,000 269 446 0
2021-10-21 17:29:36 GMT 35.457733 -111.762428 30,000 269 445 0
2021-10-21 17:29:31 GMT 35.457954 -111.750244 30,000 269 445 0
2021-10-21 17:29:27 GMT 35.458141 -111.741417 30,000 269 444 64
2021-10-21 17:29:24 GMT 35.458233 -111.734871 30,000 269 443 64
2021-10-21 17:29:18 GMT 35.458561 -111.716347 29,975 269 442 0
2021-10-21 17:29:14 GMT 35.458748 -111.707642 30,000 269 441 -64
2021-10-21 17:29:10 GMT 35.458923 -111.696053 30,000 269 440 0
2021-10-21 17:29:04 GMT 35.459118 -111.685722 30,000 269 437 -64
2021-10-21 17:29:00 GMT 35.459305 -111.673393 30,000 269 434 -64
2021-10-21 17:28:57 GMT 35.459473 -111.664467 30,000 269 431 0
2021-10-21 17:28:54 GMT 35.459564 -111.658112 30,000 269 431 0
2021-10-21 17:28:49 GMT 35.459724 -111.647743 30,000 269 428 64
2021-10-21 17:28:43 GMT 35.460003 -111.632782 30,000 269 427 0
2021-10-21 17:28:39 GMT 35.460205 -111.622467 30,000 269 427 0
2021-10-21 17:28:33 GMT 35.460423 -111.608124 30,000 269 427 0
2021-10-21 17:28:28 GMT 35.460663 -111.594940 30,000 269 427 0
2021-10-21 17:28:23 GMT 35.460888 -111.581528 30,000 269 427 -64
2021-10-21 17:28:18 GMT 35.461075 -111.571709 30,000 269 427 0
2021-10-21 17:28:12 GMT 35.461262 -111.557571 30,000 269 427 0
2021-10-21 17:28:05 GMT 35.461540 -111.539459 30,000 269 427 0
2021-10-21 17:28:02 GMT 35.461670 -111.531830 30,000 269 427 0
2021-10-21 17:27:56 GMT 35.461899 -111.519241 30,000 269 427 0
2021-10-21 17:27:51 GMT 35.462097 -111.506325 30,000 269 427 0
2021-10-21 17:27:45 GMT 35.462284 -111.492531 30,000 269 428 0
2021-10-21 17:27:41 GMT 35.462494 -111.481247 30,000 269 428 0
2021-10-21 17:27:33 GMT 35.462749 -111.463951 30,000 269 428 0
2021-10-21 17:27:30 GMT 35.462891 -111.455482 30,000 269 428 0
2021-10-21 17:27:24 GMT 35.463078 -111.442680 30,000 269 428 0
2021-10-21 17:27:21 GMT 35.463226 -111.432098 30,000 269 428 0
2021-10-21 17:27:18 GMT 35.463318 -111.426315 30,000 269 428 0
2021-10-21 17:27:12 GMT 35.463547 -111.412468 30,000 269 428 0
2021-10-21 17:27:08 GMT 35.463680 -111.403175 30,000 269 428 0
2021-10-21 17:27:02 GMT 35.464054 -111.379158 30,000 269 428 0
2021-10-21 17:26:59 GMT 35.464054 -111.379158 30,000 269 428 0
2021-10-21 17:26:51 GMT 35.464325 -111.361137 30,000 269 428 64
2021-10-21 17:26:47 GMT 35.464424 -111.353737 30,000 269 428 0
2021-10-21 17:26:41 GMT 35.464691 -111.335907 30,000 269 428 0
2021-10-21 17:26:38 GMT 35.464798 -111.328323 30,000 270 428 0
2021-10-21 17:26:32 GMT 35.464985 -111.316925 30,000 270 428 0
2021-10-21 17:26:29 GMT 35.465122 -111.306992 30,000 269 428 0
2021-10-21 17:26:25 GMT 35.465240 -111.299805 30,000 270 428 0
2021-10-21 17:26:20 GMT 35.465450 -111.284203 30,000 270 428 0
2021-10-21 17:26:17 GMT 35.465515 -111.280457 30,000 270 428 0
2021-10-21 17:26:13 GMT 35.465698 -111.267128 30,000 270 428 0
2021-10-21 17:26:09 GMT 35.465775 -111.259712 30,000 270 428 0
2021-10-21 17:26:06 GMT 35.465870 -111.252464 30,000 270 428 0
2021-10-21 17:26:01 GMT 35.466057 -111.240601 30,000 270 428 0
2021-10-21 17:25:58 GMT 35.466156 -111.231255 30,000 270 428 0
2021-10-21 17:25:55 GMT 35.466240 -111.227280 30,000 270 428 0
2021-10-21 17:25:51 GMT 35.466381 -111.215652 30,000 270 428 0
2021-10-21 17:25:47 GMT 35.466522 -111.204124 30,000 270 428 0
2021-10-21 17:25:44 GMT 35.466614 -111.197830 30,000 270 428 0
2021-10-21 17:25:35 GMT 35.466934 -111.174828 30,000 270 428 0
2021-10-21 17:25:32 GMT 35.466988 -111.171295 30,000 270 428 0
2021-10-21 17:25:26 GMT 35.467125 -111.157738 30,000 270 428 0
2021-10-21 17:25:23 GMT 35.467300 -111.145760 30,000 270 428 0
2021-10-21 17:25:16 GMT 35.467484 -111.130486 30,000 270 428 0
2021-10-21 17:25:08 GMT 35.467712 -111.112801 30,000 270 428 0
2021-10-21 17:25:05 GMT 35.467823 -111.106377 30,000 270 428 0
2021-10-21 17:25:01 GMT 35.467987 -111.094894 30,000 270 428 0
2021-10-21 17:24:53 GMT 35.468262 -111.073776 30,000 270 428 0
2021-10-21 17:24:44 GMT 35.468521 -111.052612 30,000 270 428 0
2021-10-21 17:24:41 GMT 35.468571 -111.047997 30,000 270 428 0
2021-10-21 17:24:37 GMT 35.468719 -111.037674 30,000 270 428 0
2021-10-21 17:24:33 GMT 35.468857 -111.028748 30,000 270 428 0
2021-10-21 17:24:30 GMT 35.468994 -111.017365 30,000 270 428 0
2021-10-21 17:24:26 GMT 35.469082 -111.009949 30,000 270 428 0
2021-10-21 17:24:19 GMT 35.469269 -110.993614 30,000 270 428 0
2021-10-21 17:24:13 GMT 35.469501 -110.976524 30,000 270 428 0
2021-10-21 17:24:05 GMT 35.469685 -110.959869 30,000 270 428 0
2021-10-21 17:24:01 GMT 35.469772 -110.950012 30,000 270 428 0
2021-10-21 17:23:55 GMT 35.469967 -110.935852 30,000 270 428 0
2021-10-21 17:23:51 GMT 35.470093 -110.923920 30,000 270 428 0
2021-10-21 17:23:44 GMT 35.470230 -110.910133 30,000 270 428 0
2021-10-21 17:23:40 GMT 35.470322 -110.900688 30,000 270 428 0
2021-10-21 17:23:36 GMT 35.470459 -110.889297 30,000 270 428 0
2021-10-21 17:23:33 GMT 35.470524 -110.883377 30,025 270 428 0
2021-10-21 17:23:29 GMT 35.470665 -110.869522 30,025 270 428 0
2021-10-21 17:23:24 GMT 35.470757 -110.859360 30,025 270 428 0
2021-10-21 17:23:18 GMT 35.470871 -110.846901 30,025 270 428 0
2021-10-21 17:23:12 GMT 35.471054 -110.830933 30,025 270 428 0
2021-10-21 17:23:08 GMT 35.471176 -110.819618 30,025 270 428 0
2021-10-21 17:22:59 GMT 35.471375 -110.799179 30,025 270 428 0
2021-10-21 17:22:51 GMT 35.471558 -110.780296 30,025 270 428 0
2021-10-21 17:22:46 GMT 35.471649 -110.770111 30,000 270 428 0
2021-10-21 17:22:42 GMT 35.471783 -110.757378 30,000 270 429 0
2021-10-21 17:22:38 GMT 35.471878 -110.746819 30,000 270 429 0
2021-10-21 17:22:27 GMT 35.472107 -110.721970 30,000 270 429 0
2021-10-21 17:22:17 GMT 35.472385 -110.695030 30,000 270 428 0
2021-10-21 17:22:04 GMT 35.472618 -110.666916 30,000 270 428 0
2021-10-21 17:21:57 GMT 35.472794 -110.648865 30,000 270 428 0
2021-10-21 17:21:34 GMT 35.473270 -110.593758 30,000 270 428 0
2021-10-21 17:21:25 GMT 35.473412 -110.571022 30,000 270 428 0
2021-10-21 17:21:12 GMT 35.473690 -110.538589 30,000 270 428 0
2021-10-21 17:20:50 GMT 35.474110 -110.485764 30,000 270 428 0
2021-10-21 17:20:45 GMT 35.474213 -110.475250 30,000 270 429 0
2021-10-21 17:20:41 GMT 35.474297 -110.466888 30,000 270 429 0
2021-10-21 17:20:28 GMT 35.474533 -110.431992 30,000 270 430 0
2021-10-21 17:20:25 GMT 35.474575 -110.426041 30,000 270 430 0
2021-10-21 17:20:22 GMT 35.474625 -110.420837 30,000 270 431 0
2021-10-21 17:20:19 GMT 35.474670 -110.412025 30,000 270 430 0
2021-10-21 17:20:10 GMT 35.474808 -110.391731 30,000 270 431 0
2021-10-21 17:20:05 GMT 35.474899 -110.376205 30,000 270 431 0
2021-10-21 17:18:39 GMT 35.476181 -110.164719 30,950 270 435 -1024
2021-10-21 17:18:35 GMT 35.476204 -110.157692 31,000 270 434 -1024
2021-10-21 17:16:41 GMT 35.477367 -109.879120 32,875 270 429 -1024
2021-10-21 17:16:28 GMT 35.477509 -109.845688 33,125 270 428 -1024
2021-10-21 17:16:18 GMT 35.477554 -109.824829 33,275 270 426 -896
2021-10-21 17:16:10 GMT 35.477600 -109.802689 33,400 270 424 -832
2021-10-21 17:15:58 GMT 35.477646 -109.776360 33,550 270 423 -960
2021-10-21 17:15:47 GMT 35.477692 -109.747688 33,725 270 424 -1024
2021-10-21 17:15:37 GMT 35.477692 -109.726181 33,875 270 426 -960
2021-10-21 17:15:28 GMT 35.477692 -109.702087 34,000 270 426 -128
2021-10-21 17:15:17 GMT 35.477692 -109.675926 34,000 270 426 0
2021-10-21 17:15:07 GMT 35.477741 -109.650566 34,000 270 427 0
2021-10-21 17:14:55 GMT 35.477741 -109.623039 34,000 270 427 0
2021-10-21 17:14:46 GMT 35.477787 -109.599083 34,000 270 427 0
2021-10-21 17:14:34 GMT 35.477783 -109.573059 34,000 270 428 0
2021-10-21 17:14:24 GMT 35.477787 -109.547775 34,000 270 428 0
2021-10-21 17:14:13 GMT 35.477783 -109.522476 34,000 270 428 0
2021-10-21 17:14:03 GMT 35.477783 -109.496552 34,000 270 428 64
2021-10-21 17:13:53 GMT 35.477787 -109.472977 34,000 271 428 64
2021-10-21 17:13:43 GMT 35.477741 -109.447495 34,000 271 429 0
2021-10-21 17:13:31 GMT 35.477692 -109.421783 34,000 271 429 0
2021-10-21 17:13:21 GMT 35.477692 -109.394989 34,000 270 428 0
2021-10-21 17:13:11 GMT 35.477646 -109.371017 34,000 270 428 64
2021-10-21 17:12:59 GMT 35.477646 -109.344063 34,000 271 428 0
2021-10-21 17:12:52 GMT 35.477600 -109.324600 34,000 271 428 0
2021-10-21 17:12:49 GMT 35.477600 -109.318520 34,000 271 428 0
2021-10-21 17:12:39 GMT 35.477554 -109.294273 34,000 271 429 -64
2021-10-21 17:12:32 GMT 35.477509 -109.274872 34,000 271 428 -64
2021-10-21 17:12:29 GMT 35.477509 -109.266991 34,000 271 428 -64
2021-10-21 17:12:18 GMT 35.477417 -109.243240 34,000 271 428 0
2021-10-21 17:12:07 GMT 35.477325 -109.214172 34,000 271 428 0
2021-10-21 17:11:59 GMT 35.477280 -109.197411 34,000 271 429 0
2021-10-21 17:11:56 GMT 35.477226 -109.190544 34,025 271 429 0
2021-10-21 17:11:47 GMT 35.477142 -109.166847 34,025 271 429 0
2021-10-21 17:11:36 GMT 35.477039 -109.141518 34,025 271 429 -64
2021-10-21 17:11:26 GMT 35.476959 -109.115700 34,025 271 429 0
2021-10-21 17:11:18 GMT 35.476902 -109.096397 34,025 271 429 64
2021-10-21 17:11:14 GMT 35.476822 -109.088745 34,025 271 429 64
2021-10-21 17:11:05 GMT 35.476685 -109.064423 34,000 271 429 128
2021-10-21 17:10:56 GMT 35.476501 -109.041367 34,000 271 430 64
2021-10-21 17:10:53 GMT 35.476482 -109.037552 34,000 271 430 64
2021-10-21 17:10:44 GMT 35.476181 -109.013100 33,975 271 431 0
2021-10-21 17:10:36 GMT 35.475952 -108.993584 33,975 271 430 0
2021-10-21 17:10:31 GMT 35.475815 -108.984093 33,975 272 430 0
2021-10-21 17:10:22 GMT 35.475449 -108.959023 33,975 271 430 0
2021-10-21 17:10:15 GMT 35.475266 -108.942261 33,975 271 430 0
2021-10-21 17:10:11 GMT 35.475227 -108.936279 33,975 271 430 -64
2021-10-21 17:10:02 GMT 35.475174 -108.910622 34,000 270 430 0
2021-10-21 17:09:54 GMT 35.475365 -108.891106 33,975 269 430 0
2021-10-21 17:09:51 GMT 35.475460 -108.885498 33,975 269 430 0
2021-10-21 17:09:41 GMT 35.475971 -108.859726 33,975 269 430 -64
2021-10-21 17:09:32 GMT 35.476410 -108.838234 33,975 269 429 0
2021-10-21 17:09:29 GMT 35.476501 -108.833366 33,975 269 429 0
2021-10-21 17:09:20 GMT 35.477005 -108.808083 34,000 269 429 -64
2021-10-21 17:09:12 GMT 35.477417 -108.788681 34,000 269 429 -64
2021-10-21 17:09:06 GMT 35.477646 -108.776627 34,000 269 429 -64
2021-10-21 17:08:58 GMT 35.478065 -108.755997 34,000 269 429 0
2021-10-21 17:08:47 GMT 35.478577 -108.731750 34,000 269 429 0
2021-10-21 17:08:37 GMT 35.479065 -108.705879 34,000 269 429 0
2021-10-21 17:08:30 GMT 35.479416 -108.687279 34,000 269 430 0
2021-10-21 17:08:27 GMT 35.479523 -108.680367 34,000 269 430 0
2021-10-21 17:08:19 GMT 35.479881 -108.661972 34,000 269 430 0
2021-10-21 17:08:16 GMT 35.479973 -108.654671 34,000 269 430 64
2021-10-21 17:08:09 GMT 35.480347 -108.635971 34,000 269 430 64
2021-10-21 17:08:06 GMT 35.480484 -108.627831 34,000 269 430 64
2021-10-21 17:07:55 GMT 35.480904 -108.603592 34,000 269 430 0
2021-10-21 17:07:48 GMT 35.481216 -108.585205 34,000 269 431 0
2021-10-21 17:07:41 GMT 35.481510 -108.569000 34,000 269 431 0
2021-10-21 17:07:36 GMT 35.481720 -108.558884 34,000 269 431 0
2021-10-21 17:07:32 GMT 35.481884 -108.549011 34,000 269 431 0
2021-10-21 17:07:27 GMT 35.482132 -108.533768 34,000 269 431 0
2021-10-21 17:07:19 GMT 35.482487 -108.513428 34,000 269 431 0
2021-10-21 17:07:15 GMT 35.482582 -108.507812 34,000 269 431 0
2021-10-21 17:07:11 GMT 35.482765 -108.498344 34,000 269 431 0
2021-10-21 17:07:02 GMT 35.483185 -108.474213 34,000 269 431 0
2021-10-21 17:06:51 GMT 35.483604 -108.449844 34,000 269 431 -64
2021-10-21 17:06:44 GMT 35.483917 -108.430428 34,000 269 431 -64
2021-10-21 17:06:41 GMT 35.484070 -108.423019 34,000 269 431 -64
2021-10-21 17:06:34 GMT 35.484375 -108.404793 34,000 269 431 0
2021-10-21 17:06:30 GMT 35.484467 -108.398499 34,025 269 431 0
2021-10-21 17:06:21 GMT 35.484863 -108.373466 34,025 269 431 0
2021-10-21 17:06:12 GMT 35.485245 -108.351631 34,025 269 432 0
2021-10-21 17:06:09 GMT 35.485336 -108.346939 34,025 269 432 0
2021-10-21 17:06:00 GMT 35.485699 -108.321922 34,025 269 432 0
2021-10-21 17:05:52 GMT 35.486023 -108.302193 34,000 269 432 0
2021-10-21 17:05:49 GMT 35.486115 -108.296066 34,000 269 433 0
2021-10-21 17:05:39 GMT 35.486492 -108.269501 34,025 269 433 0
2021-10-21 17:05:31 GMT 35.486771 -108.250626 34,000 269 433 0
2021-10-21 17:05:27 GMT 35.486893 -108.244400 34,000 269 433 0
2021-10-21 17:05:18 GMT 35.487282 -108.218781 34,000 269 433 0
2021-10-21 17:05:09 GMT 35.487579 -108.197083 34,000 269 434 0
2021-10-21 17:05:05 GMT 35.487671 -108.190727 34,000 269 434 0
2021-10-21 17:04:56 GMT 35.488037 -108.165207 34,000 270 434 0
2021-10-21 17:04:49 GMT 35.488262 -108.147896 34,000 270 434 0
2021-10-21 17:04:46 GMT 35.488358 -108.141632 34,000 270 434 0
2021-10-21 17:04:35 GMT 35.488724 -108.115082 34,000 270 434 0
2021-10-21 17:04:27 GMT 35.488953 -108.095680 34,000 270 434 0
2021-10-21 17:04:24 GMT 35.489052 -108.089165 34,000 270 434 0
2021-10-21 17:04:16 GMT 35.489273 -108.069878 34,000 270 434 0
2021-10-21 17:04:13 GMT 35.489380 -108.061172 34,000 270 434 0
2021-10-21 17:04:04 GMT 35.489685 -108.038239 34,000 270 434 0
2021-10-21 17:03:53 GMT 35.490051 -108.011971 34,000 270 434 0
2021-10-21 17:03:43 GMT 35.490402 -107.984856 34,000 270 434 0
2021-10-21 17:03:32 GMT 35.490692 -107.960701 34,000 270 433 0
2021-10-21 17:03:22 GMT 35.491055 -107.933075 34,000 270 433 0
2021-10-21 17:03:12 GMT 35.491287 -107.912971 34,000 270 434 0
2021-10-21 17:03:03 GMT 35.491611 -107.887199 34,000 270 433 0
2021-10-21 17:02:54 GMT 35.491882 -107.865997 34,000 270 433 0
2021-10-21 17:02:51 GMT 35.491928 -107.860107 34,000 270 433 0
2021-10-21 17:02:48 GMT 35.492020 -107.853470 34,000 270 434 0
2021-10-21 17:02:40 GMT 35.492264 -107.831512 34,000 270 433 0
2021-10-21 17:02:28 GMT 35.492615 -107.803688 34,000 270 433 0
2021-10-21 17:02:19 GMT 35.492870 -107.779739 34,000 270 433 0
2021-10-21 17:02:08 GMT 35.493164 -107.753906 34,000 270 433 0
2021-10-21 17:01:58 GMT 35.493484 -107.728386 34,000 270 433 0
2021-10-21 17:01:49 GMT 35.493713 -107.707275 34,000 270 433 0
2021-10-21 17:01:46 GMT 35.493755 -107.702011 34,000 270 433 0
2021-10-21 17:01:37 GMT 35.494034 -107.676659 34,000 270 433 0
2021-10-21 17:01:25 GMT 35.494308 -107.648453 34,000 270 433 0
2021-10-21 17:01:16 GMT 35.494583 -107.624413 34,000 270 433 0
2021-10-21 17:01:07 GMT 35.494778 -107.604424 34,000 270 433 0
2021-10-21 17:01:04 GMT 35.494812 -107.599411 34,000 270 433 0
2021-10-21 17:00:54 GMT 35.495087 -107.572456 34,000 270 433 0
2021-10-21 17:00:43 GMT 35.495316 -107.547684 34,000 270 433 0
2021-10-21 17:00:33 GMT 35.495544 -107.521706 34,000 270 433 0
2021-10-21 17:00:23 GMT 35.495754 -107.496078 34,000 270 433 0
2021-10-21 17:00:12 GMT 35.495987 -107.470367 34,000 270 433 0
2021-10-21 17:00:02 GMT 35.496174 -107.444420 34,025 270 433 -64
2021-10-21 16:59:53 GMT 35.496361 -107.423325 34,025 270 433 -64
2021-10-21 16:59:50 GMT 35.496414 -107.417847 34,025 270 433 -64
2021-10-21 16:59:41 GMT 35.496639 -107.392700 34,025 270 433 0
2021-10-21 16:59:30 GMT 35.496826 -107.367050 34,025 270 433 0
2021-10-21 16:59:20 GMT 35.497009 -107.341171 34,025 270 433 0
2021-10-21 16:59:11 GMT 35.497147 -107.320404 34,025 270 433 0
2021-10-21 16:59:08 GMT 35.497200 -107.314629 34,025 270 433 0
2021-10-21 16:58:59 GMT 35.497337 -107.288918 34,000 270 433 0
2021-10-21 16:58:50 GMT 35.497478 -107.269279 34,025 270 433 0
2021-10-21 16:58:47 GMT 35.497513 -107.263298 34,000 270 433 64
2021-10-21 16:58:38 GMT 35.497696 -107.237839 34,000 270 433 0
2021-10-21 16:58:27 GMT 35.497898 -107.212479 34,000 270 433 0
2021-10-21 16:58:17 GMT 35.498062 -107.186394 34,000 270 432 0
2021-10-21 16:58:06 GMT 35.498245 -107.160988 34,000 270 432 0
2021-10-21 16:57:56 GMT 35.498455 -107.134933 34,000 270 432 0
2021-10-21 16:57:44 GMT 35.498611 -107.109146 34,000 270 432 0
2021-10-21 16:57:35 GMT 35.498749 -107.083450 34,000 270 431 0
2021-10-21 16:57:23 GMT 35.498886 -107.057587 33,975 270 431 0
2021-10-21 16:57:15 GMT 35.499016 -107.035530 33,975 270 431 0
2021-10-21 16:57:12 GMT 35.499016 -107.030914 33,975 270 431 -64
2021-10-21 16:57:02 GMT 35.499107 -107.006546 34,000 270 430 -64
2021-10-21 16:56:55 GMT 35.499199 -106.985153 34,000 270 430 0
2021-10-21 16:56:51 GMT 35.499199 -106.980247 34,000 270 430 0
2021-10-21 16:56:42 GMT 35.499340 -106.954765 34,000 270 429 64
2021-10-21 16:56:34 GMT 35.499386 -106.935539 33,975 270 430 0
2021-10-21 16:56:31 GMT 35.499432 -106.929695 33,975 270 430 0
2021-10-21 16:56:21 GMT 35.499527 -106.904068 33,975 270 429 -64
2021-10-21 16:56:13 GMT 35.499573 -106.883408 34,000 270 429 -64
2021-10-21 16:56:10 GMT 35.499619 -106.878685 34,000 270 429 -64
2021-10-21 16:56:00 GMT 35.499710 -106.853371 34,000 270 428 0
2021-10-21 16:55:52 GMT 35.499760 -106.832924 34,000 270 428 0
2021-10-21 16:55:49 GMT 35.499802 -106.827682 34,000 270 428 0
2021-10-21 16:55:39 GMT 35.499901 -106.801895 34,000 270 428 -64
2021-10-21 16:55:28 GMT 35.499992 -106.776711 34,000 270 428 0
2021-10-21 16:55:18 GMT 35.500038 -106.750816 34,000 270 428 0
2021-10-21 16:55:06 GMT 35.500130 -106.725105 34,000 270 428 0
2021-10-21 16:54:57 GMT 35.500168 -106.700073 34,000 270 428 0
2021-10-21 16:54:46 GMT 35.500225 -106.675201 34,000 270 428 0
2021-10-21 16:54:36 GMT 35.500225 -106.649780 34,000 270 428 0
2021-10-21 16:54:24 GMT 35.500271 -106.623367 34,000 270 428 0
2021-10-21 16:54:15 GMT 35.500271 -106.597885 34,000 270 428 0
2021-10-21 16:54:03 GMT 35.500317 -106.572464 34,000 270 428 0
2021-10-21 16:53:54 GMT 35.500305 -106.547356 34,000 270 429 0
2021-10-21 16:53:45 GMT 35.500351 -106.527214 34,000 270 429 -64
2021-10-21 16:53:42 GMT 35.500351 -106.521896 34,000 270 429 0
2021-10-21 16:53:33 GMT 35.500362 -106.495506 34,000 270 429 -64
2021-10-21 16:53:24 GMT 35.500362 -106.476334 34,000 270 429 0
2021-10-21 16:53:21 GMT 35.500351 -106.468964 34,000 270 429 0
2021-10-21 16:53:14 GMT 35.500362 -106.450394 34,000 270 429 0
2021-10-21 16:53:10 GMT 35.500362 -106.444023 34,000 270 429 0
2021-10-21 16:53:03 GMT 35.500351 -106.425194 34,000 270 430 0
2021-10-21 16:53:00 GMT 35.500362 -106.420006 34,000 270 430 0
2021-10-21 16:52:53 GMT 35.500397 -106.399902 34,000 270 430 0
2021-10-21 16:52:49 GMT 35.500362 -106.393234 34,000 270 430 -64
2021-10-21 16:52:40 GMT 35.500397 -106.368484 34,000 270 430 0
2021-10-21 16:52:32 GMT 35.500397 -106.348518 34,000 270 430 0
2021-10-21 16:52:28 GMT 35.500397 -106.341988 34,025 270 430 0
2021-10-21 16:52:19 GMT 35.500362 -106.316505 34,000 270 431 0
2021-10-21 16:52:11 GMT 35.500397 -106.297134 34,000 271 431 0
2021-10-21 16:52:07 GMT 35.500362 -106.290916 34,000 271 431 0
2021-10-21 16:51:58 GMT 35.500317 -106.265022 34,000 271 431 0
2021-10-21 16:51:50 GMT 35.500259 -106.245628 34,000 271 431 0
2021-10-21 16:51:47 GMT 35.500259 -106.239799 34,000 271 431 0
2021-10-21 16:51:37 GMT 35.500179 -106.213776 34,000 271 431 -64
2021-10-21 16:51:29 GMT 35.500031 -106.194138 34,000 271 431 0
2021-10-21 16:51:26 GMT 35.500038 -106.189117 34,000 271 431 0
2021-10-21 16:51:16 GMT 35.499802 -106.162376 34,025 271 432 0
2021-10-21 16:51:05 GMT 35.499573 -106.137489 34,000 271 432 0
2021-10-21 16:50:55 GMT 35.499294 -106.110687 34,000 271 432 64
2021-10-21 16:50:46 GMT 35.499069 -106.090279 34,000 271 432 64
2021-10-21 16:50:43 GMT 35.499016 -106.085503 34,000 271 432 64
2021-10-21 16:50:34 GMT 35.498875 -106.060081 34,000 271 433 0
2021-10-21 16:50:25 GMT 35.498886 -106.038895 34,000 270 433 0
2021-10-21 16:50:22 GMT 35.498966 -106.033844 34,000 270 433 0
2021-10-21 16:50:13 GMT 35.499432 -106.008133 33,975 269 433 0
2021-10-21 16:50:05 GMT 35.499939 -105.987968 33,975 269 433 0
2021-10-21 16:50:01 GMT 35.500084 -105.982185 33,975 269 433 0
2021-10-21 16:49:52 GMT 35.500736 -105.957466 33,975 269 432 -64
2021-10-21 16:49:44 GMT 35.501266 -105.936584 34,000 269 432 0
2021-10-21 16:49:40 GMT 35.501404 -105.930695 34,000 269 432 0
2021-10-21 16:49:29 GMT 35.502090 -105.904770 33,975 269 432 0
2021-10-21 16:49:22 GMT 35.502548 -105.886169 33,975 269 432 0
2021-10-21 16:49:19 GMT 35.502731 -105.878845 33,975 269 432 0
2021-10-21 16:49:12 GMT 35.503189 -105.859283 34,000 269 432 -64
2021-10-21 16:49:01 GMT 35.503811 -105.834457 34,000 269 432 0
2021-10-21 16:48:51 GMT 35.504368 -105.809036 34,000 269 432 0
2021-10-21 16:48:40 GMT 35.504974 -105.783234 34,000 269 432 0
2021-10-21 16:48:30 GMT 35.505569 -105.757545 34,000 269 432 0
2021-10-21 16:48:19 GMT 35.506138 -105.731255 34,000 269 432 0
2021-10-21 16:48:09 GMT 35.506714 -105.705414 34,000 269 432 0
2021-10-21 16:47:57 GMT 35.507309 -105.678978 34,000 269 433 0
2021-10-21 16:47:47 GMT 35.507904 -105.652252 34,000 269 433 0
2021-10-21 16:47:32 GMT 35.508698 -105.616539 34,000 269 434 0
2021-10-21 16:47:25 GMT 35.509094 -105.596809 34,000 269 434 0
2021-10-21 16:47:16 GMT 35.509506 -105.577187 34,000 269 434 0
2021-10-21 16:47:06 GMT 35.510056 -105.550858 34,025 269 434 0
2021-10-21 16:46:55 GMT 35.510605 -105.525337 34,025 269 434 0
2021-10-21 16:46:45 GMT 35.511154 -105.499023 34,025 269 435 64
2021-10-21 16:46:33 GMT 35.511677 -105.473015 34,025 269 435 0
2021-10-21 16:46:21 GMT 35.512329 -105.440231 34,000 269 436 0
2021-10-21 16:46:12 GMT 35.512699 -105.421005 34,000 269 436 0
2021-10-21 16:46:02 GMT 35.513260 -105.393829 34,000 269 436 0
2021-10-21 16:45:51 GMT 35.513763 -105.369247 34,000 269 437 -64
2021-10-21 16:45:42 GMT 35.514267 -105.343269 34,000 269 436 0
2021-10-21 16:45:30 GMT 35.514771 -105.317345 34,000 269 437 0
2021-10-21 16:45:21 GMT 35.515274 -105.291885 34,025 269 437 0
2021-10-21 16:45:10 GMT 35.515774 -105.265793 34,000 269 437 64
2021-10-21 16:45:00 GMT 35.516285 -105.239029 34,000 269 437 0
2021-10-21 16:44:48 GMT 35.516739 -105.213142 34,000 269 437 0
2021-10-21 16:44:39 GMT 35.517197 -105.187912 34,000 269 438 0
2021-10-21 16:44:28 GMT 35.517681 -105.161774 34,000 269 437 0
2021-10-21 16:44:17 GMT 35.518158 -105.134926 34,000 269 437 0
2021-10-21 16:44:06 GMT 35.518616 -105.109695 34,000 269 437 0
2021-10-21 16:43:55 GMT 35.519119 -105.081482 34,000 269 437 0
2021-10-21 16:43:45 GMT 35.519588 -105.055649 34,000 269 437 0
2021-10-21 16:43:35 GMT 35.520473 -105.004753 34,000 269 436 -64
2021-10-21 16:43:23 GMT 35.520538 -105.002174 34,000 269 436 -64
2021-10-21 16:43:13 GMT 35.520950 -104.977966 34,025 269 436 0
2021-10-21 16:43:04 GMT 35.521358 -104.953621 34,000 269 436 0
2021-10-21 16:42:52 GMT 35.521774 -104.926582 34,025 269 436 0
2021-10-21 16:42:42 GMT 35.522198 -104.899567 34,025 269 436 0
2021-10-21 16:42:32 GMT 35.522552 -104.875717 34,025 269 436 64
2021-10-21 16:42:26 GMT 35.522800 -104.859772 34,025 269 437 0
2021-10-21 16:42:20 GMT 35.523033 -104.843468 34,000 269 437 0
2021-10-21 16:42:09 GMT 35.523453 -104.816231 34,000 269 437 0
2021-10-21 16:42:01 GMT 35.523697 -104.797554 34,000 269 437 64
2021-10-21 16:41:57 GMT 35.523834 -104.789886 34,000 269 437 64
2021-10-21 16:41:50 GMT 35.524063 -104.772095 34,000 269 437 64
2021-10-21 16:41:47 GMT 35.524200 -104.762817 34,000 269 437 0
2021-10-21 16:41:40 GMT 35.524479 -104.745056 34,000 269 437 0
2021-10-21 16:41:37 GMT 35.524567 -104.737015 34,000 269 437 0
2021-10-21 16:41:29 GMT 35.524841 -104.719681 34,000 269 436 0
2021-10-21 16:41:26 GMT 35.524933 -104.711037 34,000 269 437 0
2021-10-21 16:41:17 GMT 35.525223 -104.691406 34,000 269 436 0
2021-10-21 16:41:14 GMT 35.525345 -104.683861 34,000 269 436 0
2021-10-21 16:41:04 GMT 35.525757 -104.655930 34,000 269 436 0
2021-10-21 16:40:58 GMT 35.525940 -104.641914 34,000 269 436 -64
2021-10-21 16:40:54 GMT 35.526062 -104.631157 34,000 269 436 -64
2021-10-21 16:40:47 GMT 35.526306 -104.615768 34,000 270 436 -64
2021-10-21 16:40:43 GMT 35.526432 -104.604515 34,000 270 435 0
2021-10-21 16:40:36 GMT 35.526718 -104.586639 34,000 270 435 0
2021-10-21 16:40:32 GMT 35.526806 -104.577393 34,000 270 435 0
2021-10-21 16:40:26 GMT 35.526993 -104.563980 34,000 270 435 0
2021-10-21 16:40:20 GMT 35.527180 -104.549812 34,000 270 435 0
2021-10-21 16:40:13 GMT 35.527412 -104.531815 34,000 270 435 0
2021-10-21 16:40:10 GMT 35.527504 -104.525154 34,000 270 435 0
2021-10-21 16:40:03 GMT 35.527725 -104.508530 34,000 270 435 0
2021-10-21 16:39:59 GMT 35.527878 -104.495872 34,000 270 435 0
2021-10-21 16:39:52 GMT 35.528065 -104.480858 34,000 270 435 0
2021-10-21 16:39:47 GMT 35.528229 -104.467163 34,000 270 435 0
2021-10-21 16:39:43 GMT 35.528366 -104.456802 34,000 270 435 0
2021-10-21 16:39:32 GMT 35.528687 -104.431229 34,000 270 435 0
2021-10-21 16:39:21 GMT 35.528996 -104.402313 34,000 270 434 64
2021-10-21 16:39:15 GMT 35.529133 -104.391037 34,000 270 434 0
2021-10-21 16:39:09 GMT 35.529327 -104.376350 34,000 270 435 0
2021-10-21 16:39:05 GMT 35.529465 -104.363823 34,000 270 435 -64
2021-10-21 16:39:00 GMT 35.529598 -104.351883 34,000 270 434 0
2021-10-21 16:38:54 GMT 35.529739 -104.336166 34,000 270 434 0
2021-10-21 16:38:49 GMT 35.529831 -104.327049 34,000 270 434 0
2021-10-21 16:38:44 GMT 35.530014 -104.311981 33,975 270 434 0
2021-10-21 16:38:39 GMT 35.530151 -104.301170 34,000 270 434 0
2021-10-21 16:38:33 GMT 35.530342 -104.283569 34,000 270 434 0
2021-10-21 16:38:29 GMT 35.530437 -104.275505 34,000 270 434 0
2021-10-21 16:38:22 GMT 35.530609 -104.259171 34,000 270 434 0
2021-10-21 16:38:12 GMT 35.530903 -104.231796 34,000 270 433 0
2021-10-21 16:38:03 GMT 35.531136 -104.210930 34,000 270 433 0
2021-10-21 16:38:00 GMT 35.531204 -104.204697 34,000 270 433 0
2021-10-21 16:37:55 GMT 35.531277 -104.194275 34,000 270 433 0
2021-10-21 16:37:50 GMT 35.531433 -104.177971 34,000 270 433 0
2021-10-21 16:37:47 GMT 35.531525 -104.172134 33,975 270 433 0
2021-10-21 16:37:39 GMT 35.531693 -104.151909 34,000 270 433 0
2021-10-21 16:37:35 GMT 35.531754 -104.145409 34,000 270 433 0
2021-10-21 16:37:25 GMT 35.532028 -104.117493 34,000 270 432 0
2021-10-21 16:37:14 GMT 35.532257 -104.094429 34,000 270 432 0
2021-10-21 16:37:03 GMT 35.532486 -104.065186 34,000 270 432 -64
2021-10-21 16:36:53 GMT 35.532673 -104.040466 34,000 270 432 0
2021-10-21 16:36:45 GMT 35.532810 -104.020134 34,000 270 432 0
2021-10-21 16:36:42 GMT 35.532860 -104.014992 34,000 270 432 0
2021-10-21 16:36:32 GMT 35.533043 -103.987877 34,000 270 432 0
2021-10-21 16:36:21 GMT 35.533230 -103.963097 34,000 270 433 0
2021-10-21 16:36:11 GMT 35.533463 -103.938377 34,000 270 433 0
2021-10-21 16:36:01 GMT 35.533630 -103.912750 34,000 270 433 0
2021-10-21 16:35:49 GMT 35.533859 -103.884544 34,000 270 433 0
2021-10-21 16:35:39 GMT 35.534019 -103.857674 34,000 270 433 0
2021-10-21 16:35:28 GMT 35.534206 -103.833656 34,000 270 433 -64
2021-10-21 16:35:17 GMT 35.534393 -103.807884 34,025 270 433 0
2021-10-21 16:35:08 GMT 35.534546 -103.782463 34,025 270 433 0
2021-10-21 16:34:57 GMT 35.534729 -103.756714 34,025 270 433 0
2021-10-21 16:34:47 GMT 35.534904 -103.731102 34,025 270 433 0
2021-10-21 16:34:34 GMT 35.535049 -103.700294 34,000 270 433 0
2021-10-21 16:34:26 GMT 35.535187 -103.679466 34,000 270 433 0
2021-10-21 16:34:17 GMT 35.535278 -103.656631 34,000 270 433 0
2021-10-21 16:34:14 GMT 35.535324 -103.651031 34,000 270 433 0
2021-10-21 16:34:05 GMT 35.535461 -103.627739 34,000 270 433 64
2021-10-21 16:33:53 GMT 35.535557 -103.601662 34,000 270 433 0
2021-10-21 16:33:43 GMT 35.535736 -103.575554 34,000 270 433 0
2021-10-21 16:33:33 GMT 35.535835 -103.550179 34,000 270 432 0
2021-10-21 16:33:21 GMT 35.535976 -103.522827 34,000 270 432 0
2021-10-21 16:33:11 GMT 35.536118 -103.496880 34,000 270 432 0
2021-10-21 16:33:01 GMT 35.536285 -103.444695 34,000 270 432 0
2021-10-21 16:32:49 GMT 35.536285 -103.444695 33,975 270 431 0
2021-10-21 16:32:40 GMT 35.536442 -103.393852 34,000 270 431 0
2021-10-21 16:32:28 GMT 35.536442 -103.393852 34,000 270 431 0
2021-10-21 16:32:19 GMT 35.536488 -103.368729 34,000 270 430 0
2021-10-21 16:32:07 GMT 35.536606 -103.340607 34,000 270 430 0
2021-10-21 16:31:56 GMT 35.536674 -103.314201 34,000 270 430 -64
2021-10-21 16:31:46 GMT 35.536743 -103.288307 34,000 270 429 0
2021-10-21 16:31:34 GMT 35.536816 -103.262428 34,000 270 429 0
2021-10-21 16:31:24 GMT 35.536880 -103.233604 34,000 270 429 0
2021-10-21 16:31:12 GMT 35.536926 -103.208832 34,000 270 429 0
2021-10-21 16:31:02 GMT 35.537018 -103.181877 34,000 270 429 -64
2021-10-21 16:30:51 GMT 35.537064 -103.154182 34,025 270 429 0
2021-10-21 16:30:43 GMT 35.537094 -103.136086 34,000 270 429 0
2021-10-21 16:30:39 GMT 35.537094 -103.126854 34,000 270 429 0
2021-10-21 16:30:30 GMT 35.537094 -103.103241 34,000 270 429 0
2021-10-21 16:30:22 GMT 35.537109 -103.085403 34,000 270 429 0
2021-10-21 16:30:19 GMT 35.537140 -103.076767 34,000 270 429 0
2021-10-21 16:30:12 GMT 35.537155 -103.059883 34,000 270 429 0
2021-10-21 16:30:07 GMT 35.537155 -103.050903 34,000 270 429 0
2021-10-21 16:30:00 GMT 35.537155 -103.033676 34,000 270 429 0
2021-10-21 16:29:57 GMT 35.537140 -103.024055 34,000 270 428 0
2021-10-21 16:29:51 GMT 35.537140 -103.008278 34,000 270 428 0
2021-10-21 16:29:47 GMT 35.537155 -102.998260 34,000 270 428 0
2021-10-21 16:29:40 GMT 35.537155 -102.981033 34,000 270 429 0
2021-10-21 16:29:36 GMT 35.537140 -102.972870 34,000 270 429 0
2021-10-21 16:29:29 GMT 35.537140 -102.956856 34,000 270 429 0
2021-10-21 16:29:24 GMT 35.537155 -102.946304 34,000 270 429 0
2021-10-21 16:29:19 GMT 35.537140 -102.930206 34,000 270 429 0
2021-10-21 16:29:15 GMT 35.537140 -102.920738 34,000 270 429 0
2021-10-21 16:29:07 GMT 35.537155 -102.904305 34,000 270 429 0
2021-10-21 16:29:04 GMT 35.537155 -102.894630 34,000 270 429 0
2021-10-21 16:28:58 GMT 35.537155 -102.880554 34,000 270 429 0
2021-10-21 16:28:53 GMT 35.537155 -102.867683 34,000 270 429 0
2021-10-21 16:28:46 GMT 35.537155 -102.853828 34,000 270 429 64
2021-10-21 16:28:42 GMT 35.537140 -102.840332 34,000 271 429 0
2021-10-21 16:28:37 GMT 35.537155 -102.829285 34,000 271 429 0
2021-10-21 16:28:31 GMT 35.537109 -102.816177 34,000 271 429 0
2021-10-21 16:28:26 GMT 35.537109 -102.802620 34,000 271 429 0
2021-10-21 16:28:19 GMT 35.537109 -102.784653 34,000 271 428 0
2021-10-21 16:28:15 GMT 35.537064 -102.777390 34,000 271 428 0
2021-10-21 16:28:10 GMT 35.537048 -102.762726 34,000 271 428 0
2021-10-21 16:28:05 GMT 35.537048 -102.751564 34,000 271 428 0
2021-10-21 16:27:59 GMT 35.537018 -102.738075 34,000 271 428 0
2021-10-21 16:27:53 GMT 35.536972 -102.725945 34,000 271 428 0
2021-10-21 16:27:47 GMT 35.536907 -102.711296 34,000 271 428 0
2021-10-21 16:27:44 GMT 35.536880 -102.699509 34,000 271 428 0
2021-10-21 16:27:36 GMT 35.536816 -102.680969 34,000 271 428 0
2021-10-21 16:27:33 GMT 35.536816 -102.675888 34,000 271 428 0
2021-10-21 16:27:27 GMT 35.536743 -102.659058 34,000 271 428 0
2021-10-21 16:27:23 GMT 35.536674 -102.649178 34,000 271 428 0
2021-10-21 16:27:15 GMT 35.536652 -102.633530 34,000 271 428 0
2021-10-21 16:27:11 GMT 35.536583 -102.624229 34,000 271 428 0
2021-10-21 16:27:01 GMT 35.536469 -102.595482 34,000 271 428 0
2021-10-21 16:26:51 GMT 35.536377 -102.571732 34,000 271 428 0
2021-10-21 16:26:39 GMT 35.536331 -102.546272 34,000 271 428 0
2021-10-21 16:26:29 GMT 35.536209 -102.519447 34,000 271 428 0
2021-10-21 16:26:18 GMT 35.536118 -102.494965 34,000 271 428 0
2021-10-21 16:26:09 GMT 35.536011 -102.469826 34,000 271 428 0
2021-10-21 16:25:57 GMT 35.535885 -102.443771 34,000 271 428 0
2021-10-21 16:25:47 GMT 35.535782 -102.418213 34,000 271 428 0
2021-10-21 16:25:37 GMT 35.535652 -102.393341 34,000 271 428 0
2021-10-21 16:25:25 GMT 35.535507 -102.365852 34,000 271 428 0
2021-10-21 16:25:16 GMT 35.535370 -102.341827 34,000 271 428 64
2021-10-21 16:25:05 GMT 35.535278 -102.316490 34,000 271 428 0
2021-10-21 16:24:54 GMT 35.535095 -102.289238 34,000 271 428 0
2021-10-21 16:24:38 GMT 35.534866 -102.251472 34,000 271 428 0
2021-10-21 16:24:32 GMT 35.534821 -102.236420 34,000 271 427 0
2021-10-21 16:24:23 GMT 35.534672 -102.214287 34,000 271 427 0
2021-10-21 16:24:12 GMT 35.534500 -102.188988 34,000 271 427 0
2021-10-21 16:24:02 GMT 35.534317 -102.159981 34,000 271 427 0
2021-10-21 16:23:49 GMT 35.534161 -102.134285 34,000 271 427 0
2021-10-21 16:23:37 GMT 35.533882 -102.101440 34,000 271 427 0
2021-10-21 16:23:28 GMT 35.533768 -102.082672 34,000 271 427 0
2021-10-21 16:23:17 GMT 35.533508 -102.054047 34,000 271 427 0
2021-10-21 16:23:07 GMT 35.533321 -102.032539 34,000 271 427 64
2021-10-21 16:22:58 GMT 35.533127 -102.007256 34,000 271 427 0
2021-10-21 16:22:47 GMT 35.532906 -101.981995 34,000 271 427 -64
2021-10-21 16:22:36 GMT 35.532673 -101.956573 34,000 271 427 0
2021-10-21 16:22:25 GMT 35.532394 -101.927429 34,025 271 427 0
2021-10-21 16:22:15 GMT 35.532211 -101.905174 34,025 271 427 0
2021-10-21 16:22:00 GMT 35.531834 -101.867569 34,000 271 427 0
2021-10-21 16:21:54 GMT 35.531708 -101.854424 34,000 271 428 0
2021-10-21 16:21:44 GMT 35.531479 -101.828957 34,000 271 428 0
2021-10-21 16:21:33 GMT 35.531250 -101.803322 34,000 271 428 0
2021-10-21 16:21:22 GMT 35.531021 -101.777863 34,000 271 428 0
2021-10-21 16:21:12 GMT 35.530746 -101.752228 34,000 271 428 0
2021-10-21 16:21:00 GMT 35.530472 -101.725555 34,000 271 428 0
2021-10-21 16:20:55 GMT 35.530296 -101.709496 34,000 271 427 0
2021-10-21 16:20:51 GMT 35.530205 -101.700264 34,000 271 427 0
2021-10-21 16:20:37 GMT 35.529877 -101.666794 34,000 271 427 0
2021-10-21 16:20:30 GMT 35.529694 -101.649712 34,000 271 427 0
2021-10-21 16:20:24 GMT 35.529507 -101.634232 34,000 271 427 0
2021-10-21 16:20:19 GMT 35.529373 -101.623016 34,000 271 427 0
2021-10-21 16:20:07 GMT 35.529041 -101.597008 34,000 271 427 0
2021-10-21 16:19:58 GMT 35.528732 -101.572037 34,000 271 426 0
2021-10-21 16:19:47 GMT 35.528435 -101.547272 34,000 271 426 0
2021-10-21 16:19:37 GMT 35.527817 -101.494102 34,000 271 425 0
2021-10-21 16:19:25 GMT 35.527817 -101.494102 34,000 271 426 0
2021-10-21 16:19:16 GMT 35.527504 -101.471359 34,000 271 425 0
2021-10-21 16:19:03 GMT 35.527130 -101.443428 34,000 271 425 0
2021-10-21 16:18:55 GMT 35.526855 -101.420464 34,000 271 425 0
2021-10-21 16:18:51 GMT 35.526714 -101.412163 34,000 271 425 0
2021-10-21 16:18:39 GMT 35.526169 -101.372337 33,975 271 425 0
2021-10-21 16:18:32 GMT 35.526062 -101.364304 33,975 271 425 0
2021-10-21 16:18:23 GMT 35.525803 -101.344238 34,000 271 425 0
2021-10-21 16:18:12 GMT 35.525455 -101.318665 34,000 271 424 0
2021-10-21 16:18:02 GMT 35.525082 -101.293655 34,000 271 424 0
2021-10-21 16:17:50 GMT 35.524525 -101.254326 34,000 272 423 0
2021-10-21 16:17:40 GMT 35.524338 -101.241241 34,000 272 423 0
2021-10-21 16:17:32 GMT 35.524063 -101.224709 34,000 272 423 0
2021-10-21 16:17:27 GMT 35.523880 -101.212463 34,000 272 423 0
2021-10-21 16:17:20 GMT 35.523594 -101.191971 34,000 271 423 0
2021-10-21 16:17:08 GMT 35.523270 -101.166374 34,000 271 423 0
2021-10-21 16:17:05 GMT 35.523102 -101.157356 34,000 272 423 0
2021-10-21 16:16:58 GMT 35.522873 -101.140366 34,000 272 423 0
2021-10-21 16:16:47 GMT 35.522232 -101.099167 34,000 272 423 0
2021-10-21 16:16:41 GMT 35.522232 -101.099167 34,000 272 423 0
2021-10-21 16:16:36 GMT 35.522011 -101.087074 34,000 272 423 0
2021-10-21 16:16:26 GMT 35.521637 -101.062088 34,000 272 423 0
2021-10-21 16:16:14 GMT 35.521172 -101.036583 34,000 272 423 0
2021-10-21 16:16:04 GMT 35.520721 -101.011108 34,000 272 423 0
2021-10-21 16:15:55 GMT 35.520401 -100.991020 34,000 272 422 0
2021-10-21 16:15:46 GMT 35.519989 -100.967331 34,000 272 422 0
2021-10-21 16:15:41 GMT 35.519775 -100.955765 34,000 272 422 0
2021-10-21 16:15:33 GMT 35.519531 -100.939865 34,000 272 422 0
2021-10-21 16:15:27 GMT 35.519218 -100.923271 34,000 272 422 0
2021-10-21 16:15:24 GMT 35.519127 -100.915154 34,000 272 422 0
2021-10-21 16:15:16 GMT 35.518658 -100.890083 34,000 272 422 0
2021-10-21 16:15:13 GMT 35.518658 -100.890083 34,000 272 422 0
2021-10-21 16:15:03 GMT 35.518250 -100.864159 34,000 272 422 0
2021-10-21 16:14:55 GMT 35.517929 -100.845512 34,000 272 422 0
2021-10-21 16:14:51 GMT 35.517727 -100.835617 34,000 272 422 0
2021-10-21 16:14:44 GMT 35.517517 -100.822334 34,000 272 422 0
2021-10-21 16:14:38 GMT 35.517262 -100.806923 34,000 272 422 0
2021-10-21 16:14:34 GMT 35.517075 -100.796173 34,000 272 422 0
2021-10-21 16:14:31 GMT 35.516922 -100.788628 34,000 272 422 0
2021-10-21 16:14:24 GMT 35.516647 -100.773293 34,025 272 422 0
2021-10-21 16:14:20 GMT 35.516472 -100.763618 34,000 272 422 0
2021-10-21 16:14:14 GMT 35.516144 -100.746147 34,025 272 423 0
2021-10-21 16:14:09 GMT 35.515961 -100.735626 34,025 272 423 0
2021-10-21 16:14:03 GMT 35.515732 -100.723343 34,000 272 423 0
2021-10-21 16:13:59 GMT 35.515400 -100.708160 34,025 272 422 0
2021-10-21 16:13:52 GMT 35.515182 -100.696053 34,000 272 422 0
2021-10-21 16:13:47 GMT 35.514908 -100.683174 34,000 272 422 0
2021-10-21 16:13:38 GMT 35.514565 -100.664391 34,000 272 422 64
2021-10-21 16:13:35 GMT 35.514423 -100.656975 34,000 272 422 0
2021-10-21 16:13:32 GMT 35.514221 -100.646378 34,000 272 422 0
2021-10-21 16:13:24 GMT 35.513863 -100.629509 34,000 272 422 0
2021-10-21 16:13:20 GMT 35.513672 -100.620064 34,000 272 422 0
2021-10-21 16:13:14 GMT 35.513351 -100.604782 34,000 272 422 0
2021-10-21 16:13:11 GMT 35.513214 -100.597404 34,000 272 422 0
2021-10-21 16:13:03 GMT 35.512894 -100.581146 34,000 272 421 0
2021-10-21 16:12:59 GMT 35.512699 -100.571945 34,000 272 422 0
2021-10-21 16:12:54 GMT 35.512375 -100.556229 34,000 272 422 0
2021-10-21 16:12:50 GMT 35.512207 -100.545845 34,000 272 422 0
2021-10-21 16:12:42 GMT 35.511887 -100.531311 34,000 272 421 0
2021-10-21 16:12:38 GMT 35.511703 -100.521751 34,000 272 421 0
2021-10-21 16:12:29 GMT 35.511211 -100.497787 34,000 272 421 0
2021-10-21 16:12:20 GMT 35.510700 -100.474876 34,000 272 421 0
2021-10-21 16:12:17 GMT 35.510651 -100.471687 34,000 272 421 0
2021-10-21 16:12:08 GMT 35.510139 -100.447762 34,000 272 420 0
2021-10-21 16:11:59 GMT 35.509674 -100.425613 34,000 272 420 0
2021-10-21 16:11:56 GMT 35.509537 -100.419716 34,000 272 420 0
2021-10-21 16:11:50 GMT 35.509232 -100.403419 34,000 272 420 0
2021-10-21 16:11:46 GMT 35.509003 -100.393410 33,975 272 420 0
2021-10-21 16:11:38 GMT 35.508636 -100.376076 34,000 272 420 0
2021-10-21 16:11:26 GMT 35.507999 -100.347427 34,000 272 420 0
2021-10-21 16:11:18 GMT 35.507538 -100.328522 34,000 272 419 0
2021-10-21 16:11:15 GMT 35.507439 -100.322708 34,000 272 420 0
2021-10-21 16:11:08 GMT 35.507034 -100.306206 34,000 272 419 0
2021-10-21 16:11:05 GMT 35.506897 -100.298141 34,000 272 419 0
2021-10-21 16:10:58 GMT 35.506508 -100.280922 34,000 272 419 0
2021-10-21 16:10:54 GMT 35.506302 -100.272736 34,000 272 419 0
2021-10-21 16:10:47 GMT 35.505936 -100.255913 34,000 272 419 0
2021-10-21 16:10:44 GMT 35.505753 -100.247330 34,000 272 419 0
2021-10-21 16:10:36 GMT 35.505341 -100.227409 34,000 272 419 0
2021-10-21 16:10:32 GMT 35.505203 -100.220322 34,000 272 419 0
2021-10-21 16:10:23 GMT 35.504742 -100.198349 34,000 272 419 0
2021-10-21 16:10:17 GMT 35.504459 -100.184563 34,000 272 419 0
2021-10-21 16:10:12 GMT 35.504242 -100.173515 34,000 272 419 0
2021-10-21 16:10:07 GMT 35.504013 -100.158577 34,000 272 419 0
2021-10-21 16:10:04 GMT 35.503902 -100.152306 34,000 272 419 0
2021-10-21 16:09:58 GMT 35.503670 -100.139503 34,000 272 419 0
2021-10-21 16:09:53 GMT 35.503437 -100.124542 34,000 272 419 0
2021-10-21 16:09:50 GMT 35.503372 -100.120872 34,000 272 419 0
2021-10-21 16:09:46 GMT 35.503204 -100.111221 34,000 272 419 0
2021-10-21 16:09:43 GMT 35.503063 -100.102455 34,000 272 419 0
2021-10-21 16:09:40 GMT 35.503017 -100.098656 34,000 272 419 0
2021-10-21 16:09:35 GMT 35.502777 -100.086426 34,000 272 419 0
2021-10-21 16:09:31 GMT 35.502594 -100.076241 34,000 272 419 0
2021-10-21 16:09:28 GMT 35.502411 -100.067711 34,000 272 419 0
2021-10-21 16:09:25 GMT 35.502274 -100.061760 34,000 272 419 0
2021-10-21 16:09:22 GMT 35.502041 -100.052429 34,000 272 419 0
2021-10-21 16:09:19 GMT 35.501900 -100.047699 34,000 273 419 0
2021-10-21 16:09:13 GMT 35.501434 -100.033730 34,000 273 418 0
2021-10-21 16:09:09 GMT 35.500969 -100.022804 34,000 274 418 0
2021-10-21 16:09:01 GMT 35.500076 -100.004028 34,000 274 418 0
2021-10-21 16:08:58 GMT 35.499851 -99.999428 34,000 274 418 0
2021-10-21 16:08:55 GMT 35.499344 -99.988632 34,000 274 418 0
2021-10-21 16:08:49 GMT 35.498703 -99.975639 34,000 274 417 0
2021-10-21 16:08:43 GMT 35.498062 -99.963402 34,000 274 417 0
2021-10-21 16:08:39 GMT 35.497421 -99.950409 34,000 274 417 0
2021-10-21 16:08:34 GMT 35.496918 -99.939995 34,000 274 417 0
2021-10-21 16:08:28 GMT 35.496140 -99.924660 34,000 274 418 0
2021-10-21 16:08:19 GMT 35.495178 -99.905266 34,000 274 418 -64
2021-10-21 16:08:16 GMT 35.494812 -99.897942 34,000 274 418 0
2021-10-21 16:08:11 GMT 35.494308 -99.887527 34,000 274 418 -64
2021-10-21 16:08:07 GMT 35.493660 -99.874199 34,000 274 418 0
2021-10-21 16:07:59 GMT 35.492752 -99.855881 34,000 274 418 0
2021-10-21 16:07:56 GMT 35.492523 -99.851128 34,000 274 418 0
2021-10-21 16:07:49 GMT 35.491745 -99.835739 34,025 274 418 0
2021-10-21 16:07:46 GMT 35.491192 -99.824524 34,000 274 418 0
2021-10-21 16:07:43 GMT 35.490875 -99.818520 34,000 274 418 0
2021-10-21 16:07:37 GMT 35.490261 -99.806351 34,000 274 418 0
2021-10-21 16:07:32 GMT 35.489594 -99.793678 34,000 274 418 0
2021-10-21 16:07:27 GMT 35.489006 -99.781746 34,000 274 418 0
2021-10-21 16:07:24 GMT 35.488586 -99.774055 34,000 274 418 0
2021-10-21 16:07:21 GMT 35.488354 -99.769005 34,000 274 418 0
2021-10-21 16:07:16 GMT 35.487656 -99.756210 34,000 274 418 0
2021-10-21 16:07:13 GMT 35.487350 -99.750420 34,000 274 417 0
2021-10-21 16:07:04 GMT 35.486160 -99.726562 34,000 274 417 0
2021-10-21 16:06:53 GMT 35.484863 -99.702156 34,000 274 417 0
2021-10-21 16:06:43 GMT 35.483513 -99.676674 34,000 274 417 0
2021-10-21 16:06:34 GMT 35.482536 -99.658035 34,000 274 417 0
2021-10-21 16:06:31 GMT 35.482208 -99.651955 34,000 274 417 0
2021-10-21 16:06:22 GMT 35.480953 -99.627647 34,000 274 417 0
2021-10-21 16:06:12 GMT 35.479881 -99.607368 34,000 274 417 0
2021-10-21 16:06:08 GMT 35.479275 -99.596031 34,025 274 417 0
2021-10-21 16:06:03 GMT 35.478241 -99.576302 34,025 274 417 0
2021-10-21 16:06:00 GMT 35.478241 -99.576302 34,000 274 417 0
2021-10-21 16:05:53 GMT 35.477325 -99.558617 34,025 274 417 0
2021-10-21 16:05:50 GMT 35.476902 -99.550743 34,000 274 417 0
2021-10-21 16:05:41 GMT 35.475971 -99.532799 34,000 274 417 0
2021-10-21 16:05:38 GMT 35.475552 -99.525032 34,000 274 417 0
2021-10-21 16:05:31 GMT 35.474621 -99.507088 34,000 274 417 0
2021-10-21 16:05:27 GMT 35.474167 -99.498482 34,000 274 417 0
2021-10-21 16:05:21 GMT 35.473480 -99.484802 34,000 274 417 0
2021-10-21 16:05:18 GMT 35.473083 -99.477577 34,000 274 417 0
2021-10-21 16:05:11 GMT 35.472198 -99.460487 34,000 274 417 0
2021-10-21 16:05:08 GMT 35.471733 -99.452103 34,000 274 417 0
2021-10-21 16:05:00 GMT 35.470852 -99.435623 34,000 274 417 0
2021-10-21 16:04:56 GMT 35.470432 -99.427612 34,000 274 417 0
2021-10-21 16:04:53 GMT 35.469955 -99.419006 34,000 274 417 0
2021-10-21 16:04:50 GMT 35.469219 -99.404938 33,975 274 416 0
2021-10-21 16:04:47 GMT 35.469219 -99.404938 33,975 274 416 0
2021-10-21 16:04:39 GMT 35.468197 -99.386353 34,000 274 416 0
2021-10-21 16:04:36 GMT 35.467686 -99.376717 34,000 274 416 0
2021-10-21 16:04:29 GMT 35.466846 -99.361404 33,975 274 416 0
2021-10-21 16:04:26 GMT 35.466522 -99.355431 33,975 274 416 0
2021-10-21 16:04:23 GMT 35.466110 -99.347878 33,975 274 416 0
2021-10-21 16:04:18 GMT 35.465542 -99.337440 33,975 274 415 0
2021-10-21 16:04:15 GMT 35.463776 -99.305710 33,975 274 415 0
2021-10-21 16:04:06 GMT 35.463776 -99.305710 33,975 274 415 0
2021-10-21 16:03:58 GMT 35.462814 -99.288940 33,975 274 415 0
2021-10-21 16:03:55 GMT 35.462448 -99.282127 33,975 274 414 0
2021-10-21 16:03:48 GMT 35.461578 -99.266685 33,975 274 414 0
2021-10-21 16:03:44 GMT 35.461075 -99.257751 33,975 274 414 0
2021-10-21 16:03:37 GMT 35.460022 -99.238754 34,000 274 414 0
2021-10-21 16:03:33 GMT 35.458698 -99.214783 34,000 274 414 0
2021-10-21 16:03:26 GMT 35.458698 -99.214783 34,000 274 414 0
2021-10-21 16:03:22 GMT 35.458099 -99.203911 34,000 275 414 0
2021-10-21 16:03:15 GMT 35.457184 -99.188004 34,000 275 414 0
2021-10-21 16:03:12 GMT 35.456932 -99.183228 34,000 275 414 0
2021-10-21 16:03:05 GMT 35.455948 -99.165802 34,000 275 414 0
2021-10-21 16:03:02 GMT 35.455582 -99.159149 34,000 275 414 0
2021-10-21 16:02:55 GMT 35.454529 -99.141251 34,000 275 414 0
2021-10-21 16:02:51 GMT 35.454163 -99.134499 34,000 275 414 0
2021-10-21 16:02:44 GMT 35.453156 -99.116936 34,000 275 414 0
2021-10-21 16:02:41 GMT 35.452698 -99.108749 34,000 275 414 0
2021-10-21 16:02:34 GMT 35.451763 -99.092529 34,000 275 414 0
2021-10-21 16:02:30 GMT 35.451370 -99.085632 34,000 275 414 0
2021-10-21 16:02:24 GMT 35.450455 -99.069038 33,975 275 414 0
2021-10-21 16:02:21 GMT 35.449997 -99.060860 34,000 275 414 0
2021-10-21 16:02:13 GMT 35.448624 -99.037003 33,975 275 414 0
2021-10-21 16:02:10 GMT 35.448624 -99.037003 33,975 275 414 0
2021-10-21 16:02:04 GMT 35.447754 -99.022064 33,975 275 414 0
2021-10-21 16:02:00 GMT 35.447159 -99.011536 33,975 275 414 0
2021-10-21 16:01:52 GMT 35.445663 -98.985703 33,975 275 414 0
2021-10-21 16:01:49 GMT 35.445663 -98.985703 33,975 275 414 0
2021-10-21 16:01:43 GMT 35.444962 -98.973885 33,975 275 414 0
2021-10-21 16:01:38 GMT 35.444267 -98.961861 34,000 275 414 0
2021-10-21 16:01:32 GMT 35.443336 -98.945969 34,000 275 414 0
2021-10-21 16:01:29 GMT 35.443085 -98.940926 34,000 275 414 0
2021-10-21 16:01:26 GMT 35.442719 -98.935089 34,000 275 414 0
2021-10-21 16:01:20 GMT 35.441753 -98.918388 34,000 275 414 0
2021-10-21 16:01:16 GMT 35.441429 -98.912308 34,000 275 414 0
2021-10-21 16:01:11 GMT 35.440704 -98.900299 34,000 275 414 0
2021-10-21 16:01:07 GMT 35.439987 -98.888000 34,000 275 414 0
2021-10-21 16:01:00 GMT 35.439102 -98.872261 34,000 275 414 0
2021-10-21 16:00:55 GMT 35.438587 -98.863686 34,000 275 414 0
2021-10-21 16:00:49 GMT 35.437683 -98.847710 34,000 275 414 0
2021-10-21 16:00:46 GMT 35.437180 -98.839073 34,000 275 414 0
2021-10-21 16:00:39 GMT 35.436260 -98.822784 34,025 275 415 -64
2021-10-21 16:00:35 GMT 35.435760 -98.814468 34,025 275 415 0
2021-10-21 16:00:28 GMT 35.434261 -98.789352 34,025 275 415 -64
2021-10-21 16:00:24 GMT 35.434261 -98.789352 34,025 275 415 0
2021-10-21 16:00:18 GMT 35.433334 -98.773270 34,025 275 415 0
2021-10-21 16:00:13 GMT 35.432724 -98.762878 34,025 275 415 0
2021-10-21 16:00:09 GMT 35.432213 -98.754700 34,025 275 415 0
2021-10-21 16:00:06 GMT 35.431732 -98.746376 34,025 275 415 0
2021-10-21 16:00:03 GMT 35.431282 -98.738983 34,025 275 415 0
2021-10-21 15:59:59 GMT 35.430721 -98.730103 34,025 275 415 0
2021-10-21 15:59:54 GMT 35.430038 -98.718513 34,025 275 415 0
2021-10-21 15:59:49 GMT 35.429188 -98.704330 34,025 275 416 0
2021-10-21 15:59:45 GMT 35.428860 -98.699188 34,025 275 416 0
2021-10-21 15:59:42 GMT 35.428253 -98.689545 34,025 275 416 0
2021-10-21 15:59:35 GMT 35.427383 -98.674911 34,025 275 416 0
2021-10-21 15:59:31 GMT 35.426788 -98.664841 34,025 275 416 0
2021-10-21 15:59:27 GMT 35.426102 -98.653793 34,025 275 416 0
2021-10-21 15:59:24 GMT 35.425827 -98.649101 34,025 275 416 0
2021-10-21 15:59:19 GMT 35.425140 -98.638290 34,025 275 416 0
2021-10-21 15:59:15 GMT 35.424316 -98.624893 34,025 275 416 0
2021-10-21 15:59:10 GMT 35.423740 -98.615440 34,025 275 416 0
2021-10-21 15:59:06 GMT 35.423275 -98.607201 34,025 275 416 64
2021-10-21 15:59:00 GMT 35.422211 -98.589996 34,025 275 416 64
2021-10-21 15:58:56 GMT 35.421844 -98.583641 34,025 275 416 0
2021-10-21 15:58:53 GMT 35.421249 -98.574028 34,025 275 416 0
2021-10-21 15:58:46 GMT 35.420387 -98.559402 34,000 275 415 0
2021-10-21 15:58:42 GMT 35.419830 -98.550110 34,025 275 415 0
2021-10-21 15:58:37 GMT 35.419178 -98.539474 34,025 275 415 0
2021-10-21 15:58:34 GMT 35.418667 -98.530594 34,000 275 415 0
2021-10-21 15:58:31 GMT 35.418274 -98.524361 34,000 275 415 0
2021-10-21 15:58:24 GMT 35.417362 -98.509323 34,000 275 414 64
2021-10-21 15:58:15 GMT 35.415848 -98.484879 34,000 275 414 64
2021-10-21 15:58:07 GMT 35.414703 -98.466225 34,000 275 414 64
2021-10-21 15:58:04 GMT 35.412800 -98.436272 34,000 275 413 0
2021-10-21 15:57:53 GMT 35.412800 -98.436272 33,975 275 413 0
2021-10-21 15:57:43 GMT 35.411362 -98.413124 33,975 275 412 0
2021-10-21 15:57:37 GMT 35.410519 -98.400215 33,975 275 411 0
2021-10-21 15:57:33 GMT 35.409851 -98.389435 33,975 275 411 0
2021-10-21 15:57:30 GMT 35.409401 -98.382858 33,975 275 411 0
2021-10-21 15:57:23 GMT 35.408237 -98.364105 33,975 275 410 0
2021-10-21 15:57:11 GMT 35.406693 -98.339882 33,975 275 410 0
2021-10-21 15:57:02 GMT 35.405228 -98.316360 34,000 275 409 -64
2021-10-21 15:56:54 GMT 35.404266 -98.300919 34,000 275 409 -64
2021-10-21 15:56:51 GMT 35.403721 -98.292221 34,000 275 409 -64
2021-10-21 15:56:48 GMT 35.403301 -98.286263 34,000 275 408 0
2021-10-21 15:56:38 GMT 35.401814 -98.262306 34,000 275 408 0
2021-10-21 15:56:27 GMT 35.400284 -98.238258 34,000 275 408 0
2021-10-21 15:56:18 GMT 35.398788 -98.215141 34,000 275 408 0
2021-10-21 15:56:10 GMT 35.397575 -98.196037 34,000 275 408 0
2021-10-21 15:56:06 GMT 35.396988 -98.186707 34,000 275 408 0
2021-10-21 15:56:01 GMT 35.396366 -98.177162 34,000 275 408 0
2021-10-21 15:55:58 GMT 35.395992 -98.171608 34,000 275 408 0
2021-10-21 15:55:55 GMT 35.395481 -98.163544 34,000 275 408 0
2021-10-21 15:55:48 GMT 35.394409 -98.147003 34,000 275 408 0
2021-10-21 15:55:45 GMT 35.393898 -98.138939 34,000 275 408 0
2021-10-21 15:55:38 GMT 35.392365 -98.115044 34,000 275 408 0
2021-10-21 15:55:34 GMT 35.392365 -98.115044 34,000 275 408 0
2021-10-21 15:55:31 GMT 35.391758 -98.105629 34,000 275 408 0
2021-10-21 15:55:28 GMT 35.391434 -98.100784 34,000 275 408 0
2021-10-21 15:55:24 GMT 35.390762 -98.090569 34,000 275 408 0
2021-10-21 15:55:19 GMT 35.390175 -98.081497 34,000 275 408 0
2021-10-21 15:55:14 GMT 35.389389 -98.069405 34,000 275 408 0
2021-10-21 15:55:10 GMT 35.388683 -98.058472 34,000 275 408 0
2021-10-21 15:55:05 GMT 35.387970 -98.048058 34,000 275 408 0
2021-10-21 15:55:02 GMT 35.387524 -98.041000 34,000 275 408 0
2021-10-21 15:54:57 GMT 35.386684 -98.027908 34,000 275 408 0
2021-10-21 15:54:52 GMT 35.386078 -98.018738 34,000 275 408 0
2021-10-21 15:54:46 GMT 35.384491 -97.994675 34,000 275 407 0
2021-10-21 15:54:41 GMT 35.384491 -97.994675 34,000 275 408 0
2021-10-21 15:54:36 GMT 35.383575 -97.980423 34,000 275 407 0
2021-10-21 15:54:31 GMT 35.382889 -97.970528 34,000 275 407 0
2021-10-21 15:54:24 GMT 35.381790 -97.953812 34,000 275 405 0
2021-10-21 15:54:21 GMT 35.381237 -97.945450 34,000 275 406 64
2021-10-21 15:54:13 GMT 35.379978 -97.925995 34,000 275 406 0
2021-10-21 15:54:10 GMT 35.379547 -97.920113 34,000 275 406 0
2021-10-21 15:54:01 GMT 35.378212 -97.899872 34,000 275 406 0
2021-10-21 15:53:58 GMT 35.377945 -97.895454 34,000 275 406 0
2021-10-21 15:53:53 GMT 35.377232 -97.884796 34,000 275 405 0
2021-10-21 15:53:49 GMT 35.376389 -97.871880 34,000 275 405 0
2021-10-21 15:53:43 GMT 35.375565 -97.859573 34,000 275 405 0
2021-10-21 15:53:37 GMT 35.374786 -97.847672 34,000 275 405 0
2021-10-21 15:53:32 GMT 35.374054 -97.836967 34,000 275 405 0
2021-10-21 15:53:28 GMT 35.373463 -97.827698 33,975 275 405 0
2021-10-21 15:53:25 GMT 35.373001 -97.820778 33,975 275 405 0
2021-10-21 15:53:20 GMT 35.371948 -97.805214 34,000 275 405 0
2021-10-21 15:53:17 GMT 35.371674 -97.800697 34,000 275 405 0
2021-10-21 15:53:09 GMT 35.370529 -97.783928 34,000 275 405 0
2021-10-21 15:53:06 GMT 35.369972 -97.775459 34,000 275 405 0
2021-10-21 15:52:59 GMT 35.369041 -97.761314 34,000 275 404 0
2021-10-21 15:52:55 GMT 35.368389 -97.751785 34,000 275 404 0
2021-10-21 15:52:48 GMT 35.367325 -97.736610 33,975 275 404 0
2021-10-21 15:52:44 GMT 35.366730 -97.727509 33,975 275 404 0
2021-10-21 15:52:40 GMT 35.366062 -97.718307 34,000 275 404 0
2021-10-21 15:52:35 GMT 35.365036 -97.703751 34,000 275 404 0
2021-10-21 15:52:31 GMT 35.364349 -97.694321 34,000 276 403 0
2021-10-21 15:52:23 GMT 35.363297 -97.679955 34,000 276 403 -64
2021-10-21 15:52:20 GMT 35.362617 -97.670792 34,000 276 403 0
2021-10-21 15:52:17 GMT 35.362106 -97.664047 34,000 275 404 0
2021-10-21 15:52:14 GMT 35.361511 -97.656097 34,000 276 404 0
2021-10-21 15:52:07 GMT 35.360550 -97.640366 34,000 274 404 0
2021-10-21 15:52:02 GMT 35.360195 -97.632050 34,000 272 405 0
2021-10-21 15:51:57 GMT 35.359867 -97.620598 34,000 272 405 0
2021-10-21 15:51:53 GMT 35.359818 -97.598022 34,000 270 406 0
2021-10-21 15:51:48 GMT 35.359818 -97.598022 34,000 270 406 0
2021-10-21 15:51:45 GMT 35.359955 -97.592072 34,000 266 407 0
2021-10-21 15:51:42 GMT 35.360195 -97.584129 34,000 267 406 0
2021-10-21 15:51:38 GMT 35.360706 -97.573608 34,000 267 406 0
2021-10-21 15:51:35 GMT 35.361172 -97.565376 34,000 266 407 0
2021-10-21 15:51:31 GMT 35.362057 -97.551582 34,000 266 407 0
2021-10-21 15:51:28 GMT 35.362057 -97.551582 34,000 266 407 0
2021-10-21 15:51:21 GMT 35.363068 -97.535873 34,000 266 407 0
2021-10-21 15:51:18 GMT 35.363594 -97.527740 34,000 266 407 0
2021-10-21 15:51:15 GMT 35.364059 -97.520844 34,000 266 407 0
2021-10-21 15:51:11 GMT 35.364670 -97.511101 34,000 266 407 0
2021-10-21 15:51:06 GMT 35.365082 -97.504234 34,000 266 407 0
2021-10-21 15:51:03 GMT 35.365677 -97.495537 34,000 266 407 0
2021-10-21 15:50:59 GMT 35.366180 -97.487068 34,000 266 407 0
2021-10-21 15:50:56 GMT 35.366776 -97.477859 34,000 266 407 0
2021-10-21 15:50:50 GMT 35.367691 -97.463280 34,000 266 407 0
2021-10-21 15:50:43 GMT 35.368622 -97.448380 34,000 266 407 0
2021-10-21 15:50:36 GMT 35.369568 -97.432709 34,000 266 407 0
2021-10-21 15:50:31 GMT 35.370255 -97.422127 34,000 266 407 0
2021-10-21 15:50:28 GMT 35.370808 -97.412613 34,000 266 407 0
2021-10-21 15:50:22 GMT 35.371647 -97.399292 34,000 266 407 0
2021-10-21 15:50:15 GMT 35.372578 -97.384621 34,000 266 407 0
2021-10-21 15:50:10 GMT 35.373230 -97.374512 34,000 266 407 0
2021-10-21 15:50:05 GMT 35.374115 -97.360489 34,000 266 407 0
2021-10-21 15:50:02 GMT 35.374580 -97.352951 34,000 266 407 0
2021-10-21 15:49:56 GMT 35.375233 -97.342377 34,000 266 407 0
2021-10-21 15:49:53 GMT 35.375603 -97.336647 34,000 266 407 0
2021-10-21 15:49:50 GMT 35.376118 -97.328644 34,000 266 407 0
2021-10-21 15:49:44 GMT 35.377121 -97.312714 34,000 266 407 0
2021-10-21 15:49:39 GMT 35.377838 -97.301117 34,000 266 407 0
2021-10-21 15:49:35 GMT 35.378265 -97.293892 34,000 266 407 0
2021-10-21 15:49:31 GMT 35.378864 -97.284576 34,000 266 407 0
2021-10-21 15:49:26 GMT 35.379730 -97.270950 34,000 266 407 0
2021-10-21 15:49:23 GMT 35.380051 -97.265221 34,000 266 407 0
2021-10-21 15:49:19 GMT 35.380646 -97.256065 34,000 266 407 0
2021-10-21 15:49:13 GMT 35.381424 -97.243553 34,000 266 407 0
2021-10-21 15:49:10 GMT 35.382027 -97.233208 34,000 266 407 0
2021-10-21 15:49:02 GMT 35.383072 -97.216583 34,000 266 407 0
2021-10-21 15:48:58 GMT 35.383530 -97.208801 34,000 266 407 0
2021-10-21 15:48:54 GMT 35.384171 -97.198677 34,000 266 407 0
2021-10-21 15:48:51 GMT 35.384590 -97.191254 34,000 266 407 0
2021-10-21 15:48:48 GMT 35.385056 -97.183418 34,000 266 407 0
2021-10-21 15:48:44 GMT 35.385681 -97.173447 34,000 266 407 0
2021-10-21 15:48:40 GMT 35.385956 -97.168861 34,000 266 407 0
2021-10-21 15:48:37 GMT 35.386368 -97.161774 34,000 266 407 0
2021-10-21 15:48:34 GMT 35.387383 -97.145325 34,000 266 407 0
2021-10-21 15:48:31 GMT 35.387383 -97.145325 34,000 266 407 0
2021-10-21 15:48:28 GMT 35.387878 -97.137161 34,000 266 407 0
2021-10-21 15:48:23 GMT 35.388500 -97.126503 34,000 266 407 0
2021-10-21 15:48:20 GMT 35.388794 -97.121773 34,000 266 407 0
2021-10-21 15:48:17 GMT 35.389252 -97.114449 34,000 266 407 0
2021-10-21 15:48:14 GMT 35.389664 -97.107216 34,000 266 408 0
2021-10-21 15:48:10 GMT 35.390259 -97.097687 34,000 266 408 0
2021-10-21 15:48:07 GMT 35.390717 -97.090073 34,000 266 408 0
2021-10-21 15:48:00 GMT 35.391724 -97.073303 34,000 266 408 0
2021-10-21 15:47:55 GMT 35.392273 -97.063866 34,000 266 408 0
2021-10-21 15:47:48 GMT 35.393188 -97.048927 34,000 266 408 64
2021-10-21 15:47:44 GMT 35.393948 -97.036392 34,000 266 408 64
2021-10-21 15:47:41 GMT 35.394333 -97.029366 34,000 266 408 64
2021-10-21 15:47:37 GMT 35.394829 -97.021431 34,000 266 408 0
2021-10-21 15:47:31 GMT 35.395477 -97.010017 34,000 266 408 0
2021-10-21 15:47:28 GMT 35.395981 -97.001778 34,000 266 408 0
2021-10-21 15:47:24 GMT 35.396530 -96.992798 34,000 266 408 0
2021-10-21 15:47:20 GMT 35.397205 -96.980934 34,000 266 408 64
2021-10-21 15:47:15 GMT 35.397903 -96.969193 34,000 266 408 0
2021-10-21 15:47:07 GMT 35.398865 -96.953659 34,000 266 408 0
2021-10-21 15:47:04 GMT 35.399277 -96.946564 33,975 266 408 0
2021-10-21 15:46:58 GMT 35.400146 -96.931343 33,975 266 408 0
2021-10-21 15:46:55 GMT 35.400513 -96.925163 34,000 266 408 0
2021-10-21 15:46:52 GMT 35.400833 -96.919281 34,000 266 408 0
2021-10-21 15:46:47 GMT 35.401535 -96.908005 34,000 266 408 0
2021-10-21 15:46:44 GMT 35.402046 -96.898827 34,000 266 408 -64
2021-10-21 15:46:36 GMT 35.402939 -96.883049 34,000 266 408 -64
2021-10-21 15:46:33 GMT 35.403397 -96.875160 34,000 266 407 0
2021-10-21 15:46:25 GMT 35.404907 -96.849060 34,000 266 408 0
2021-10-21 15:46:18 GMT 35.405350 -96.842026 34,000 266 408 -64
2021-10-21 15:46:13 GMT 35.406097 -96.828941 34,000 266 408 -64
2021-10-21 15:46:09 GMT 35.406513 -96.821571 34,000 266 408 -64
2021-10-21 15:46:05 GMT 35.407288 -96.808372 34,000 267 407 -64
2021-10-21 15:46:01 GMT 35.407745 -96.800079 34,000 267 407 -64
2021-10-21 15:45:53 GMT 35.408611 -96.784760 34,025 267 407 0
2021-10-21 15:45:50 GMT 35.409119 -96.775703 34,025 267 407 0
2021-10-21 15:45:44 GMT 35.409897 -96.761909 34,025 267 407 0
2021-10-21 15:45:40 GMT 35.410423 -96.752563 34,025 267 407 0
2021-10-21 15:45:33 GMT 35.411362 -96.736336 34,025 267 407 0
2021-10-21 15:45:30 GMT 35.412369 -96.718369 34,025 267 407 0
2021-10-21 15:45:25 GMT 35.412369 -96.718369 34,025 266 408 0
2021-10-21 15:45:22 GMT 35.412800 -96.711128 34,025 266 408 0
2021-10-21 15:45:19 GMT 35.413284 -96.702515 34,025 266 408 0
2021-10-21 15:45:16 GMT 35.413589 -96.697571 34,025 267 407 0
2021-10-21 15:45:13 GMT 35.414062 -96.689186 34,025 267 407 0
2021-10-21 15:45:10 GMT 35.414474 -96.682144 34,000 267 407 0
2021-10-21 15:45:02 GMT 35.415871 -96.657303 34,025 267 407 0
2021-10-21 15:44:58 GMT 35.416756 -96.641937 34,000 267 407 0
2021-10-21 15:44:52 GMT 35.416756 -96.641937 34,025 267 407 0
2021-10-21 15:44:49 GMT 35.417221 -96.633736 34,025 267 407 0
2021-10-21 15:44:41 GMT 35.418137 -96.617661 34,025 267 407 0
2021-10-21 15:44:37 GMT 35.418640 -96.608444 34,025 267 407 0
2021-10-21 15:44:31 GMT 35.419502 -96.593140 34,025 267 407 0
2021-10-21 15:44:27 GMT 35.419968 -96.585312 34,000 267 407 0
2021-10-21 15:44:21 GMT 35.420883 -96.569138 34,000 267 406 64
2021-10-21 15:44:16 GMT 35.421524 -96.557404 34,000 267 406 0
2021-10-21 15:44:10 GMT 35.422165 -96.545448 34,000 267 406 64
2021-10-21 15:44:06 GMT 35.422577 -96.538582 34,000 267 406 64
2021-10-21 15:44:00 GMT 35.423492 -96.521584 34,000 267 406 64
2021-10-21 15:43:56 GMT 35.424019 -96.512321 34,000 267 406 0
2021-10-21 15:43:49 GMT 35.424904 -96.496483 34,000 267 406 0
2021-10-21 15:43:46 GMT 35.425228 -96.490761 34,000 267 406 0
2021-10-21 15:43:39 GMT 35.426147 -96.473640 34,000 267 405 -64
2021-10-21 15:43:36 GMT 35.426533 -96.466911 34,000 267 405 -64
2021-10-21 15:43:28 GMT 35.427883 -96.442665 34,000 267 404 0
2021-10-21 15:43:25 GMT 35.427883 -96.442665 34,000 267 404 0
2021-10-21 15:43:18 GMT 35.428768 -96.425949 34,000 267 404 0
2021-10-21 15:43:14 GMT 35.429699 -96.409241 34,000 267 404 0
2021-10-21 15:43:11 GMT 35.429699 -96.409241 34,000 267 404 0
2021-10-21 15:43:08 GMT 35.430443 -96.396027 34,000 267 404 0
2021-10-21 15:43:05 GMT 35.430443 -96.396027 34,000 267 404 0
2021-10-21 15:43:01 GMT 35.430908 -96.387688 34,000 267 404 0
2021-10-21 15:42:54 GMT 35.431793 -96.371544 34,000 267 404 0
2021-10-21 15:42:50 GMT 35.432304 -96.361725 34,000 267 404 0
2021-10-21 15:42:47 GMT 35.432739 -96.354507 34,000 267 405 0
2021-10-21 15:42:44 GMT 35.433105 -96.347633 34,000 267 405 0
2021-10-21 15:42:39 GMT 35.433701 -96.336884 34,000 267 405 0
2021-10-21 15:42:33 GMT 35.434864 -96.315498 34,000 267 405 0
2021-10-21 15:42:29 GMT 35.434864 -96.315498 34,000 267 405 0
2021-10-21 15:42:25 GMT 35.435425 -96.304749 34,000 267 405 0
2021-10-21 15:42:20 GMT 35.436077 -96.292595 34,000 267 405 0
2021-10-21 15:42:13 GMT 35.436821 -96.278625 34,000 267 405 0
2021-10-21 15:42:09 GMT 35.437363 -96.268677 34,000 267 405 0
2021-10-21 15:42:04 GMT 35.438004 -96.256310 34,000 267 405 0
2021-10-21 15:41:59 GMT 35.438683 -96.243393 34,000 267 405 0
2021-10-21 15:41:55 GMT 35.439102 -96.235252 34,000 267 405 0
2021-10-21 15:41:52 GMT 35.439472 -96.227844 34,000 267 405 0
2021-10-21 15:41:47 GMT 35.439926 -96.219460 34,000 267 405 0
2021-10-21 15:41:43 GMT 35.440567 -96.207336 34,000 267 405 0
2021-10-21 15:41:40 GMT 35.440731 -96.204002 34,000 267 405 0
2021-10-21 15:41:37 GMT 35.441151 -96.195999 34,000 267 405 0
2021-10-21 15:41:34 GMT 35.441620 -96.186958 34,000 267 404 0
2021-10-21 15:41:30 GMT 35.441940 -96.181152 34,000 267 405 0
2021-10-21 15:41:27 GMT 35.442451 -96.171104 34,000 267 404 0
2021-10-21 15:41:23 GMT 35.442825 -96.163971 34,000 267 404 0
2021-10-21 15:41:20 GMT 35.443150 -96.157135 34,000 267 404 0
2021-10-21 15:41:16 GMT 35.443588 -96.149025 34,000 267 404 0
2021-10-21 15:41:13 GMT 35.444092 -96.138954 34,000 267 404 0
2021-10-21 15:41:10 GMT 35.444824 -96.125221 34,000 267 404 0
2021-10-21 15:41:07 GMT 35.444824 -96.125221 34,000 267 404 0
2021-10-21 15:41:00 GMT 35.445648 -96.108337 34,000 267 404 0
2021-10-21 15:40:55 GMT 35.446060 -96.101021 34,000 267 404 0
2021-10-21 15:40:52 GMT 35.446518 -96.091690 34,000 267 404 0
2021-10-21 15:40:48 GMT 35.446922 -96.083565 34,000 267 404 0
2021-10-21 15:40:45 GMT 35.447205 -96.077957 34,000 267 404 0
2021-10-21 15:40:39 GMT 35.448029 -96.062225 34,000 267 404 0
2021-10-21 15:40:34 GMT 35.448505 -96.052765 34,000 267 404 0
2021-10-21 15:40:28 GMT 35.449173 -96.039848 34,000 267 404 0
2021-10-21 15:40:24 GMT 35.449677 -96.030006 34,000 267 404 0
2021-10-21 15:40:21 GMT 35.450180 -96.020851 34,000 267 404 0
2021-10-21 15:40:18 GMT 35.450500 -96.014732 34,000 267 404 0
2021-10-21 15:40:15 GMT 35.450912 -96.006721 34,000 267 404 0
2021-10-21 15:40:08 GMT 35.451736 -95.990005 34,000 267 404 0
2021-10-21 15:40:03 GMT 35.452423 -95.977425 34,000 267 404 0
2021-10-21 15:39:58 GMT 35.452927 -95.967735 34,000 267 404 0
2021-10-21 15:39:54 GMT 35.453293 -95.959625 34,000 267 404 0
2021-10-21 15:39:51 GMT 35.453568 -95.955048 34,000 267 404 0
2021-10-21 15:39:47 GMT 35.454231 -95.941910 34,000 267 404 0
2021-10-21 15:39:43 GMT 35.454529 -95.935593 34,000 267 404 0
2021-10-21 15:39:40 GMT 35.454895 -95.928497 34,000 267 404 0
2021-10-21 15:39:37 GMT 35.455307 -95.920319 34,000 267 404 0
2021-10-21 15:39:33 GMT 35.455673 -95.912766 34,000 267 404 0
2021-10-21 15:39:30 GMT 35.455952 -95.907135 34,000 267 404 0
2021-10-21 15:39:26 GMT 35.456558 -95.895042 34,000 267 404 0
2021-10-21 15:39:23 GMT 35.457001 -95.886665 34,000 267 404 0
2021-10-21 15:39:19 GMT 35.457302 -95.879967 34,000 267 404 0
2021-10-21 15:39:15 GMT 35.457733 -95.871849 34,000 267 404 0
2021-10-21 15:39:12 GMT 35.458099 -95.863838 34,000 267 404 0
2021-10-21 15:39:07 GMT 35.458649 -95.852448 34,000 267 404 0
2021-10-21 15:39:04 GMT 35.458935 -95.847061 34,000 267 403 0
2021-10-21 15:39:01 GMT 35.459305 -95.839058 34,000 267 403 0
2021-10-21 15:38:58 GMT 35.459564 -95.834427 34,000 267 403 0
2021-10-21 15:38:55 GMT 35.460934 -95.806450 34,000 267 403 0
2021-10-21 15:38:47 GMT 35.460934 -95.806450 34,000 267 403 0
2021-10-21 15:38:43 GMT 35.461262 -95.799614 34,000 267 403 0
2021-10-21 15:38:38 GMT 35.461807 -95.787849 34,000 267 403 0
2021-10-21 15:38:34 GMT 35.462402 -95.776237 34,000 267 403 0
2021-10-21 15:38:29 GMT 35.462936 -95.765427 34,000 267 403 0
2021-10-21 15:38:26 GMT 35.463261 -95.758354 34,000 267 403 0
2021-10-21 15:38:22 GMT 35.463634 -95.751518 34,000 267 403 0
2021-10-21 15:38:19 GMT 35.464008 -95.743279 34,000 267 403 0
2021-10-21 15:38:16 GMT 35.464333 -95.736908 34,000 267 403 0
2021-10-21 15:38:13 GMT 35.464706 -95.728958 34,000 267 403 0
2021-10-21 15:38:10 GMT 35.464939 -95.724403 34,000 267 403 0
2021-10-21 15:38:05 GMT 35.465927 -95.704880 34,000 267 403 0
2021-10-21 15:38:02 GMT 35.465927 -95.704880 34,000 267 403 0
2021-10-21 15:37:55 GMT 35.466751 -95.687706 34,000 267 403 0
2021-10-21 15:37:49 GMT 35.467392 -95.673637 34,000 267 403 0
2021-10-21 15:37:46 GMT 35.467636 -95.669006 34,000 267 403 0
2021-10-21 15:37:39 GMT 35.468536 -95.650177 34,000 267 403 0
2021-10-21 15:37:34 GMT 35.468987 -95.640312 34,000 267 403 0
2021-10-21 15:37:28 GMT 35.469635 -95.626259 34,000 267 403 0
2021-10-21 15:37:20 GMT 35.470570 -95.606590 34,000 267 403 0
2021-10-21 15:37:17 GMT 35.470779 -95.602341 34,000 267 403 0
2021-10-21 15:37:14 GMT 35.471085 -95.596069 34,000 267 403 0
2021-10-21 15:37:10 GMT 35.471596 -95.585144 34,000 267 403 0
2021-10-21 15:37:07 GMT 35.471874 -95.579247 34,000 267 403 0
2021-10-21 15:37:02 GMT 35.472382 -95.568871 34,025 267 404 0
2021-10-21 15:36:58 GMT 35.472805 -95.559845 34,000 267 403 0
2021-10-21 15:36:49 GMT 35.473877 -95.537048 34,025 267 403 0
2021-10-21 15:36:42 GMT 35.474621 -95.520630 34,025 267 403 0
2021-10-21 15:36:36 GMT 35.475266 -95.507072 34,025 267 403 0
2021-10-21 15:36:32 GMT 35.475643 -95.498947 34,000 267 404 0
2021-10-21 15:36:29 GMT 35.476017 -95.491180 34,025 267 404 0
2021-10-21 15:36:26 GMT 35.476204 -95.487785 34,025 267 404 0
2021-10-21 15:36:21 GMT 35.476822 -95.473938 34,025 267 404 0
2021-10-21 15:36:17 GMT 35.477322 -95.463539 34,000 267 404 0
2021-10-21 15:36:08 GMT 35.478424 -95.439430 34,000 267 404 0
2021-10-21 15:35:59 GMT 35.479065 -95.425468 34,000 267 404 64
2021-10-21 15:35:55 GMT 35.479462 -95.416672 34,000 267 404 64
2021-10-21 15:35:47 GMT 35.480438 -95.395950 34,000 267 405 0
2021-10-21 15:35:44 GMT 35.480721 -95.389435 34,000 267 405 0
2021-10-21 15:35:39 GMT 35.481216 -95.378326 34,000 267 405 -64
2021-10-21 15:35:36 GMT 35.481491 -95.372375 34,000 267 405 0
2021-10-21 15:35:28 GMT 35.482727 -95.346046 34,000 267 404 0
2021-10-21 15:35:25 GMT 35.482727 -95.346046 34,000 267 404 0
2021-10-21 15:35:16 GMT 35.483746 -95.323463 34,000 267 404 0
2021-10-21 15:35:09 GMT 35.484329 -95.311256 34,000 267 404 0
2021-10-21 15:35:05 GMT 35.484818 -95.300613 34,000 267 404 0
2021-10-21 15:35:02 GMT 35.485283 -95.290558 34,000 267 404 0
2021-10-21 15:34:58 GMT 35.485565 -95.284714 34,000 267 404 0
2021-10-21 15:34:55 GMT 35.485931 -95.276596 34,000 267 404 0
2021-10-21 15:34:49 GMT 35.486584 -95.261986 34,000 267 404 0
2021-10-21 15:34:44 GMT 35.487003 -95.253044 34,000 267 404 0
2021-10-21 15:34:41 GMT 35.487377 -95.244804 34,000 267 404 0
2021-10-21 15:34:36 GMT 35.487843 -95.234108 34,000 267 404 0
2021-10-21 15:34:33 GMT 35.488075 -95.229080 34,000 267 404 0
2021-10-21 15:34:30 GMT 35.488445 -95.220375 34,000 267 404 0
2021-10-21 15:34:25 GMT 35.488865 -95.211029 34,000 267 403 0
2021-10-21 15:34:21 GMT 35.489426 -95.198692 34,000 267 403 0
2021-10-21 15:34:15 GMT 35.489960 -95.186234 34,000 267 403 0
2021-10-21 15:34:11 GMT 35.490372 -95.177132 34,000 267 403 0
2021-10-21 15:34:05 GMT 35.491013 -95.161797 34,000 267 403 0
2021-10-21 15:34:01 GMT 35.491425 -95.152702 34,000 267 403 0
2021-10-21 15:33:55 GMT 35.492020 -95.139259 34,000 267 403 0
2021-10-21 15:33:49 GMT 35.492542 -95.127457 34,000 267 403 0
2021-10-21 15:33:43 GMT 35.493118 -95.114365 34,000 268 403 0
2021-10-21 15:33:40 GMT 35.493523 -95.104843 34,000 268 404 0
2021-10-21 15:33:34 GMT 35.494125 -95.090843 34,000 268 404 0
2021-10-21 15:33:30 GMT 35.494446 -95.083755 34,000 268 404 0
2021-10-21 15:33:25 GMT 35.495041 -95.069794 34,000 268 404 0
2021-10-21 15:33:21 GMT 35.495316 -95.062698 34,000 268 404 0
2021-10-21 15:33:18 GMT 35.495567 -95.056396 34,000 268 404 0
2021-10-21 15:33:13 GMT 35.496082 -95.044769 34,000 268 404 0
2021-10-21 15:33:10 GMT 35.496460 -95.036201 34,000 268 404 0
2021-10-21 15:33:03 GMT 35.497150 -95.020111 34,000 268 403 0
2021-10-21 15:32:59 GMT 35.497375 -95.014519 34,000 268 404 0
2021-10-21 15:32:55 GMT 35.497849 -95.002991 34,000 268 403 0
2021-10-21 15:32:49 GMT 35.498474 -94.989166 34,000 268 403 0
2021-10-21 15:32:42 GMT 35.499107 -94.973297 34,000 268 403 0
2021-10-21 15:32:38 GMT 35.499390 -94.966560 34,000 268 403 0
2021-10-21 15:32:35 GMT 35.499756 -94.957642 34,000 268 403 0
2021-10-21 15:32:31 GMT 35.500130 -94.949341 34,000 268 403 0
2021-10-21 15:32:27 GMT 35.500782 -94.933151 34,000 268 403 0
2021-10-21 15:32:24 GMT 35.500782 -94.933151 34,000 268 403 0
2021-10-21 15:32:18 GMT 35.501389 -94.919243 34,000 268 403 0
2021-10-21 15:32:15 GMT 35.501762 -94.909897 34,000 268 403 0
2021-10-21 15:32:09 GMT 35.502228 -94.899200 34,000 268 403 0
2021-10-21 15:32:05 GMT 35.502594 -94.889946 34,000 268 403 0
2021-10-21 15:31:58 GMT 35.503391 -94.871155 34,000 268 402 0
2021-10-21 15:31:55 GMT 35.503601 -94.866486 34,000 268 402 0
2021-10-21 15:31:47 GMT 35.504333 -94.848747 34,000 268 402 0
2021-10-21 15:31:44 GMT 35.504646 -94.841347 34,000 268 402 0
2021-10-21 15:31:39 GMT 35.505157 -94.828262 34,000 268 402 0
2021-10-21 15:31:35 GMT 35.505569 -94.819160 34,000 268 402 0
2021-10-21 15:31:29 GMT 35.506027 -94.807549 34,000 268 402 0
2021-10-21 15:31:26 GMT 35.506325 -94.801086 34,000 268 402 0
2021-10-21 15:31:23 GMT 35.506557 -94.794716 34,000 268 402 0
2021-10-21 15:31:17 GMT 35.507114 -94.781914 34,000 268 402 0
2021-10-21 15:31:14 GMT 35.507538 -94.771156 34,000 268 402 0
2021-10-21 15:31:08 GMT 35.508091 -94.758018 34,000 268 402 0
2021-10-21 15:31:05 GMT 35.508278 -94.753456 34,000 268 402 0
2021-10-21 15:31:02 GMT 35.508545 -94.747238 34,000 268 402 0
2021-10-21 15:30:57 GMT 35.509048 -94.734482 34,000 268 402 0
2021-10-21 15:30:53 GMT 35.509441 -94.724358 34,000 268 402 0
2021-10-21 15:30:48 GMT 35.509769 -94.716118 34,000 268 402 0
2021-10-21 15:30:45 GMT 35.510185 -94.706123 34,000 268 402 0
2021-10-21 15:30:40 GMT 35.510700 -94.693382 34,000 268 402 0
2021-10-21 15:30:35 GMT 35.511024 -94.685379 34,000 268 402 0
2021-10-21 15:30:32 GMT 35.511349 -94.676491 34,000 268 402 0
2021-10-21 15:30:24 GMT 35.512070 -94.658203 34,000 268 402 0
2021-10-21 15:30:21 GMT 35.512299 -94.652252 34,000 268 402 0
2021-10-21 15:30:15 GMT 35.512848 -94.638863 34,000 268 402 0
2021-10-21 15:30:11 GMT 35.513260 -94.628281 34,000 268 402 0
2021-10-21 15:30:04 GMT 35.513771 -94.615486 34,000 268 402 0
2021-10-21 15:30:00 GMT 35.514191 -94.604790 34,000 268 402 0
2021-10-21 15:29:53 GMT 35.514725 -94.590797 34,000 268 402 0
2021-10-21 15:29:50 GMT 35.515167 -94.580193 34,000 268 402 0
2021-10-21 15:29:44 GMT 35.515594 -94.568481 34,000 268 402 0
2021-10-21 15:29:39 GMT 35.516052 -94.557549 34,000 268 402 0
2021-10-21 15:29:34 GMT 35.516518 -94.544655 34,000 268 402 0
2021-10-21 15:29:29 GMT 35.516983 -94.532623 34,000 268 402 0
2021-10-21 15:29:21 GMT 35.517681 -94.515266 34,000 268 402 0
2021-10-21 15:29:17 GMT 35.517929 -94.508804 34,000 268 402 0
2021-10-21 15:29:13 GMT 35.518425 -94.496391 34,000 268 402 0
2021-10-21 15:29:08 GMT 35.518890 -94.483650 34,000 268 402 0
2021-10-21 15:29:00 GMT 35.519451 -94.469040 34,000 268 402 0
2021-10-21 15:28:57 GMT 35.519760 -94.461189 34,000 268 402 0
2021-10-21 15:28:51 GMT 35.520287 -94.447655 34,000 268 402 0
2021-10-21 15:28:47 GMT 35.520706 -94.436493 34,025 268 402 0
2021-10-21 15:28:41 GMT 35.521172 -94.424858 34,025 268 402 0
2021-10-21 15:28:36 GMT 35.521591 -94.413818 34,025 268 402 0
2021-10-21 15:28:29 GMT 35.522289 -94.395470 34,000 268 402 0
2021-10-21 15:28:26 GMT 35.522552 -94.388519 34,000 268 402 0
2021-10-21 15:28:21 GMT 35.522964 -94.377365 34,000 268 403 0
2021-10-21 15:28:18 GMT 35.523129 -94.372910 34,000 268 403 0
2021-10-21 15:28:15 GMT 35.523376 -94.365746 34,000 268 403 0
2021-10-21 15:28:08 GMT 35.523968 -94.350349 34,000 268 403 0
2021-10-21 15:28:05 GMT 35.524292 -94.341545 34,000 268 403 0
2021-10-21 15:27:58 GMT 35.525208 -94.316483 34,000 268 403 0
2021-10-21 15:27:53 GMT 35.525208 -94.316483 34,000 268 403 0
2021-10-21 15:27:48 GMT 35.525597 -94.305183 34,000 268 403 0
2021-10-21 15:27:44 GMT 35.526012 -94.293549 34,000 268 403 0
2021-10-21 15:27:39 GMT 35.526672 -94.275002 34,000 268 402 0
2021-10-21 15:27:36 GMT 35.526672 -94.275002 34,000 268 402 0
2021-10-21 15:27:32 GMT 35.526897 -94.268250 34,000 268 402 0
2021-10-21 15:27:28 GMT 35.527225 -94.259186 34,000 268 402 0
2021-10-21 15:27:24 GMT 35.527550 -94.249840 34,000 268 402 0
2021-10-21 15:27:18 GMT 35.528111 -94.234352 34,000 268 402 0
2021-10-21 15:27:15 GMT 35.528320 -94.229446 34,000 268 402 0
2021-10-21 15:27:12 GMT 35.528526 -94.222725 34,000 268 402 0
2021-10-21 15:27:06 GMT 35.529087 -94.207474 34,000 268 402 0
2021-10-21 15:27:03 GMT 35.529274 -94.202911 34,000 268 402 0
2021-10-21 15:26:57 GMT 35.529831 -94.186417 34,000 268 402 0
2021-10-21 15:26:51 GMT 35.530392 -94.171944 34,000 268 402 0
2021-10-21 15:26:48 GMT 35.530609 -94.165024 34,000 268 401 0
2021-10-21 15:26:45 GMT 35.530701 -94.162498 34,000 268 402 0
2021-10-21 15:26:42 GMT 35.531067 -94.152946 34,000 268 402 0
2021-10-21 15:26:36 GMT 35.531509 -94.139687 34,000 268 402 0
2021-10-21 15:26:31 GMT 35.531834 -94.130333 34,000 268 402 0
2021-10-21 15:26:23 GMT 35.532673 -94.107597 34,000 268 401 0
2021-10-21 15:26:14 GMT 35.533218 -94.091835 34,000 268 401 0
2021-10-21 15:26:10 GMT 35.533695 -94.078323 34,000 268 401 0
2021-10-21 15:26:05 GMT 35.534088 -94.067741 34,000 268 401 0
2021-10-21 15:26:02 GMT 35.534348 -94.060150 34,000 268 401 0
2021-10-21 15:25:58 GMT 35.534580 -94.054245 34,000 268 401 0
2021-10-21 15:25:54 GMT 35.534904 -94.044952 34,000 268 401 0
2021-10-21 15:25:51 GMT 35.535141 -94.037994 34,000 268 401 0
2021-10-21 15:25:44 GMT 35.535744 -94.020409 34,000 268 401 0
2021-10-21 15:25:41 GMT 35.535931 -94.014511 34,000 268 401 0
2021-10-21 15:25:31 GMT 35.536743 -93.991013 34,000 268 401 0
2021-10-21 15:25:23 GMT 35.537338 -93.973328 34,000 268 401 0
2021-10-21 15:25:20 GMT 35.537521 -93.967438 34,000 268 401 0
2021-10-21 15:25:10 GMT 35.538300 -93.944092 34,000 268 400 0
2021-10-21 15:25:01 GMT 35.538895 -93.925957 34,000 268 400 0
2021-10-21 15:24:58 GMT 35.539143 -93.918381 34,000 268 400 0
2021-10-21 15:24:52 GMT 35.539719 -93.901917 34,000 268 400 0
2021-10-21 15:24:48 GMT 35.539902 -93.896255 34,000 268 400 0
2021-10-21 15:24:41 GMT 35.540447 -93.879402 34,000 268 400 0
2021-10-21 15:24:38 GMT 35.540726 -93.871223 34,000 268 400 0
2021-10-21 15:24:31 GMT 35.541275 -93.855057 34,000 268 400 0
2021-10-21 15:24:27 GMT 35.541504 -93.848473 34,000 268 400 0
2021-10-21 15:24:18 GMT 35.542282 -93.825584 34,000 268 400 0
2021-10-21 15:24:09 GMT 35.542923 -93.805222 34,000 268 400 0
2021-10-21 15:24:05 GMT 35.543098 -93.798523 34,000 268 400 0
2021-10-21 15:23:59 GMT 35.543564 -93.784966 34,000 268 400 0
2021-10-21 15:23:56 GMT 35.543747 -93.778038 34,000 268 400 0
2021-10-21 15:23:46 GMT 35.544479 -93.755150 34,000 268 400 0
2021-10-21 15:23:39 GMT 35.545074 -93.737068 34,000 268 400 0
2021-10-21 15:23:35 GMT 35.545349 -93.729568 34,000 268 400 0
2021-10-21 15:23:25 GMT 35.546124 -93.706367 34,000 268 400 0
2021-10-21 15:23:18 GMT 35.546638 -93.690529 34,000 268 400 0
2021-10-21 15:23:15 GMT 35.546860 -93.683853 34,000 268 400 0
2021-10-21 15:23:06 GMT 35.547455 -93.665260 34,000 268 400 0
2021-10-21 15:23:03 GMT 35.547752 -93.656517 34,000 268 400 0
2021-10-21 15:22:54 GMT 35.548370 -93.637161 34,000 268 400 0
2021-10-21 15:22:46 GMT 35.548920 -93.619408 34,000 268 400 0
2021-10-21 15:22:42 GMT 35.549198 -93.611229 34,000 268 400 0
2021-10-21 15:22:39 GMT 35.549377 -93.604317 34,000 268 400 0
2021-10-21 15:22:34 GMT 35.549835 -93.589844 34,000 268 400 0
2021-10-21 15:22:26 GMT 35.550362 -93.572311 34,000 268 400 0
2021-10-21 15:22:15 GMT 35.551025 -93.548409 34,000 268 400 0
2021-10-21 15:22:12 GMT 35.551208 -93.541832 34,000 268 399 0
2021-10-21 15:22:05 GMT 35.551712 -93.524666 34,000 268 399 0
2021-10-21 15:22:02 GMT 35.551895 -93.519135 34,000 268 399 0
2021-10-21 15:21:54 GMT 35.552399 -93.501373 34,000 268 399 0
2021-10-21 15:21:51 GMT 35.552628 -93.494339 34,000 268 399 0
2021-10-21 15:21:42 GMT 35.553246 -93.472794 34,000 268 399 0
2021-10-21 15:21:38 GMT 35.553432 -93.466888 33,975 268 399 0
2021-10-21 15:21:31 GMT 35.553909 -93.449593 33,975 268 399 0
2021-10-21 15:21:27 GMT 35.554184 -93.440094 33,975 268 399 0
2021-10-21 15:21:23 GMT 35.554459 -93.430595 33,975 268 399 0
2021-10-21 15:21:17 GMT 35.554783 -93.419205 33,975 268 399 0
2021-10-21 15:21:11 GMT 35.555248 -93.404068 33,975 268 399 0
2021-10-21 15:21:02 GMT 35.555809 -93.383728 33,975 268 399 0
2021-10-21 15:20:52 GMT 35.556564 -93.359184 33,975 268 399 0
2021-10-21 15:20:49 GMT 35.557205 -93.336121 34,000 268 399 0
2021-10-21 15:20:41 GMT 35.557205 -93.336121 34,000 268 399 0
2021-10-21 15:20:31 GMT 35.557903 -93.314072 34,000 268 399 0
2021-10-21 15:20:29 GMT 35.558121 -93.306709 34,000 268 399 0
2021-10-21 15:20:20 GMT 35.558647 -93.289177 34,000 268 399 0
2021-10-21 15:20:16 GMT 35.558880 -93.280823 34,000 268 399 -64
2021-10-21 15:20:12 GMT 35.559174 -93.271919 34,000 268 399 -64
2021-10-21 15:20:09 GMT 35.559345 -93.265221 34,000 268 399 0
2021-10-21 15:20:05 GMT 35.559631 -93.256073 34,000 268 399 -64
2021-10-21 15:20:00 GMT 35.560043 -93.241364 34,000 268 399 -64
2021-10-21 15:19:57 GMT 35.560230 -93.235588 34,000 268 400 0
2021-10-21 15:19:54 GMT 35.560318 -93.231178 34,000 268 400 0
2021-10-21 15:19:49 GMT 35.560684 -93.218941 34,025 269 400 0
2021-10-21 15:19:45 GMT 35.560928 -93.208885 34,000 269 400 0
2021-10-21 15:19:39 GMT 35.561348 -93.194626 34,000 269 400 0
2021-10-21 15:19:36 GMT 35.561462 -93.190437 34,025 269 400 0
2021-10-21 15:19:27 GMT 35.562046 -93.168564 34,025 269 401 0
2021-10-21 15:19:23 GMT 35.562241 -93.161430 34,025 269 401 0
2021-10-21 15:19:17 GMT 35.562603 -93.147469 34,025 269 401 0
2021-10-21 15:19:14 GMT 35.562836 -93.138947 34,000 269 401 0
2021-10-21 15:19:07 GMT 35.563255 -93.124031 34,025 269 401 0
2021-10-21 15:19:04 GMT 35.563522 -93.114624 34,025 269 401 0
2021-10-21 15:18:55 GMT 35.564026 -93.095512 34,025 269 401 0
2021-10-21 15:18:50 GMT 35.564301 -93.086182 34,025 269 401 0
2021-10-21 15:18:45 GMT 35.564697 -93.070854 34,025 269 401 0
2021-10-21 15:18:42 GMT 35.564838 -93.065826 34,025 269 401 0
2021-10-21 15:18:36 GMT 35.565216 -93.052773 34,025 269 401 0
2021-10-21 15:18:32 GMT 35.565445 -93.044029 34,025 269 402 0
2021-10-21 15:18:26 GMT 35.565811 -93.028908 34,025 269 402 0
2021-10-21 15:18:21 GMT 35.566040 -93.020493 34,025 269 402 64
2021-10-21 15:18:15 GMT 35.566452 -93.005219 34,000 269 402 64
2021-10-21 15:18:11 GMT 35.566727 -92.995438 34,000 269 402 64
2021-10-21 15:18:04 GMT 35.567074 -92.981445 34,000 269 402 64
2021-10-21 15:17:59 GMT 35.567322 -92.970139 34,000 269 403 64
2021-10-21 15:17:53 GMT 35.567688 -92.955551 34,000 269 403 0
2021-10-21 15:17:50 GMT 35.567871 -92.948456 34,000 269 403 0
2021-10-21 15:17:41 GMT 35.568424 -92.925751 34,000 269 402 64
2021-10-21 15:17:34 GMT 35.568844 -92.909798 33,975 269 402 0
2021-10-21 15:17:22 GMT 35.569427 -92.885574 34,000 269 402 0
2021-10-21 15:17:18 GMT 35.569729 -92.872925 33,975 269 402 -64
2021-10-21 15:17:13 GMT 35.570023 -92.862740 34,000 269 402 0
2021-10-21 15:17:09 GMT 35.570206 -92.855247 34,000 269 402 0
2021-10-21 15:17:02 GMT 35.570660 -92.838509 34,000 269 402 0
2021-10-21 15:16:58 GMT 35.570843 -92.830559 34,000 269 402 -64
2021-10-21 15:16:55 GMT 35.571125 -92.820038 34,000 269 402 -64
2021-10-21 15:16:49 GMT 35.571449 -92.807999 34,000 269 402 0
2021-10-21 15:16:41 GMT 35.571915 -92.789764 34,025 269 402 -64
2021-10-21 15:16:38 GMT 35.572083 -92.784180 34,000 269 402 -64
2021-10-21 15:16:29 GMT 35.572567 -92.764694 34,025 269 402 0
2021-10-21 15:16:26 GMT 35.572704 -92.758331 34,025 269 402 0
2021-10-21 15:16:23 GMT 35.572891 -92.750381 34,025 269 402 0
2021-10-21 15:16:18 GMT 35.573219 -92.736473 34,025 269 402 0
2021-10-21 15:16:13 GMT 35.573456 -92.726784 34,025 269 402 64
2021-10-21 15:16:10 GMT 35.573547 -92.720604 34,025 269 402 64
2021-10-21 15:16:04 GMT 35.573914 -92.705383 34,000 269 402 64
2021-10-21 15:15:57 GMT 35.574280 -92.688957 34,000 269 402 64
2021-10-21 15:15:49 GMT 35.574692 -92.670708 34,000 269 402 64
2021-10-21 15:15:46 GMT 35.574802 -92.665352 33,975 269 402 64
2021-10-21 15:15:42 GMT 35.574966 -92.657265 33,975 269 402 64
2021-10-21 15:15:37 GMT 35.575268 -92.644608 33,975 269 402 0
2021-10-21 15:15:33 GMT 35.575516 -92.634712 33,975 269 402 0
2021-10-21 15:15:26 GMT 35.575928 -92.617378 33,975 269 402 0
2021-10-21 15:15:15 GMT 35.576431 -92.595520 33,975 269 402 0
2021-10-21 15:15:08 GMT 35.576843 -92.576920 33,975 269 401 0
2021-10-21 15:15:04 GMT 35.576935 -92.571655 33,975 269 401 0
2021-10-21 15:14:57 GMT 35.577347 -92.554382 33,975 269 401 0
2021-10-21 15:14:54 GMT 35.577530 -92.546196 33,975 269 401 0
2021-10-21 15:14:47 GMT 35.577896 -92.530060 33,975 269 401 -64
2021-10-21 15:14:43 GMT 35.578014 -92.523643 33,975 269 401 -64
2021-10-21 15:14:34 GMT 35.578480 -92.500671 33,975 269 400 0
2021-10-21 15:14:25 GMT 35.578899 -92.482559 34,000 269 400 0
2021-10-21 15:14:22 GMT 35.579041 -92.475868 34,000 269 400 0
2021-10-21 15:14:19 GMT 35.579178 -92.467232 34,000 269 400 0
2021-10-21 15:14:15 GMT 35.579365 -92.459656 34,000 269 400 -64
2021-10-21 15:14:12 GMT 35.579456 -92.453751 34,000 269 400 -64
2021-10-21 15:14:09 GMT 35.579643 -92.445564 34,000 269 400 -64
2021-10-21 15:14:02 GMT 35.579956 -92.428665 34,000 269 400 -64
2021-10-21 15:13:59 GMT 35.580093 -92.421860 34,000 269 400 -64
2021-10-21 15:13:55 GMT 35.580322 -92.412354 34,000 269 400 -64
2021-10-21 15:13:52 GMT 35.580414 -92.406464 34,000 269 400 -64
2021-10-21 15:13:48 GMT 35.580597 -92.398514 34,000 269 400 0
2021-10-21 15:13:42 GMT 35.580917 -92.383743 34,025 269 400 0
2021-10-21 15:13:38 GMT 35.581085 -92.375031 34,025 269 400 0
2021-10-21 15:13:32 GMT 35.581421 -92.358803 34,025 269 401 0
2021-10-21 15:13:27 GMT 35.581650 -92.348557 34,025 269 401 0
2021-10-21 15:13:23 GMT 35.581833 -92.340729 34,025 269 401 0
2021-10-21 15:13:20 GMT 35.581924 -92.335297 34,025 269 401 -64
2021-10-21 15:13:11 GMT 35.582382 -92.312447 34,025 269 402 0
2021-10-21 15:13:00 GMT 35.582901 -92.289070 34,025 269 402 0
2021-10-21 15:12:49 GMT 35.583435 -92.264153 34,025 269 402 64
2021-10-21 15:12:40 GMT 35.583923 -92.241913 34,025 269 403 0
2021-10-21 15:12:29 GMT 35.584484 -92.217957 41,800 269 403 0
2021-10-21 15:12:21 GMT 35.584904 -92.197853 34,025 269 403 0
2021-10-21 15:12:18 GMT 35.584949 -92.194405 34,000 269 403 0
2021-10-21 15:12:09 GMT 35.585403 -92.170998 34,000 269 403 0
2021-10-21 15:11:57 GMT 35.585861 -92.146400 34,000 269 403 0
2021-10-21 15:11:48 GMT 35.586254 -92.123695 34,000 269 402 0
2021-10-21 15:11:37 GMT 35.586624 -92.099503 34,000 269 402 0
2021-10-21 15:11:29 GMT 35.586998 -92.078987 34,000 269 402 0
2021-10-21 15:11:26 GMT 35.587090 -92.074196 34,000 269 402 0
2021-10-21 15:11:17 GMT 35.587509 -92.052574 34,000 269 402 0
2021-10-21 15:11:06 GMT 35.587929 -92.028610 34,000 269 402 0
2021-10-21 15:10:56 GMT 35.588303 -92.005646 34,000 269 402 0
2021-10-21 15:10:46 GMT 35.588718 -91.981049 34,000 269 402 0
2021-10-21 15:10:40 GMT 35.588974 -91.967926 34,000 269 402 0
2021-10-21 15:10:35 GMT 35.589138 -91.957848 34,000 269 401 0
2021-10-21 15:10:28 GMT 35.589432 -91.941605 34,000 269 401 0
2021-10-21 15:10:24 GMT 35.589558 -91.933945 34,000 269 401 0
2021-10-21 15:10:14 GMT 35.589981 -91.910019 34,000 269 401 0
2021-10-21 15:10:04 GMT 35.590393 -91.887299 34,000 269 401 64
2021-10-21 15:09:54 GMT 35.590805 -91.862526 34,000 269 401 0
2021-10-21 15:09:43 GMT 35.591171 -91.839806 34,000 269 401 0
2021-10-21 15:09:32 GMT 35.591606 -91.815201 34,000 269 400 0
2021-10-21 15:09:23 GMT 35.591995 -91.792892 34,000 269 400 0
2021-10-21 15:09:11 GMT 35.592361 -91.768852 34,000 269 400 0
2021-10-21 15:09:01 GMT 35.592728 -91.746368 34,000 269 400 0
2021-10-21 15:08:54 GMT 35.593048 -91.726311 33,975 269 400 0
2021-10-21 15:08:50 GMT 35.593143 -91.721344 33,975 269 400 0
2021-10-21 15:08:44 GMT 35.593376 -91.706154 34,000 269 400 0
2021-10-21 15:08:41 GMT 35.593460 -91.699280 33,975 269 400 0
2021-10-21 15:08:31 GMT 35.594120 -91.652451 34,000 269 400 0
2021-10-21 15:08:20 GMT 35.594120 -91.652451 34,000 269 400 0
2021-10-21 15:08:10 GMT 35.594727 -91.605118 34,000 270 400 -64
2021-10-21 15:08:00 GMT 35.594727 -91.605118 34,000 269 399 0
2021-10-21 15:07:49 GMT 35.595051 -91.582031 34,000 269 399 0
2021-10-21 15:07:42 GMT 35.595329 -91.565727 34,000 269 399 0
2021-10-21 15:07:38 GMT 35.595470 -91.556023 34,000 269 399 0
2021-10-21 15:07:29 GMT 35.595749 -91.534653 34,000 269 399 0
2021-10-21 15:07:26 GMT 35.595840 -91.527840 34,000 269 399 0
2021-10-21 15:07:18 GMT 35.596069 -91.510902 34,000 269 399 0
2021-10-21 15:07:15 GMT 35.596207 -91.504097 34,000 269 399 0
2021-10-21 15:07:11 GMT 35.596310 -91.495369 34,000 269 399 0
2021-10-21 15:07:08 GMT 35.596497 -91.481575 34,000 270 400 0
2021-10-21 15:07:05 GMT 35.596497 -91.481575 34,000 270 400 0
2021-10-21 15:07:01 GMT 35.596619 -91.472626 34,000 270 400 0
2021-10-21 15:06:57 GMT 35.596710 -91.463814 34,000 270 400 0
2021-10-21 15:06:50 GMT 35.596939 -91.445213 34,000 270 400 0
2021-10-21 15:06:46 GMT 35.596985 -91.440697 34,000 270 400 0
2021-10-21 15:06:37 GMT 35.597286 -91.416771 34,000 270 400 0
2021-10-21 15:06:29 GMT 35.597519 -91.399063 34,000 270 400 0
2021-10-21 15:06:25 GMT 35.597565 -91.392929 34,000 270 400 0
2021-10-21 15:06:20 GMT 35.597717 -91.379242 34,000 270 400 0
2021-10-21 15:06:16 GMT 35.597843 -91.369781 34,000 270 400 0
2021-10-21 15:06:09 GMT 35.598038 -91.355148 34,000 270 401 0
2021-10-21 15:06:05 GMT 35.598129 -91.346283 34,000 270 401 0
2021-10-21 15:05:57 GMT 35.598358 -91.328140 34,000 270 401 0
2021-10-21 15:05:54 GMT 35.598404 -91.322708 34,000 270 401 0
2021-10-21 15:05:50 GMT 35.598541 -91.310921 34,000 270 401 0
2021-10-21 15:05:47 GMT 35.598633 -91.303368 34,000 270 401 0
2021-10-21 15:05:43 GMT 35.598728 -91.295799 34,000 270 401 0
2021-10-21 15:05:36 GMT 35.598907 -91.279282 34,000 270 401 0
2021-10-21 15:05:33 GMT 35.598961 -91.274651 34,000 270 401 0
2021-10-21 15:05:27 GMT 35.599136 -91.260223 34,000 270 401 0
2021-10-21 15:05:24 GMT 35.599274 -91.252274 34,000 270 401 0
2021-10-21 15:05:21 GMT 35.599335 -91.246010 34,000 270 401 0
2021-10-21 15:05:18 GMT 35.599457 -91.237679 34,000 270 401 0
2021-10-21 15:05:13 GMT 35.599548 -91.227722 34,000 270 401 0
2021-10-21 15:05:10 GMT 35.599640 -91.220856 34,000 270 401 0
2021-10-21 15:05:05 GMT 35.599800 -91.208733 34,000 270 401 0
2021-10-21 15:05:02 GMT 35.599869 -91.200424 34,000 270 401 0
2021-10-21 15:04:58 GMT 35.599960 -91.194763 34,000 270 401 0
2021-10-21 15:04:52 GMT 35.600098 -91.180176 34,000 270 401 0
2021-10-21 15:04:49 GMT 35.600170 -91.174423 34,000 270 401 0
2021-10-21 15:04:43 GMT 35.600327 -91.158371 34,000 270 401 0
2021-10-21 15:04:40 GMT 35.600407 -91.150055 34,000 270 401 0
2021-10-21 15:04:32 GMT 35.600555 -91.133141 34,000 270 402 0
2021-10-21 15:04:29 GMT 35.600639 -91.127090 34,000 270 402 0
2021-10-21 15:04:25 GMT 35.600693 -91.120377 34,000 270 402 0
2021-10-21 15:04:22 GMT 35.600784 -91.110359 34,000 270 402 0
2021-10-21 15:04:19 GMT 35.600876 -91.103783 34,000 270 402 0
2021-10-21 15:04:16 GMT 35.600918 -91.095474 34,000 270 402 0
2021-10-21 15:04:11 GMT 35.601151 -91.073387 34,000 270 402 0
2021-10-21 15:04:05 GMT 35.601151 -91.073387 34,025 270 402 0
2021-10-21 15:04:02 GMT 35.601242 -91.064590 34,000 270 402 0
2021-10-21 15:03:58 GMT 35.601334 -91.054344 34,000 270 402 0
2021-10-21 15:03:54 GMT 35.601383 -91.049484 34,025 270 402 0
2021-10-21 15:03:51 GMT 35.601471 -91.039581 34,025 270 402 0
2021-10-21 15:03:45 GMT 35.601616 -91.025818 34,025 270 402 0
2021-10-21 15:03:40 GMT 35.601707 -91.016701 34,025 270 402 0
2021-10-21 15:03:37 GMT 35.601753 -91.008286 34,025 270 402 0
2021-10-21 15:03:34 GMT 35.601849 -91.002563 34,025 270 402 0
2021-10-21 15:03:27 GMT 35.601990 -90.987312 34,025 270 402 0
2021-10-21 15:03:24 GMT 35.602066 -90.979218 34,025 270 402 0
2021-10-21 15:03:20 GMT 35.602127 -90.969307 34,025 270 402 0
2021-10-21 15:03:14 GMT 35.602249 -90.955238 34,025 270 402 0
2021-10-21 15:03:09 GMT 35.602314 -90.945587 34,025 270 402 0
2021-10-21 15:03:05 GMT 35.602406 -90.936699 34,025 270 402 0
2021-10-21 15:03:02 GMT 35.602478 -90.931091 34,025 270 402 0
2021-10-21 15:02:59 GMT 35.602570 -90.920624 34,025 270 403 0
2021-10-21 15:02:55 GMT 35.602661 -90.911697 34,025 270 403 0
2021-10-21 15:02:52 GMT 35.602688 -90.908180 34,025 270 403 0
2021-10-21 15:02:47 GMT 35.602825 -90.896790 34,025 270 403 0
2021-10-21 15:02:43 GMT 35.602921 -90.884460 34,025 270 403 0
2021-10-21 15:02:38 GMT 35.603012 -90.873299 34,025 270 402 64
2021-10-21 15:02:32 GMT 35.603119 -90.861282 34,000 270 402 64
2021-10-21 15:02:27 GMT 35.603199 -90.849808 34,000 270 402 64
2021-10-21 15:02:21 GMT 35.603302 -90.837135 34,000 270 402 64
2021-10-21 15:02:17 GMT 35.603432 -90.825378 34,000 270 402 0
2021-10-21 15:02:11 GMT 35.603531 -90.812531 34,000 270 402 0
2021-10-21 15:02:06 GMT 35.603619 -90.801712 34,000 270 401 0
2021-10-21 15:02:00 GMT 35.603760 -90.789070 34,000 270 401 0
2021-10-21 15:01:56 GMT 35.603851 -90.777344 34,000 270 401 0
2021-10-21 15:01:50 GMT 35.603943 -90.766579 34,000 270 401 0
2021-10-21 15:01:45 GMT 35.604034 -90.753654 34,000 270 401 0
2021-10-21 15:01:40 GMT 35.604130 -90.742630 33,975 270 400 0
2021-10-21 15:01:35 GMT 35.604218 -90.730019 34,000 270 400 0
2021-10-21 15:01:30 GMT 35.604263 -90.719147 34,000 270 400 0
2021-10-21 15:01:23 GMT 35.604355 -90.705528 34,000 270 400 0
2021-10-21 15:01:20 GMT 35.604446 -90.695114 34,000 270 400 0
2021-10-21 15:01:14 GMT 35.604492 -90.682182 34,000 270 400 -64
2021-10-21 15:01:08 GMT 35.604549 -90.671455 34,000 270 399 0
2021-10-21 15:01:05 GMT 35.604595 -90.661926 34,000 270 399 0
2021-10-21 15:01:02 GMT 35.604641 -90.658066 34,000 270 399 0
2021-10-21 15:00:58 GMT 35.604721 -90.646873 34,000 270 399 64
2021-10-21 15:00:53 GMT 35.604813 -90.634460 34,000 270 399 64
2021-10-21 15:00:47 GMT 35.604858 -90.622269 34,000 270 399 0
2021-10-21 15:00:41 GMT 35.604919 -90.610855 34,000 270 399 0
2021-10-21 15:00:38 GMT 35.604996 -90.600533 34,000 270 399 0
2021-10-21 15:00:32 GMT 35.605106 -90.587303 34,000 270 399 0
2021-10-21 15:00:27 GMT 35.605152 -90.577133 34,000 270 399 0
2021-10-21 15:00:23 GMT 35.605202 -90.568718 34,000 270 399 0
2021-10-21 15:00:19 GMT 35.605270 -90.559563 34,000 270 400 0
2021-10-21 15:00:16 GMT 35.605316 -90.550751 33,975 270 400 0
2021-10-21 15:00:12 GMT 35.605362 -90.544853 34,000 270 400 0
2021-10-21 15:00:09 GMT 35.605408 -90.535583 34,000 270 400 0
2021-10-21 15:00:05 GMT 35.605453 -90.529228 34,000 270 400 0
2021-10-21 15:00:02 GMT 35.605480 -90.521561 34,000 270 400 0
2021-10-21 14:59:59 GMT 35.605526 -90.514374 34,000 270 400 0
2021-10-21 14:59:56 GMT 35.605591 -90.504974 34,000 270 399 0
2021-10-21 14:59:51 GMT 35.605637 -90.497070 34,000 270 399 0
2021-10-21 14:59:48 GMT 35.605682 -90.487801 33,975 270 399 0
2021-10-21 14:59:42 GMT 35.605713 -90.474808 33,975 270 399 0
2021-10-21 14:59:38 GMT 35.605774 -90.467438 34,000 270 399 0
2021-10-21 14:59:35 GMT 35.605804 -90.457565 33,975 270 399 0
2021-10-21 14:59:32 GMT 35.605865 -90.444145 33,975 270 399 0
2021-10-21 14:59:29 GMT 35.605865 -90.444145 33,975 270 399 0
2021-10-21 14:59:23 GMT 35.605946 -90.433846 34,000 270 399 0
2021-10-21 14:59:18 GMT 35.605991 -90.420929 34,000 270 399 0
2021-10-21 14:59:14 GMT 35.606037 -90.410759 34,000 270 399 0
2021-10-21 14:59:11 GMT 35.606094 -90.403633 34,000 270 400 0
2021-10-21 14:59:08 GMT 35.606140 -90.396591 34,000 270 400 0
2021-10-21 14:59:03 GMT 35.606178 -90.386742 34,000 270 400 0
2021-10-21 14:58:59 GMT 35.606224 -90.378792 34,000 270 400 0
2021-10-21 14:58:56 GMT 35.606224 -90.372719 34,000 270 400 0
2021-10-21 14:58:53 GMT 35.606270 -90.363190 34,000 270 400 0
2021-10-21 14:58:49 GMT 35.606316 -90.356415 34,000 270 400 0
2021-10-21 14:58:45 GMT 35.606369 -90.345207 34,000 270 400 0
2021-10-21 14:58:42 GMT 35.606415 -90.332970 34,000 270 400 0
2021-10-21 14:58:39 GMT 35.606415 -90.332970 33,975 270 400 0
2021-10-21 14:58:35 GMT 35.606457 -90.324913 34,000 270 400 0
2021-10-21 14:58:32 GMT 35.606457 -90.314690 34,000 270 400 -64
2021-10-21 14:58:29 GMT 35.606503 -90.309952 34,000 270 400 -64
2021-10-21 14:58:23 GMT 35.606552 -90.296684 34,000 270 400 -64
2021-10-21 14:58:19 GMT 35.606548 -90.286346 34,000 270 400 -64
2021-10-21 14:58:14 GMT 35.606598 -90.274773 34,000 270 400 0
2021-10-21 14:58:11 GMT 35.606644 -90.267853 34,000 270 400 0
2021-10-21 14:58:07 GMT 35.606644 -90.262093 34,000 270 400 0
2021-10-21 14:58:03 GMT 35.606689 -90.250854 34,000 270 400 0
2021-10-21 14:57:58 GMT 35.606735 -90.239594 34,000 270 400 0
2021-10-21 14:57:53 GMT 35.606735 -90.228256 34,000 270 400 0
2021-10-21 14:57:48 GMT 35.606785 -90.215576 34,000 270 401 0
2021-10-21 14:57:43 GMT 35.606831 -90.206230 34,000 270 401 0
2021-10-21 14:57:40 GMT 35.606827 -90.196838 34,000 270 401 0
2021-10-21 14:57:36 GMT 35.606873 -90.191574 34,000 270 401 0
2021-10-21 14:57:31 GMT 35.606876 -90.178993 34,000 270 401 0
2021-10-21 14:57:27 GMT 35.606918 -90.168633 34,000 270 402 0
2021-10-21 14:57:22 GMT 35.606964 -90.149284 34,000 270 402 0
2021-10-21 14:57:19 GMT 35.606964 -90.149284 34,000 270 402 0
2021-10-21 14:57:15 GMT 35.606968 -90.143700 34,000 270 402 0
2021-10-21 14:57:11 GMT 35.606968 -90.133179 34,000 270 402 0
2021-10-21 14:57:06 GMT 35.606968 -90.121315 34,000 270 402 0
2021-10-21 14:57:01 GMT 35.607014 -90.109688 34,000 270 403 64
2021-10-21 14:56:58 GMT 35.607010 -90.101166 34,000 270 403 64
2021-10-21 14:56:55 GMT 35.607014 -90.095078 34,000 270 403 64
2021-10-21 14:56:50 GMT 35.607014 -90.085960 34,000 270 403 64
2021-10-21 14:56:44 GMT 35.607056 -90.072617 34,000 270 404 0
2021-10-21 14:56:40 GMT 35.607063 -90.062408 34,000 270 404 -64
2021-10-21 14:56:37 GMT 35.607056 -90.054527 34,000 270 404 -64
2021-10-21 14:56:34 GMT 35.607101 -90.046288 34,000 270 404 -64
2021-10-21 14:56:27 GMT 35.607109 -90.032608 34,000 270 404 -64
2021-10-21 14:56:24 GMT 35.607109 -90.025772 34,000 270 404 -64
2021-10-21 14:56:19 GMT 35.607109 -90.013382 34,025 270 404 -64
2021-10-21 14:56:16 GMT 35.607147 -90.005493 34,025 270 404 0
2021-10-21 14:56:13 GMT 35.607147 -90.002060 34,025 270 404 0
2021-10-21 14:56:07 GMT 35.607147 -89.986671 34,025 270 405 0
2021-10-21 14:56:03 GMT 35.607147 -89.977966 34,025 270 405 0
2021-10-21 14:55:57 GMT 35.607155 -89.963593 34,025 270 405 0
2021-10-21 14:55:53 GMT 35.607155 -89.954185 34,025 270 405 0
2021-10-21 14:55:49 GMT 35.607193 -89.943977 34,025 270 405 0
2021-10-21 14:55:46 GMT 35.607155 -89.939987 34,025 270 405 64
2021-10-21 14:55:43 GMT 35.607155 -89.930344 34,025 270 406 0
2021-10-21 14:55:37 GMT 35.607155 -89.916489 34,025 270 406 64
2021-10-21 14:55:31 GMT 35.607193 -89.905586 34,000 270 406 64
2021-10-21 14:55:26 GMT 35.607201 -89.892357 34,000 270 407 0
2021-10-21 14:55:22 GMT 35.607201 -89.881485 34,000 270 407 0
2021-10-21 14:55:16 GMT 35.607239 -89.867989 34,025 270 407 -64
2021-10-21 14:55:11 GMT 35.607239 -89.857407 34,025 270 407 0
2021-10-21 14:55:07 GMT 35.607239 -89.849342 34,025 270 407 0
2021-10-21 14:55:03 GMT 35.607239 -89.837318 34,025 270 407 0
2021-10-21 14:55:00 GMT 35.607239 -89.833885 34,025 270 407 0
2021-10-21 14:54:55 GMT 35.607246 -89.819664 34,000 270 407 64
2021-10-21 14:54:51 GMT 35.607246 -89.810249 34,000 270 407 64
2021-10-21 14:54:47 GMT 35.607239 -89.800186 34,000 270 407 64
2021-10-21 14:54:44 GMT 35.607246 -89.795464 34,000 270 407 64
2021-10-21 14:54:40 GMT 35.607246 -89.786003 34,000 270 407 0
2021-10-21 14:54:34 GMT 35.607239 -89.770660 34,000 270 408 0
2021-10-21 14:54:30 GMT 35.607246 -89.761513 34,000 270 408 0
2021-10-21 14:54:23 GMT 35.607201 -89.746727 34,000 271 408 0
2021-10-21 14:54:19 GMT 35.607201 -89.738197 34,000 271 408 0
2021-10-21 14:54:13 GMT 35.607193 -89.721909 34,000 271 408 0
2021-10-21 14:54:09 GMT 35.607193 -89.714294 34,000 271 408 0
2021-10-21 14:54:02 GMT 35.607147 -89.696732 34,000 271 408 0
2021-10-21 14:53:59 GMT 35.607109 -89.689461 34,000 271 408 0
2021-10-21 14:53:54 GMT 35.607109 -89.681160 34,000 271 408 0
2021-10-21 14:53:51 GMT 35.607109 -89.673271 34,000 271 408 0
2021-10-21 14:53:48 GMT 35.607063 -89.666374 34,000 271 408 0
2021-10-21 14:53:44 GMT 35.607056 -89.655647 34,000 271 408 0
2021-10-21 14:53:41 GMT 35.607056 -89.649178 34,000 271 408 0
2021-10-21 14:53:38 GMT 35.607014 -89.641426 34,000 271 408 0
2021-10-21 14:53:33 GMT 35.607014 -89.631721 34,000 271 408 0
2021-10-21 14:53:27 GMT 35.606968 -89.617638 34,000 271 408 0
2021-10-21 14:53:23 GMT 35.606918 -89.608040 34,000 271 408 0
2021-10-21 14:53:20 GMT 35.606922 -89.599113 34,025 271 408 0
2021-10-21 14:53:16 GMT 35.606922 -89.593567 34,000 271 408 0
2021-10-21 14:53:12 GMT 35.606876 -89.583862 34,000 271 408 0
2021-10-21 14:53:07 GMT 35.606876 -89.569313 34,000 271 408 0
2021-10-21 14:53:03 GMT 35.606831 -89.560959 34,000 271 408 0
2021-10-21 14:52:59 GMT 35.606831 -89.551720 34,000 271 408 0
2021-10-21 14:52:55 GMT 35.606827 -89.545097 34,000 271 408 0
2021-10-21 14:52:51 GMT 35.606785 -89.536240 34,000 271 408 0
2021-10-21 14:52:46 GMT 35.606735 -89.513626 34,000 271 409 0
2021-10-21 14:52:42 GMT 35.606735 -89.513626 34,000 271 409 0
2021-10-21 14:52:36 GMT 35.606689 -89.497665 34,000 271 409 0
2021-10-21 14:52:32 GMT 35.606644 -89.489304 34,000 271 409 0
2021-10-21 14:52:27 GMT 35.606598 -89.478439 34,000 271 409 0
2021-10-21 14:52:24 GMT 35.606598 -89.472542 34,000 271 409 0
2021-10-21 14:52:21 GMT 35.606552 -89.464760 34,000 271 409 0
2021-10-21 14:52:17 GMT 35.606503 -89.453957 34,000 271 409 0
2021-10-21 14:52:14 GMT 35.606506 -89.448509 34,000 271 409 0
2021-10-21 14:52:11 GMT 35.606461 -89.441360 34,000 271 409 0
2021-10-21 14:52:04 GMT 35.606411 -89.424973 34,000 271 409 0
2021-10-21 14:52:00 GMT 35.606411 -89.417313 34,000 271 409 0
2021-10-21 14:51:54 GMT 35.606323 -89.400955 34,000 271 409 0
2021-10-21 14:51:51 GMT 35.606316 -89.393646 34,000 271 409 0
2021-10-21 14:51:44 GMT 35.606277 -89.377556 34,000 271 410 0
2021-10-21 14:51:40 GMT 35.606224 -89.370445 34,000 271 410 0
2021-10-21 14:51:33 GMT 35.606133 -89.351868 34,000 271 410 64
2021-10-21 14:51:30 GMT 35.606094 -89.346428 34,000 271 410 0
2021-10-21 14:51:22 GMT 35.606037 -89.328430 34,000 271 410 0
2021-10-21 14:51:17 GMT 35.605991 -89.315163 34,000 271 410 0
2021-10-21 14:51:12 GMT 35.605900 -89.302895 34,000 271 410 0
2021-10-21 14:51:09 GMT 35.605900 -89.298454 34,000 271 410 0
2021-10-21 14:51:02 GMT 35.605820 -89.280457 34,000 271 410 0
2021-10-21 14:50:59 GMT 35.605774 -89.275070 34,000 271 410 0
2021-10-21 14:50:52 GMT 35.605713 -89.258484 34,000 271 410 0
2021-10-21 14:50:49 GMT 35.605663 -89.249657 34,000 271 410 0
2021-10-21 14:50:41 GMT 35.605545 -89.231361 34,000 271 411 0
2021-10-21 14:50:38 GMT 35.605499 -89.226494 34,000 271 411 0
2021-10-21 14:50:32 GMT 35.605385 -89.210503 34,000 271 412 -64
2021-10-21 14:50:27 GMT 35.605339 -89.201859 34,000 271 412 -64
2021-10-21 14:50:21 GMT 35.605247 -89.185722 34,000 271 413 0
2021-10-21 14:50:18 GMT 35.605179 -89.179054 34,000 271 413 64
2021-10-21 14:50:10 GMT 35.605061 -89.158142 34,000 271 413 64
2021-10-21 14:50:07 GMT 35.605015 -89.153465 34,000 271 413 64
2021-10-21 14:50:01 GMT 35.604904 -89.137856 34,000 271 414 0
2021-10-21 14:49:56 GMT 35.604858 -89.127335 34,000 271 414 0
2021-10-21 14:49:49 GMT 35.604733 -89.110344 34,000 271 414 0
2021-10-21 14:49:46 GMT 35.604687 -89.103035 34,000 271 414 0
2021-10-21 14:49:40 GMT 35.604630 -89.088882 34,000 271 413 0
2021-10-21 14:49:36 GMT 35.604584 -89.080696 34,000 271 413 0
2021-10-21 14:49:29 GMT 35.604446 -89.061470 34,000 271 413 0
2021-10-21 14:49:25 GMT 35.604401 -89.055634 34,000 271 413 0
2021-10-21 14:49:19 GMT 35.604317 -89.040504 34,000 271 413 -64
2021-10-21 14:49:16 GMT 35.604267 -89.032326 34,000 271 413 0
2021-10-21 14:49:05 GMT 35.604126 -89.008369 34,000 271 412 64
2021-10-21 14:48:57 GMT 35.603943 -88.989784 33,975 271 412 0
2021-10-21 14:48:54 GMT 35.603897 -88.983940 34,000 271 412 0
2021-10-21 14:48:46 GMT 35.603664 -88.963135 34,000 271 412 0
2021-10-21 14:48:43 GMT 35.603619 -88.957291 34,000 271 412 0
2021-10-21 14:48:37 GMT 35.603485 -88.942741 34,000 271 412 0
2021-10-21 14:48:33 GMT 35.603432 -88.934441 34,000 270 412 0
2021-10-21 14:48:27 GMT 35.603668 -88.918877 34,000 269 412 0
2021-10-21 14:48:23 GMT 35.603943 -88.910233 34,000 268 411 0
2021-10-21 14:48:17 GMT 35.604733 -88.894531 34,000 266 412 0
2021-10-21 14:48:12 GMT 35.605385 -88.884537 34,000 265 411 0
2021-10-21 14:48:06 GMT 35.606461 -88.870697 34,000 265 412 0
2021-10-21 14:48:02 GMT 35.607147 -88.862572 34,000 265 412 0
2021-10-21 14:47:58 GMT 35.608154 -88.850037 34,000 265 412 0
2021-10-21 14:47:55 GMT 35.608429 -88.846550 34,000 265 412 0
2021-10-21 14:47:52 GMT 35.609112 -88.838081 34,000 265 412 0
2021-10-21 14:47:48 GMT 35.609848 -88.828873 34,000 265 412 0
2021-10-21 14:47:41 GMT 35.611176 -88.812843 34,000 265 412 0
2021-10-21 14:47:35 GMT 35.612320 -88.798653 34,000 265 412 0
2021-10-21 14:47:31 GMT 35.613068 -88.789520 34,000 265 412 0
2021-10-21 14:47:27 GMT 35.613907 -88.778824 34,000 265 412 0
2021-10-21 14:47:24 GMT 35.614277 -88.774147 34,000 265 412 0
2021-10-21 14:47:21 GMT 35.614975 -88.765869 34,000 265 412 0
2021-10-21 14:47:14 GMT 35.616394 -88.747726 34,000 265 412 0
2021-10-21 14:47:11 GMT 35.616791 -88.742706 34,000 265 412 0
2021-10-21 14:47:04 GMT 35.618141 -88.726227 34,000 265 412 0
2021-10-21 14:47:00 GMT 35.618698 -88.718979 34,000 265 412 -64
2021-10-21 14:46:54 GMT 35.620102 -88.701614 34,000 265 412 0
2021-10-21 14:46:50 GMT 35.620651 -88.694633 34,025 265 412 -64
2021-10-21 14:46:46 GMT 35.621494 -88.683800 34,025 265 412 -64
2021-10-21 14:46:43 GMT 35.622025 -88.677177 34,025 265 414 0
2021-10-21 14:46:40 GMT 35.622749 -88.668198 34,025 265 413 -64
2021-10-21 14:46:35 GMT 35.623730 -88.656044 34,025 265 413 -64
2021-10-21 14:46:31 GMT 35.624146 -88.650665 34,025 265 413 -64
2021-10-21 14:46:29 GMT 35.624474 -88.646225 34,025 265 413 -64
2021-10-21 14:46:26 GMT 35.625217 -88.636879 34,025 265 413 -64
2021-10-21 14:46:23 GMT 35.625870 -88.628693 34,025 265 413 -64
2021-10-21 14:46:19 GMT 35.626568 -88.620102 34,025 265 413 -64
2021-10-21 14:46:12 GMT 35.627701 -88.605247 34,025 265 414 0
2021-10-21 14:46:09 GMT 35.628342 -88.597069 34,050 265 414 0
2021-10-21 14:46:03 GMT 35.629452 -88.583351 34,025 265 414 0
2021-10-21 14:45:58 GMT 35.630337 -88.571663 34,025 265 414 0
2021-10-21 14:45:55 GMT 35.630859 -88.564735 34,025 265 414 0
2021-10-21 14:45:51 GMT 35.631546 -88.556328 34,025 265 414 0
2021-10-21 14:45:48 GMT 35.632248 -88.547295 34,025 265 415 0
2021-10-21 14:45:44 GMT 35.633240 -88.534065 34,025 265 415 0
2021-10-21 14:45:41 GMT 35.633423 -88.531952 34,025 265 415 0
2021-10-21 14:45:38 GMT 35.633881 -88.525826 34,025 265 415 64
2021-10-21 14:45:35 GMT 35.634621 -88.516785 34,025 265 415 64
2021-10-21 14:45:28 GMT 35.635712 -88.502602 34,025 265 415 64
2021-10-21 14:45:24 GMT 35.636578 -88.491714 34,025 265 415 64
2021-10-21 14:45:18 GMT 35.637543 -88.478912 34,025 265 415 64
2021-10-21 14:45:16 GMT 35.637817 -88.475365 34,000 265 415 64
2021-10-21 14:45:13 GMT 35.638577 -88.465889 34,000 265 415 64
2021-10-21 14:45:09 GMT 35.639694 -88.451675 34,000 265 415 0
2021-10-21 14:45:06 GMT 35.639694 -88.451675 34,000 265 415 0
2021-10-21 14:45:03 GMT 35.640488 -88.441231 34,000 265 415 64
2021-10-21 14:44:58 GMT 35.641434 -88.429413 34,000 265 414 0
2021-10-21 14:44:54 GMT 35.642071 -88.421127 34,000 265 414 0
2021-10-21 14:44:49 GMT 35.642899 -88.410187 34,000 265 414 0
2021-10-21 14:44:47 GMT 35.643417 -88.403534 34,000 265 414 0
2021-10-21 14:44:41 GMT 35.644547 -88.389130 34,000 265 413 0
2021-10-21 14:44:38 GMT 35.645233 -88.379974 34,000 265 414 0
2021-10-21 14:44:36 GMT 35.645233 -88.379974 34,000 265 414 0
2021-10-21 14:44:33 GMT 35.645748 -88.373085 34,000 265 414 0
2021-10-21 14:44:27 GMT 35.647522 -88.350044 34,000 265 413 0
2021-10-21 14:44:23 GMT 35.647522 -88.350044 34,000 265 413 0
2021-10-21 14:44:18 GMT 35.648483 -88.337402 34,000 265 413 0
2021-10-21 14:44:16 GMT 35.648911 -88.331711 34,000 265 413 0
2021-10-21 14:44:13 GMT 35.649582 -88.323151 34,000 265 413 0
2021-10-21 14:44:05 GMT 35.650913 -88.305771 34,000 265 413 0
2021-10-21 14:44:02 GMT 35.651276 -88.301010 34,000 265 412 0
2021-10-21 14:43:57 GMT 35.652191 -88.288879 34,000 265 412 0
2021-10-21 14:43:55 GMT 35.652649 -88.282814 34,000 265 412 64
2021-10-21 14:43:52 GMT 35.653290 -88.274506 34,000 265 412 0
2021-10-21 14:43:47 GMT 35.653976 -88.265305 34,000 265 412 0
2021-10-21 14:43:45 GMT 35.654266 -88.261703 34,000 265 412 0
2021-10-21 14:43:42 GMT 35.654938 -88.252716 34,000 265 412 0
2021-10-21 14:43:37 GMT 35.655899 -88.239670 34,000 265 412 -64
2021-10-21 14:43:34 GMT 35.656265 -88.235039 34,000 265 412 -64
2021-10-21 14:43:31 GMT 35.656872 -88.226761 34,000 265 412 -64
2021-10-21 14:43:26 GMT 35.657639 -88.216667 34,000 265 411 0
2021-10-21 14:43:21 GMT 35.659664 -88.189766 34,000 265 411 0
2021-10-21 14:43:15 GMT 35.659664 -88.189766 34,000 265 411 0
2021-10-21 14:43:12 GMT 35.660362 -88.180473 34,000 265 411 0
2021-10-21 14:43:05 GMT 35.661255 -88.168320 34,000 265 411 0
2021-10-21 14:43:03 GMT 35.661667 -88.162598 34,000 265 411 0
2021-10-21 14:43:00 GMT 35.662228 -88.155640 34,000 265 411 0
2021-10-21 14:42:57 GMT 35.662693 -88.149155 34,000 265 411 0
2021-10-21 14:42:54 GMT 35.663223 -88.141823 34,000 265 411 0
2021-10-21 14:42:51 GMT 35.663902 -88.132614 33,975 265 411 0
2021-10-21 14:42:45 GMT 35.664833 -88.120575 33,975 265 411 0
2021-10-21 14:42:42 GMT 35.665440 -88.112221 33,975 265 411 0
2021-10-21 14:42:39 GMT 35.666016 -88.104401 33,975 265 410 0
2021-10-21 14:42:34 GMT 35.666603 -88.096382 33,975 265 411 0
2021-10-21 14:42:31 GMT 35.667389 -88.085632 33,975 265 411 0
2021-10-21 14:42:25 GMT 35.668259 -88.074242 33,975 265 410 0
2021-10-21 14:42:22 GMT 35.668839 -88.066231 33,975 265 410 0
2021-10-21 14:42:17 GMT 35.669632 -88.055649 33,975 265 410 0
2021-10-21 14:42:14 GMT 35.670189 -88.047882 33,975 265 410 0
2021-10-21 14:42:10 GMT 35.670933 -88.037659 33,975 265 410 0
2021-10-21 14:42:06 GMT 35.671646 -88.028236 33,975 265 410 0
2021-10-21 14:42:02 GMT 35.672096 -88.022110 34,000 265 410 0
2021-10-21 14:41:56 GMT 35.673634 -88.001480 33,975 265 410 0
2021-10-21 14:41:52 GMT 35.673981 -87.996712 33,975 265 410 0
2021-10-21 14:41:48 GMT 35.674759 -87.986694 33,975 265 410 0
2021-10-21 14:41:41 GMT 35.675774 -87.972908 33,975 265 410 0
2021-10-21 14:41:37 GMT 35.676453 -87.963524 33,975 265 410 0
2021-10-21 14:41:30 GMT 35.677776 -87.945030 33,975 265 410 0
2021-10-21 14:41:22 GMT 35.679062 -87.927528 33,975 265 410 0
2021-10-21 14:41:18 GMT 35.679565 -87.921005 33,975 265 410 0
2021-10-21 14:41:11 GMT 35.680847 -87.903328 34,000 265 411 0
2021-10-21 14:41:09 GMT 35.681259 -87.897324 33,975 265 410 0
2021-10-21 14:41:03 GMT 35.682289 -87.883499 33,975 265 410 0
2021-10-21 14:41:00 GMT 35.683090 -87.872719 33,975 265 411 0
2021-10-21 14:40:58 GMT 35.683090 -87.872719 33,975 265 411 -64
2021-10-21 14:40:53 GMT 35.683960 -87.860809 34,000 265 411 -64
2021-10-21 14:40:50 GMT 35.684383 -87.855385 34,000 265 411 -64
2021-10-21 14:40:47 GMT 35.684853 -87.848839 34,000 265 411 -64
2021-10-21 14:40:42 GMT 35.686569 -87.825050 34,000 265 411 -64
2021-10-21 14:40:38 GMT 35.686569 -87.825050 34,000 265 411 0
2021-10-21 14:40:33 GMT 35.687458 -87.812843 34,000 265 411 0
2021-10-21 14:40:30 GMT 35.687832 -87.807465 34,000 265 411 0
2021-10-21 14:40:27 GMT 35.688309 -87.800613 34,000 265 411 0
2021-10-21 14:40:22 GMT 35.689087 -87.789688 34,000 266 412 -64
2021-10-21 14:40:17 GMT 35.690063 -87.776031 34,025 266 412 -64
2021-10-21 14:40:09 GMT 35.691193 -87.759590 34,025 266 412 -64
2021-10-21 14:40:06 GMT 35.691925 -87.749580 34,025 266 412 0
2021-10-21 14:40:01 GMT 35.692440 -87.741783 34,025 265 412 0
2021-10-21 14:39:58 GMT 35.692951 -87.734772 34,025 265 412 0
2021-10-21 14:39:56 GMT 35.693275 -87.729858 34,025 265 412 0
2021-10-21 14:39:53 GMT 35.693802 -87.722511 34,025 266 413 0
2021-10-21 14:39:48 GMT 35.694717 -87.709923 34,025 266 413 0
2021-10-21 14:39:46 GMT 35.695129 -87.704025 34,025 266 413 0
2021-10-21 14:39:43 GMT 35.695450 -87.699394 34,025 266 413 0
2021-10-21 14:39:38 GMT 35.696442 -87.685684 34,025 266 413 0
2021-10-21 14:39:34 GMT 35.697048 -87.676567 34,025 266 414 0
2021-10-21 14:39:30 GMT 35.697830 -87.665916 34,025 266 414 0
2021-10-21 14:39:26 GMT 35.698242 -87.660027 34,025 266 414 0
2021-10-21 14:39:24 GMT 35.698814 -87.651962 34,025 266 415 0
2021-10-21 14:39:20 GMT 35.699387 -87.643600 34,025 266 415 0
2021-10-21 14:39:17 GMT 35.700256 -87.631874 34,025 266 415 0
2021-10-21 14:39:13 GMT 35.700493 -87.628242 34,025 266 415 0
2021-10-21 14:39:09 GMT 35.701218 -87.618027 34,025 266 415 0
2021-10-21 14:39:05 GMT 35.701950 -87.607445 34,025 266 416 64
2021-10-21 14:39:02 GMT 35.702213 -87.603813 34,025 266 415 0
2021-10-21 14:38:59 GMT 35.702911 -87.594048 34,025 266 416 64
2021-10-21 14:38:55 GMT 35.703644 -87.583694 34,025 266 416 64
2021-10-21 14:38:52 GMT 35.703938 -87.579796 34,000 266 416 0
2021-10-21 14:38:48 GMT 35.704681 -87.569214 34,025 266 416 0
2021-10-21 14:38:45 GMT 35.705109 -87.563210 34,000 266 416 0
2021-10-21 14:38:43 GMT 35.705566 -87.556480 34,025 266 416 0
2021-10-21 14:38:35 GMT 35.706821 -87.538597 34,000 266 416 64
2021-10-21 14:38:32 GMT 35.707336 -87.531525 34,000 266 416 64
2021-10-21 14:38:28 GMT 35.708080 -87.520653 34,000 266 416 64
2021-10-21 14:38:24 GMT 35.708778 -87.511009 34,000 266 416 0
2021-10-21 14:38:21 GMT 35.709137 -87.505470 34,000 266 416 0
2021-10-21 14:38:17 GMT 35.709824 -87.496033 34,000 266 417 0
2021-10-21 14:38:14 GMT 35.710316 -87.488632 34,000 266 417 0
2021-10-21 14:38:11 GMT 35.710739 -87.482819 34,000 266 417 0
2021-10-21 14:38:07 GMT 35.711334 -87.473885 34,000 266 417 0
2021-10-21 14:38:04 GMT 35.712021 -87.463989 34,000 266 417 0
2021-10-21 14:38:02 GMT 35.712341 -87.459473 34,000 266 417 0
2021-10-21 14:37:57 GMT 35.713108 -87.448013 34,000 266 417 0
2021-10-21 14:37:52 GMT 35.713760 -87.438751 34,000 266 417 0
2021-10-21 14:37:50 GMT 35.714081 -87.434006 34,000 266 416 0
2021-10-21 14:37:46 GMT 35.714813 -87.423187 34,000 266 416 0
2021-10-21 14:37:41 GMT 35.715668 -87.410561 34,000 266 416 0
2021-10-21 14:37:36 GMT 35.716507 -87.398643 34,000 266 416 0
2021-10-21 14:37:33 GMT 35.717018 -87.390984 34,000 266 416 0
2021-10-21 14:37:31 GMT 35.717438 -87.384903 34,000 266 416 0
2021-10-21 14:37:25 GMT 35.718155 -87.374382 34,000 266 416 0
2021-10-21 14:37:22 GMT 35.718742 -87.366028 34,000 266 416 0
2021-10-21 14:37:20 GMT 35.719021 -87.361298 34,000 266 416 0
2021-10-21 14:37:15 GMT 35.719765 -87.350952 34,000 266 416 0
2021-10-21 14:37:12 GMT 35.720306 -87.342567 34,000 266 416 0
2021-10-21 14:37:10 GMT 35.720741 -87.336578 34,000 266 416 0
2021-10-21 14:37:05 GMT 35.721451 -87.325859 34,000 266 416 0
2021-10-21 14:37:01 GMT 35.722046 -87.316765 34,000 266 416 0
2021-10-21 14:36:59 GMT 35.722366 -87.312180 34,025 266 416 0
2021-10-21 14:36:56 GMT 35.722961 -87.303719 34,025 266 416 0
2021-10-21 14:36:53 GMT 35.723511 -87.295242 34,000 266 416 0
2021-10-21 14:36:50 GMT 35.723721 -87.292511 34,000 266 416 0
2021-10-21 14:36:48 GMT 35.724060 -87.287460 34,000 266 416 0
2021-10-21 14:36:43 GMT 35.725113 -87.271667 34,000 266 416 0
2021-10-21 14:36:39 GMT 35.725662 -87.263206 34,000 266 416 64
2021-10-21 14:36:32 GMT 35.726669 -87.248383 34,000 266 416 64
2021-10-21 14:36:28 GMT 35.727310 -87.238708 34,000 266 416 0
2021-10-21 14:36:22 GMT 35.728226 -87.224579 34,000 266 416 0
2021-10-21 14:36:18 GMT 35.728889 -87.214554 34,000 266 416 0
2021-10-21 14:36:12 GMT 35.729961 -87.198547 34,000 266 416 0
2021-10-21 14:36:09 GMT 35.730194 -87.194878 34,000 266 416 0
2021-10-21 14:36:07 GMT 35.730518 -87.189781 34,000 266 416 0
2021-10-21 14:36:02 GMT 35.731339 -87.177200 34,000 266 416 0
2021-10-21 14:35:59 GMT 35.731869 -87.169090 34,000 266 416 0
2021-10-21 14:35:55 GMT 35.732300 -87.162842 34,000 266 416 0
2021-10-21 14:35:52 GMT 35.732758 -87.155746 34,000 266 416 0
2021-10-21 14:35:47 GMT 35.733776 -87.140106 34,000 266 416 0
2021-10-21 14:35:40 GMT 35.734756 -87.125732 34,000 266 416 0
2021-10-21 14:35:37 GMT 35.735184 -87.119522 34,000 266 416 0
2021-10-21 14:35:35 GMT 35.735405 -87.115852 34,000 266 416 0
2021-10-21 14:35:31 GMT 35.736099 -87.105621 34,000 266 416 0
2021-10-21 14:35:27 GMT 35.736897 -87.093704 34,000 266 416 0
2021-10-21 14:35:24 GMT 35.737381 -87.086044 34,000 266 416 0
2021-10-21 14:35:20 GMT 35.738014 -87.076523 34,000 266 416 0
2021-10-21 14:35:16 GMT 35.738480 -87.069572 34,000 266 416 0
2021-10-21 14:35:12 GMT 35.739258 -87.057838 34,000 266 416 0
2021-10-21 14:35:09 GMT 35.739578 -87.053085 34,000 266 416 0
2021-10-21 14:35:06 GMT 35.739922 -87.047310 34,000 266 416 -64
2021-10-21 14:35:04 GMT 35.740265 -87.042503 34,000 266 416 0
2021-10-21 14:35:01 GMT 35.740768 -87.034264 34,000 266 416 0
2021-10-21 14:34:57 GMT 35.741413 -87.024750 34,000 266 416 0
2021-10-21 14:34:54 GMT 35.742016 -87.015518 34,000 266 416 0
2021-10-21 14:34:51 GMT 35.742390 -87.009911 34,000 266 416 64
2021-10-21 14:34:47 GMT 35.742947 -87.001434 34,000 266 416 64
2021-10-21 14:34:44 GMT 35.743320 -86.995300 34,000 266 416 64
2021-10-21 14:34:40 GMT 35.744247 -86.981049 34,000 266 416 0
2021-10-21 14:34:37 GMT 35.744385 -86.978928 34,000 266 416 0
2021-10-21 14:34:34 GMT 35.745556 -86.960876 34,000 266 416 0
2021-10-21 14:34:30 GMT 35.745556 -86.960876 34,000 266 416 0
2021-10-21 14:34:27 GMT 35.745941 -86.954842 34,000 266 416 0
2021-10-21 14:34:24 GMT 35.746300 -86.949074 34,000 266 416 0
2021-10-21 14:34:22 GMT 35.746674 -86.943741 34,000 266 416 0
2021-10-21 14:34:18 GMT 35.747498 -86.931267 34,000 266 416 64
2021-10-21 14:34:15 GMT 35.747864 -86.925140 34,000 266 416 64
2021-10-21 14:34:13 GMT 35.748047 -86.922050 34,000 266 416 64
2021-10-21 14:34:10 GMT 35.748718 -86.912079 34,000 266 416 0
2021-10-21 14:34:07 GMT 35.749008 -86.907234 34,000 266 416 0
2021-10-21 14:34:03 GMT 35.749840 -86.894844 34,000 266 416 64
2021-10-21 14:33:58 GMT 35.750538 -86.883743 34,000 266 416 64
2021-10-21 14:33:54 GMT 35.751049 -86.875732 33,975 266 416 0
2021-10-21 14:33:52 GMT 35.751328 -86.871292 34,000 266 416 0
2021-10-21 14:33:49 GMT 35.751755 -86.864319 34,000 266 416 0
2021-10-21 14:33:45 GMT 35.752304 -86.855751 33,975 266 416 0
2021-10-21 14:33:42 GMT 35.752899 -86.846642 33,975 266 416 0
2021-10-21 14:33:39 GMT 35.753357 -86.838860 33,975 266 416 0
2021-10-21 14:33:34 GMT 35.753983 -86.829102 34,000 266 416 0
2021-10-21 14:33:31 GMT 35.754456 -86.821915 34,000 266 416 0
2021-10-21 14:33:28 GMT 35.754913 -86.814590 34,000 266 416 0
2021-10-21 14:33:24 GMT 35.755379 -86.807182 33,975 266 416 0
2021-10-21 14:33:21 GMT 35.756401 -86.791176 33,975 266 416 0
2021-10-21 14:33:18 GMT 35.756401 -86.791176 34,000 266 416 0
2021-10-21 14:33:15 GMT 35.756973 -86.782089 33,975 266 416 0
2021-10-21 14:33:11 GMT 35.757568 -86.772942 33,975 266 416 0
2021-10-21 14:33:08 GMT 35.757984 -86.766220 33,975 266 416 0
2021-10-21 14:33:04 GMT 35.758358 -86.760086 33,975 266 415 0
2021-10-21 14:33:01 GMT 35.758915 -86.751610 33,975 266 415 0
2021-10-21 14:32:56 GMT 35.759567 -86.741264 33,975 266 415 0
2021-10-21 14:32:53 GMT 35.760178 -86.731735 33,975 266 415 0
2021-10-21 14:32:50 GMT 35.760590 -86.724792 33,975 266 415 0
2021-10-21 14:32:46 GMT 35.761105 -86.716553 33,975 266 415 0
2021-10-21 14:32:40 GMT 35.762081 -86.701530 33,975 266 415 0
2021-10-21 14:32:37 GMT 35.762650 -86.692947 33,975 266 415 -64
2021-10-21 14:32:32 GMT 35.763153 -86.684814 33,975 266 415 -64
2021-10-21 14:32:29 GMT 35.763611 -86.677666 34,000 266 415 -64
2021-10-21 14:32:26 GMT 35.764130 -86.669273 33,975 266 415 -64
2021-10-21 14:32:22 GMT 35.764732 -86.659630 34,000 266 415 0
2021-10-21 14:32:19 GMT 35.765247 -86.651390 34,000 266 415 0
2021-10-21 14:32:15 GMT 35.765671 -86.644707 34,000 266 415 0
2021-10-21 14:32:11 GMT 35.766266 -86.635262 34,000 266 416 0
2021-10-21 14:32:08 GMT 35.766689 -86.628136 34,000 266 416 0
2021-10-21 14:32:06 GMT 35.767155 -86.620827 34,000 266 416 0
2021-10-21 14:32:03 GMT 35.767529 -86.614693 34,000 266 416 0
2021-10-21 14:31:58 GMT 35.768326 -86.601852 34,000 266 416 -64
2021-10-21 14:31:55 GMT 35.768692 -86.595955 34,000 266 416 -64
2021-10-21 14:31:51 GMT 35.769287 -86.586517 34,000 266 416 0
2021-10-21 14:31:48 GMT 35.769653 -86.580162 34,000 266 416 0
2021-10-21 14:31:44 GMT 35.770340 -86.569115 34,000 266 416 -64
2021-10-21 14:31:41 GMT 35.770844 -86.560883 34,000 266 416 0
2021-10-21 14:31:38 GMT 35.771164 -86.555672 34,000 266 416 0
2021-10-21 14:31:34 GMT 35.771713 -86.546745 34,000 266 416 0
2021-10-21 14:31:31 GMT 35.772091 -86.540009 34,000 266 416 0
2021-10-21 14:31:28 GMT 35.773113 -86.523529 34,000 266 416 0
2021-10-21 14:31:25 GMT 35.773544 -86.516075 34,000 266 416 0
2021-10-21 14:31:22 GMT 35.773544 -86.516075 34,025 266 416 0
2021-10-21 14:31:19 GMT 35.773766 -86.512428 34,000 266 416 0
2021-10-21 14:31:16 GMT 35.774139 -86.505943 34,025 266 416 64
2021-10-21 14:31:13 GMT 35.774597 -86.498627 34,000 266 416 0
2021-10-21 14:31:10 GMT 35.775101 -86.490379 34,000 266 417 0
2021-10-21 14:31:07 GMT 35.775627 -86.481277 34,000 266 417 64
2021-10-21 14:31:02 GMT 35.776279 -86.470642 34,000 266 417 0
2021-10-21 14:30:59 GMT 35.776566 -86.466003 34,000 266 418 0
2021-10-21 14:30:56 GMT 35.777119 -86.456444 34,000 266 418 0
2021-10-21 14:30:50 GMT 35.777908 -86.443642 34,000 266 418 0
2021-10-21 14:30:46 GMT 35.778561 -86.432777 34,000 266 419 0
2021-10-21 14:30:43 GMT 35.779446 -86.418518 34,000 266 419 -64
2021-10-21 14:30:39 GMT 35.779446 -86.418518 34,000 266 419 0
2021-10-21 14:30:36 GMT 35.780090 -86.408218 34,000 266 419 0
2021-10-21 14:30:33 GMT 35.780518 -86.401215 34,000 266 419 0
2021-10-21 14:30:28 GMT 35.781120 -86.391228 34,000 266 419 0
2021-10-21 14:30:25 GMT 35.781601 -86.382812 34,000 266 419 64
2021-10-21 14:30:19 GMT 35.782379 -86.369606 34,000 266 419 64
2021-10-21 14:30:16 GMT 35.782845 -86.362473 34,000 266 419 64
2021-10-21 14:30:14 GMT 35.783028 -86.358971 34,000 266 419 64
2021-10-21 14:30:11 GMT 35.783478 -86.351456 34,000 266 419 0
2021-10-21 14:30:08 GMT 35.783890 -86.344810 34,000 266 419 0
2021-10-21 14:30:05 GMT 35.784332 -86.336823 34,000 266 419 0
2021-10-21 14:30:02 GMT 35.784939 -86.326881 34,000 266 419 0
2021-10-21 14:29:58 GMT 35.785446 -86.318436 34,000 266 419 0
2021-10-21 14:29:55 GMT 35.785728 -86.313797 34,000 266 419 0
2021-10-21 14:29:51 GMT 35.786407 -86.302528 33,975 266 419 0
2021-10-21 14:29:47 GMT 35.786865 -86.294685 33,975 266 420 0
2021-10-21 14:29:43 GMT 35.787735 -86.279922 33,975 266 420 -64
2021-10-21 14:29:39 GMT 35.788151 -86.272888 33,975 266 420 -64
2021-10-21 14:29:34 GMT 35.788754 -86.262665 34,000 266 420 -64
2021-10-21 14:29:31 GMT 35.789268 -86.254128 34,000 266 420 -64
2021-10-21 14:29:25 GMT 35.790115 -86.240211 34,000 266 419 0
2021-10-21 14:29:20 GMT 35.790806 -86.228706 34,000 266 419 0
2021-10-21 14:29:17 GMT 35.791130 -86.222511 34,000 266 419 0
2021-10-21 14:29:14 GMT 35.791580 -86.215263 34,000 266 419 0
2021-10-21 14:29:12 GMT 35.791855 -86.210289 34,000 266 419 0
2021-10-21 14:29:09 GMT 35.792667 -86.196396 34,000 266 419 0
2021-10-21 14:29:06 GMT 35.792667 -86.196396 34,000 266 419 0
2021-10-21 14:29:03 GMT 35.793091 -86.189117 34,000 266 419 0
2021-10-21 14:29:00 GMT 35.794098 -86.171783 34,000 266 419 0
2021-10-21 14:28:56 GMT 35.794098 -86.171783 34,000 266 420 0
2021-10-21 14:28:52 GMT 35.794807 -86.159988 34,000 266 420 0
2021-10-21 14:28:49 GMT 35.795059 -86.155357 34,000 266 420 0
2021-10-21 14:28:46 GMT 35.795471 -86.147980 34,000 267 420 0
2021-10-21 14:28:41 GMT 35.796158 -86.136307 34,000 267 420 -64
2021-10-21 14:28:38 GMT 35.796482 -86.130241 34,000 267 421 -64
2021-10-21 14:28:35 GMT 35.796947 -86.121651 34,000 267 421 -64
2021-10-21 14:28:29 GMT 35.797897 -86.105347 34,000 267 421 -64
2021-10-21 14:28:24 GMT 35.798401 -86.096024 34,000 267 421 -64
2021-10-21 14:28:21 GMT 35.798950 -86.086006 34,000 267 421 -64
2021-10-21 14:28:18 GMT 35.799225 -86.081032 34,025 267 421 -64
2021-10-21 14:28:15 GMT 35.799789 -86.071335 34,025 267 421 -64
2021-10-21 14:28:10 GMT 35.800301 -86.062042 34,025 267 421 -64
2021-10-21 14:28:07 GMT 35.800674 -86.055847 34,025 266 421 0
2021-10-21 14:28:03 GMT 35.801231 -86.046036 34,025 266 421 0
2021-10-21 14:28:00 GMT 35.801743 -86.036972 34,025 266 421 0
2021-10-21 14:27:57 GMT 35.802063 -86.031364 34,025 266 421 0
2021-10-21 14:27:54 GMT 35.802567 -86.022552 34,025 266 421 0
2021-10-21 14:27:49 GMT 35.803558 -86.005478 34,025 266 422 0
2021-10-21 14:27:46 GMT 35.803558 -86.005478 34,025 266 422 0
2021-10-21 14:27:42 GMT 35.804115 -85.995659 34,025 267 421 0
2021-10-21 14:27:39 GMT 35.804909 -85.981812 34,025 267 421 0
2021-10-21 14:27:36 GMT 35.804909 -85.981812 34,025 267 421 0
2021-10-21 14:27:33 GMT 35.805470 -85.971756 34,025 267 421 0
2021-10-21 14:27:29 GMT 35.805817 -85.965897 34,025 267 421 0
2021-10-21 14:27:27 GMT 35.806274 -85.957771 34,025 267 421 0
2021-10-21 14:27:22 GMT 35.807327 -85.938606 34,025 267 421 0
2021-10-21 14:27:19 GMT 35.807327 -85.938606 34,025 267 421 64
2021-10-21 14:27:15 GMT 35.807751 -85.931786 34,025 266 422 64
2021-10-21 14:27:10 GMT 35.808929 -85.910339 34,025 267 422 0
2021-10-21 14:27:07 GMT 35.808929 -85.910339 34,025 267 422 0
2021-10-21 14:27:03 GMT 35.809525 -85.900269 34,025 267 422 0
2021-10-21 14:26:58 GMT 35.810165 -85.888763 34,025 267 422 0
2021-10-21 14:26:55 GMT 35.810623 -85.880356 34,025 267 422 0
2021-10-21 14:26:51 GMT 35.811146 -85.871361 34,025 267 422 0
2021-10-21 14:26:47 GMT 35.811584 -85.863815 34,025 267 422 0
2021-10-21 14:26:44 GMT 35.811905 -85.858093 34,025 267 422 0
2021-10-21 14:26:37 GMT 35.813644 -85.826859 34,000 267 422 64
2021-10-21 14:26:27 GMT 35.814220 -85.815964 34,000 267 423 64
2021-10-21 14:26:24 GMT 35.814545 -85.809944 34,000 267 423 64
2021-10-21 14:26:21 GMT 35.815056 -85.800591 34,000 267 423 64
2021-10-21 14:26:18 GMT 35.815475 -85.793404 34,000 267 423 64
2021-10-21 14:26:15 GMT 35.815842 -85.786285 34,000 267 423 64
2021-10-21 14:26:10 GMT 35.816547 -85.773712 33,975 267 423 64
2021-10-21 14:26:05 GMT 35.817150 -85.762901 33,975 267 423 0
2021-10-21 14:26:00 GMT 35.817764 -85.750977 33,975 267 423 0
2021-10-21 14:25:55 GMT 35.818542 -85.737244 33,975 267 423 64
2021-10-21 14:25:51 GMT 35.819572 -85.717438 33,975 267 422 -64
2021-10-21 14:25:46 GMT 35.819572 -85.717438 33,975 267 423 0
2021-10-21 14:25:44 GMT 35.819946 -85.711182 33,975 267 423 0
2021-10-21 14:25:40 GMT 35.820374 -85.702911 33,975 267 423 -64
2021-10-21 14:25:36 GMT 35.820923 -85.692719 33,975 267 422 -64
2021-10-21 14:25:32 GMT 35.821426 -85.683456 33,975 267 422 -64
2021-10-21 14:25:29 GMT 35.821808 -85.676414 33,975 267 422 -64
2021-10-21 14:25:25 GMT 35.822273 -85.667526 33,975 267 422 -64
2021-10-21 14:25:23 GMT 35.822552 -85.662506 33,975 267 422 -64
2021-10-21 14:25:20 GMT 35.823017 -85.653389 33,975 267 422 -64
2021-10-21 14:25:15 GMT 35.823624 -85.642815 34,000 267 422 -64
2021-10-21 14:25:11 GMT 35.824127 -85.632874 34,000 267 422 -64
2021-10-21 14:25:08 GMT 35.824493 -85.626183 34,000 267 422 0
2021-10-21 14:25:03 GMT 35.825272 -85.612045 34,000 267 421 -64
2021-10-21 14:24:59 GMT 35.825764 -85.602371 34,000 267 421 -64
2021-10-21 14:24:54 GMT 35.826233 -85.593620 34,000 267 421 -64
2021-10-21 14:24:51 GMT 35.826740 -85.584602 34,000 267 421 0
2021-10-21 14:24:48 GMT 35.827057 -85.578522 34,000 267 421 0
2021-10-21 14:24:44 GMT 35.827560 -85.568443 34,000 267 422 0
2021-10-21 14:24:40 GMT 35.827972 -85.560555 34,000 267 422 0
2021-10-21 14:24:35 GMT 35.828651 -85.547729 34,000 267 422 0
2021-10-21 14:24:32 GMT 35.829163 -85.538147 34,025 267 422 0
2021-10-21 14:24:28 GMT 35.829674 -85.528564 34,000 267 422 0
2021-10-21 14:24:23 GMT 35.830139 -85.518982 34,025 267 422 0
2021-10-21 14:24:20 GMT 35.830673 -85.509277 34,025 267 422 0
2021-10-21 14:24:17 GMT 35.830887 -85.504608 34,025 267 422 0
2021-10-21 14:24:12 GMT 35.831581 -85.491631 34,025 267 422 0
2021-10-21 14:24:09 GMT 35.832096 -85.482285 34,025 267 422 0
2021-10-21 14:24:06 GMT 35.832283 -85.478424 34,025 267 422 0
2021-10-21 14:24:02 GMT 35.832794 -85.468605 34,025 267 423 -64
2021-10-21 14:24:00 GMT 35.833214 -85.461365 34,025 267 423 -64
2021-10-21 14:23:57 GMT 35.833511 -85.455032 34,025 267 423 -64
2021-10-21 14:23:52 GMT 35.834145 -85.443130 34,025 267 423 -64
2021-10-21 14:23:48 GMT 35.834564 -85.435707 34,025 267 423 0
2021-10-21 14:23:45 GMT 35.834930 -85.428368 34,025 267 423 0
2021-10-21 14:23:42 GMT 35.835400 -85.419342 34,025 267 423 0
2021-10-21 14:23:39 GMT 35.835846 -85.410805 34,025 267 423 0
2021-10-21 14:23:35 GMT 35.836193 -85.404442 34,025 267 423 0
2021-10-21 14:23:31 GMT 35.836796 -85.392403 34,025 267 423 0
2021-10-21 14:23:28 GMT 35.837124 -85.385918 34,025 267 423 0
2021-10-21 14:23:25 GMT 35.837448 -85.379898 34,025 267 424 0
2021-10-21 14:23:21 GMT 35.838043 -85.368462 34,025 267 424 0
2021-10-21 14:23:18 GMT 35.838425 -85.360909 34,025 267 424 0
2021-10-21 14:23:13 GMT 35.839005 -85.349922 34,025 267 424 64
2021-10-21 14:23:10 GMT 35.839462 -85.340767 34,025 267 424 0
2021-10-21 14:23:06 GMT 35.839783 -85.334763 34,025 267 424 0
2021-10-21 14:23:03 GMT 35.840240 -85.326057 34,025 267 424 0
2021-10-21 14:23:00 GMT 35.840614 -85.318947 34,025 267 424 0
2021-10-21 14:22:58 GMT 35.840893 -85.313393 34,025 267 424 0
2021-10-21 14:22:55 GMT 35.841358 -85.303810 34,025 267 424 64
2021-10-21 14:22:52 GMT 35.841568 -85.300026 34,025 267 424 64
2021-10-21 14:22:49 GMT 35.842056 -85.290314 34,025 267 424 64
2021-10-21 14:22:46 GMT 35.842339 -85.285233 34,025 267 424 64
2021-10-21 14:22:42 GMT 35.842758 -85.276161 34,025 267 424 64
2021-10-21 14:22:39 GMT 35.843174 -85.268578 34,025 267 424 64
2021-10-21 14:22:36 GMT 35.843674 -85.258598 34,000 267 424 64
2021-10-21 14:22:32 GMT 35.844040 -85.250877 34,000 267 425 64
2021-10-21 14:22:28 GMT 35.844635 -85.239029 34,000 267 425 64
2021-10-21 14:22:24 GMT 35.844990 -85.231934 34,000 267 425 64
2021-10-21 14:22:22 GMT 35.845276 -85.226730 34,000 267 425 64
2021-10-21 14:22:19 GMT 35.845596 -85.219604 34,000 267 425 0
2021-10-21 14:22:15 GMT 35.846203 -85.207504 34,000 267 425 0
2021-10-21 14:22:12 GMT 35.846466 -85.202576 34,000 267 424 0
2021-10-21 14:22:06 GMT 35.847198 -85.187134 34,000 267 424 0
2021-10-21 14:22:02 GMT 35.847645 -85.178818 34,000 267 424 64
2021-10-21 14:21:59 GMT 35.848015 -85.170631 34,000 267 424 64
2021-10-21 14:21:56 GMT 35.848389 -85.163040 34,000 267 424 0
2021-10-21 14:21:53 GMT 35.848808 -85.155266 33,975 267 424 0
2021-10-21 14:21:50 GMT 35.848995 -85.151169 33,975 267 423 0
2021-10-21 14:21:47 GMT 35.849365 -85.143692 33,975 267 423 0
2021-10-21 14:21:45 GMT 35.849716 -85.136314 33,975 267 423 0
2021-10-21 14:21:42 GMT 35.849991 -85.131287 33,975 267 423 0
2021-10-21 14:21:39 GMT 35.850266 -85.125275 33,975 267 423 0
2021-10-21 14:21:36 GMT 35.850677 -85.116859 33,975 267 423 0
2021-10-21 14:21:34 GMT 35.850952 -85.111084 33,975 267 423 0
2021-10-21 14:21:31 GMT 35.851368 -85.102554 33,975 267 422 0
2021-10-21 14:21:25 GMT 35.852463 -85.080582 33,975 267 422 0
2021-10-21 14:21:22 GMT 35.852463 -85.080582 33,975 267 422 0
2021-10-21 14:21:19 GMT 35.852783 -85.074348 33,975 267 422 0
2021-10-21 14:21:14 GMT 35.853333 -85.062614 33,975 267 422 0
2021-10-21 14:21:11 GMT 35.853607 -85.056839 33,975 267 422 0
2021-10-21 14:21:08 GMT 35.853973 -85.049026 33,975 267 422 0
2021-10-21 14:21:05 GMT 35.854340 -85.041962 33,975 267 422 0
2021-10-21 14:21:03 GMT 35.854523 -85.037666 33,975 267 422 0
2021-10-21 14:21:00 GMT 35.854980 -85.028290 34,000 267 422 0
2021-10-21 14:20:57 GMT 35.855164 -85.024452 34,000 267 422 0
2021-10-21 14:20:54 GMT 35.855621 -85.014671 34,000 267 421 0
2021-10-21 14:20:51 GMT 35.856033 -85.006714 34,000 267 421 0
2021-10-21 14:20:48 GMT 35.856396 -84.998711 34,000 267 421 0
2021-10-21 14:20:44 GMT 35.856720 -84.992638 34,000 267 421 0
2021-10-21 14:20:42 GMT 35.857452 -84.977760 34,000 267 421 0
2021-10-21 14:20:39 GMT 35.857452 -84.977760 34,000 267 421 0
2021-10-21 14:20:36 GMT 35.857635 -84.974152 34,000 267 421 0
2021-10-21 14:20:33 GMT 35.858093 -84.964828 34,000 267 421 0
2021-10-21 14:20:30 GMT 35.858414 -84.957680 34,000 267 421 0
2021-10-21 14:20:27 GMT 35.858864 -84.948921 34,000 267 421 0
2021-10-21 14:20:23 GMT 35.859329 -84.938789 34,000 267 421 0
2021-10-21 14:20:20 GMT 35.859699 -84.931740 34,000 267 421 0
2021-10-21 14:20:15 GMT 35.860153 -84.922256 34,000 267 421 0
2021-10-21 14:20:12 GMT 35.860474 -84.915337 34,000 267 421 0
2021-10-21 14:20:08 GMT 35.860886 -84.906982 34,000 267 421 0
2021-10-21 14:20:04 GMT 35.861378 -84.895859 34,000 267 421 0
2021-10-21 14:20:01 GMT 35.861702 -84.889839 34,000 267 421 0
2021-10-21 14:19:59 GMT 35.862400 -84.874763 34,000 267 421 0
2021-10-21 14:19:55 GMT 35.862400 -84.874763 34,000 267 422 0
2021-10-21 14:19:52 GMT 35.862865 -84.865410 34,000 267 422 0
2021-10-21 14:19:49 GMT 35.863148 -84.858986 34,000 267 422 0
2021-10-21 14:19:46 GMT 35.863403 -84.854050 34,000 267 422 -64
2021-10-21 14:19:42 GMT 35.863907 -84.843521 34,000 267 421 0
2021-10-21 14:19:38 GMT 35.864502 -84.831047 34,000 267 421 0
2021-10-21 14:19:34 GMT 35.864777 -84.824913 34,000 267 421 0
2021-10-21 14:19:29 GMT 35.865520 -84.809372 34,000 267 421 0
2021-10-21 14:19:25 GMT 35.865799 -84.802650 34,000 267 421 0
2021-10-21 14:19:20 GMT 35.866882 -84.779320 34,000 267 421 0
2021-10-21 14:19:16 GMT 35.866882 -84.779320 34,000 267 421 64
2021-10-21 14:19:11 GMT 35.867294 -84.770737 34,000 267 421 64
2021-10-21 14:19:08 GMT 35.867802 -84.759109 34,000 267 421 0
2021-10-21 14:19:04 GMT 35.868034 -84.754089 34,000 267 421 0
2021-10-21 14:18:59 GMT 35.868732 -84.739479 34,000 267 421 0
2021-10-21 14:18:56 GMT 35.869034 -84.732399 34,000 267 421 0
2021-10-21 14:18:52 GMT 35.869476 -84.723175 34,000 267 421 0
2021-10-21 14:18:49 GMT 35.869804 -84.715752 34,000 267 421 0
2021-10-21 14:18:45 GMT 35.870270 -84.705048 34,000 267 421 0
2021-10-21 14:18:40 GMT 35.870735 -84.694885 34,000 267 421 64
2021-10-21 14:18:37 GMT 35.871094 -84.687592 34,000 267 421 0
2021-10-21 14:18:33 GMT 35.871460 -84.679237 34,000 267 421 0
2021-10-21 14:18:29 GMT 35.871944 -84.669296 34,000 267 421 0
2021-10-21 14:18:26 GMT 35.872410 -84.659004 34,000 267 421 0
2021-10-21 14:18:23 GMT 35.872967 -84.646797 34,000 267 421 0
2021-10-21 14:18:20 GMT 35.872967 -84.646797 34,000 267 421 0
2021-10-21 14:18:16 GMT 35.873703 -84.630379 34,000 267 421 0
2021-10-21 14:18:13 GMT 35.873703 -84.630379 34,000 267 421 -64
2021-10-21 14:18:08 GMT 35.874180 -84.619972 34,000 267 421 0
2021-10-21 14:18:05 GMT 35.874710 -84.608856 34,000 267 421 0
2021-10-21 14:18:01 GMT 35.875076 -84.600967 34,000 267 421 0
2021-10-21 14:17:58 GMT 35.875481 -84.592216 34,000 267 421 0
2021-10-21 14:17:54 GMT 35.875854 -84.583740 34,000 267 421 0
2021-10-21 14:17:51 GMT 35.876266 -84.574127 34,000 267 421 0
2021-10-21 14:17:46 GMT 35.876740 -84.563698 34,000 267 421 0
2021-10-21 14:17:42 GMT 35.877045 -84.556618 34,000 267 421 0
2021-10-21 14:17:39 GMT 35.877365 -84.550385 34,000 267 421 0
2021-10-21 14:17:35 GMT 35.877823 -84.539162 34,000 267 421 0
2021-10-21 14:17:30 GMT 35.878418 -84.526176 34,000 267 422 0
2021-10-21 14:17:25 GMT 35.878922 -84.513985 34,000 267 422 0
2021-10-21 14:17:22 GMT 35.879253 -84.506424 34,000 267 422 0
2021-10-21 14:17:19 GMT 35.879486 -84.500877 34,000 267 422 0
2021-10-21 14:17:15 GMT 35.880043 -84.488892 34,000 267 422 0
2021-10-21 14:17:10 GMT 35.880417 -84.480247 34,000 267 422 0
2021-10-21 14:17:07 GMT 35.880791 -84.471893 34,000 267 422 0
2021-10-21 14:17:04 GMT 35.881069 -84.464409 34,000 268 422 0
2021-10-21 14:17:00 GMT 35.881439 -84.455765 34,000 268 422 0
2021-10-21 14:16:57 GMT 35.881905 -84.445473 34,000 268 422 0
2021-10-21 14:16:54 GMT 35.882263 -84.436974 34,000 268 422 0
2021-10-21 14:16:51 GMT 35.882374 -84.434196 34,000 268 422 0
2021-10-21 14:16:48 GMT 35.882721 -84.425926 34,000 268 422 0
2021-10-21 14:16:43 GMT 35.883224 -84.414368 34,000 268 422 0
2021-10-21 14:16:38 GMT 35.883953 -84.397499 34,000 268 422 0
2021-10-21 14:16:35 GMT 35.884140 -84.393021 34,000 268 422 0
2021-10-21 14:16:29 GMT 35.884552 -84.382500 34,000 268 422 0
2021-10-21 14:16:26 GMT 35.884918 -84.374084 34,000 268 422 0
2021-10-21 14:16:23 GMT 35.885330 -84.365211 34,000 268 422 0
2021-10-21 14:16:17 GMT 35.885971 -84.349823 34,000 268 422 0
2021-10-21 14:16:13 GMT 35.886234 -84.343674 34,000 268 422 0
2021-10-21 14:16:10 GMT 35.886700 -84.332397 34,000 268 422 -64
2021-10-21 14:16:07 GMT 35.886841 -84.329765 34,000 268 422 0
2021-10-21 14:16:02 GMT 35.887436 -84.315491 34,000 268 422 0
2021-10-21 14:15:58 GMT 35.887913 -84.304581 34,000 268 422 64
2021-10-21 14:15:52 GMT 35.888561 -84.289215 34,000 268 422 0
2021-10-21 14:15:47 GMT 35.889076 -84.276939 34,000 268 422 0
2021-10-21 14:15:43 GMT 35.889450 -84.268456 34,000 268 422 0
2021-10-21 14:15:40 GMT 35.889771 -84.261475 34,000 268 422 0
2021-10-21 14:15:37 GMT 35.890099 -84.253212 34,000 268 422 -64
2021-10-21 14:15:31 GMT 35.890705 -84.238548 34,000 268 423 0
2021-10-21 14:15:26 GMT 35.891190 -84.226913 34,000 268 423 0
2021-10-21 14:15:20 GMT 35.891682 -84.215462 34,000 268 423 0
2021-10-21 14:15:16 GMT 35.892746 -84.190125 34,000 268 423 0
2021-10-21 14:15:10 GMT 35.892746 -84.190125 34,000 268 423 0
2021-10-21 14:15:07 GMT 35.893066 -84.182167 34,000 268 423 0
2021-10-21 14:15:04 GMT 35.893219 -84.178413 34,000 268 424 0
2021-10-21 14:15:00 GMT 35.893845 -84.163628 34,000 268 423 0
2021-10-21 14:14:55 GMT 35.894287 -84.152466 34,000 268 423 0
2021-10-21 14:14:50 GMT 35.894661 -84.144287 34,000 268 423 0
2021-10-21 14:14:47 GMT 35.895081 -84.133530 34,000 268 423 0
2021-10-21 14:14:44 GMT 35.895359 -84.127167 34,000 268 423 0
2021-10-21 14:14:39 GMT 35.895859 -84.114304 34,000 268 424 0
2021-10-21 14:14:34 GMT 35.896271 -84.103661 34,000 268 424 -64
2021-10-21 14:14:28 GMT 35.896851 -84.090057 34,000 268 424 0
2021-10-21 14:14:25 GMT 35.897141 -84.081970 34,025 268 423 0
2021-10-21 14:14:22 GMT 35.897362 -84.076324 34,000 268 423 0
2021-10-21 14:14:18 GMT 35.897781 -84.065514 34,025 268 424 0
2021-10-21 14:14:15 GMT 35.898151 -84.056572 34,025 268 424 0
2021-10-21 14:14:12 GMT 35.898338 -84.051544 34,025 268 424 0
2021-10-21 14:14:08 GMT 35.898804 -84.039978 34,025 268 424 0
2021-10-21 14:14:05 GMT 35.899017 -84.033791 34,000 268 424 0
2021-10-21 14:14:02 GMT 35.899364 -84.025017 34,000 268 424 0
2021-10-21 14:13:58 GMT 35.899704 -84.016174 34,000 268 424 0
2021-10-21 14:13:55 GMT 35.899979 -84.010162 34,025 268 424 0
2021-10-21 14:13:52 GMT 35.900341 -84.000877 34,000 268 425 64
2021-10-21 14:13:49 GMT 35.900620 -83.993279 34,000 268 424 64
2021-10-21 14:13:45 GMT 35.900902 -83.987381 34,000 268 425 64
2021-10-21 14:13:42 GMT 35.901272 -83.977684 34,000 268 425 64
2021-10-21 14:13:38 GMT 35.901627 -83.969131 34,000 267 425 64
2021-10-21 14:13:35 GMT 35.901924 -83.963188 34,000 267 425 64
2021-10-21 14:13:32 GMT 35.902390 -83.952316 34,000 267 425 0
2021-10-21 14:13:27 GMT 35.902946 -83.939224 34,000 267 425 0
2021-10-21 14:13:23 GMT 35.903320 -83.930519 34,000 268 426 0
2021-10-21 14:13:20 GMT 35.903549 -83.924103 34,000 268 426 0
2021-10-21 14:13:15 GMT 35.903831 -83.911179 34,000 270 426 0
2021-10-21 14:13:12 GMT 35.903877 -83.904869 34,000 275 426 0
2021-10-21 14:13:09 GMT 35.903877 -83.901245 34,000 275 426 0
2021-10-21 14:13:04 GMT 35.903740 -83.887451 34,000 272 426 0
2021-10-21 14:13:00 GMT 35.903366 -83.874947 34,000 273 425 -64
2021-10-21 14:12:56 GMT 35.903000 -83.866020 34,000 274 425 -64
2021-10-21 14:12:51 GMT 35.902248 -83.852859 34,000 275 426 -64
2021-10-21 14:12:44 GMT 35.901413 -83.838829 34,000 275 426 -64
2021-10-21 14:12:40 GMT 35.900803 -83.828316 34,000 275 426 0
2021-10-21 14:12:37 GMT 35.900391 -83.821106 34,000 275 426 0
2021-10-21 14:12:33 GMT 35.899841 -83.812119 34,000 275 426 0
2021-10-21 14:12:30 GMT 35.899292 -83.802963 34,025 275 426 0
2021-10-21 14:12:27 GMT 35.899109 -83.799362 34,025 275 426 0
2021-10-21 14:12:24 GMT 35.898422 -83.788200 34,025 275 426 0
2021-10-21 14:12:20 GMT 35.897781 -83.777702 34,025 275 426 0
2021-10-21 14:12:17 GMT 35.897598 -83.774414 34,025 275 426 0
2021-10-21 14:12:14 GMT 35.897095 -83.766235 34,025 275 427 0
2021-10-21 14:12:11 GMT 35.896664 -83.758827 34,025 275 427 0
2021-10-21 14:12:08 GMT 35.896152 -83.750122 34,025 275 427 0
2021-10-21 14:12:05 GMT 35.895733 -83.743813 34,025 275 427 0
2021-10-21 14:12:02 GMT 35.895454 -83.738731 34,025 275 427 0
2021-10-21 14:11:59 GMT 35.894802 -83.728271 34,025 275 427 0
2021-10-21 14:11:56 GMT 35.894524 -83.723419 34,025 275 427 0
2021-10-21 14:11:53 GMT 35.893871 -83.713249 34,025 275 427 0
2021-10-21 14:11:50 GMT 35.892975 -83.698601 34,025 275 427 0
2021-10-21 14:11:47 GMT 35.892975 -83.698601 34,025 275 427 0
2021-10-21 14:11:44 GMT 35.892612 -83.692680 34,025 275 427 0
2021-10-21 14:11:41 GMT 35.892242 -83.686462 34,025 275 428 0
2021-10-21 14:11:38 GMT 35.891869 -83.680527 34,025 275 428 0
2021-10-21 14:11:35 GMT 35.891357 -83.672050 34,025 275 428 0
2021-10-21 14:11:31 GMT 35.890549 -83.659515 34,025 275 428 64
2021-10-21 14:11:28 GMT 35.890137 -83.652473 34,025 275 428 64
2021-10-21 14:11:25 GMT 35.889816 -83.647385 34,000 275 428 64
2021-10-21 14:11:22 GMT 35.889359 -83.640350 34,000 275 428 64
2021-10-21 14:11:18 GMT 35.888718 -83.629929 34,000 275 428 64
2021-10-21 14:11:14 GMT 35.888260 -83.622147 34,000 275 428 64
2021-10-21 14:11:11 GMT 35.887711 -83.613167 34,000 275 428 64
2021-10-21 14:11:08 GMT 35.887161 -83.604408 34,000 275 428 0
2021-10-21 14:11:05 GMT 35.886658 -83.596169 34,000 275 428 0
2021-10-21 14:11:02 GMT 35.886292 -83.590340 34,000 275 428 0
2021-10-21 14:10:57 GMT 35.885632 -83.579018 34,000 275 428 0
2021-10-21 14:10:54 GMT 35.884560 -83.561310 34,000 275 428 0
2021-10-21 14:10:49 GMT 35.884560 -83.561310 34,000 275 428 0
2021-10-21 14:10:46 GMT 35.884048 -83.553658 34,000 275 428 0
2021-10-21 14:10:43 GMT 35.883408 -83.542725 34,000 275 428 0
2021-10-21 14:10:40 GMT 35.883179 -83.539124 34,000 275 427 64
2021-10-21 14:10:35 GMT 35.882217 -83.523102 34,000 275 427 0
2021-10-21 14:10:32 GMT 35.882000 -83.519585 34,000 275 427 0
2021-10-21 14:10:29 GMT 35.881531 -83.512459 34,000 275 427 0
2021-10-21 14:10:26 GMT 35.880974 -83.503571 34,000 275 427 0
2021-10-21 14:10:21 GMT 35.880341 -83.493057 34,000 275 427 64
2021-10-21 14:10:18 GMT 35.879810 -83.484695 33,975 275 427 64
2021-10-21 14:10:14 GMT 35.879105 -83.473434 33,975 275 427 64
2021-10-21 14:10:10 GMT 35.877903 -83.453728 33,975 275 427 0
2021-10-21 14:10:05 GMT 35.877903 -83.453728 33,975 275 427 0
2021-10-21 14:10:00 GMT 35.876953 -83.438812 33,975 275 427 0
2021-10-21 14:09:57 GMT 35.876633 -83.433723 33,975 275 427 0
2021-10-21 14:09:54 GMT 35.876266 -83.427429 33,975 275 427 0
2021-10-21 14:09:51 GMT 35.875763 -83.419418 33,975 275 426 0
2021-10-21 14:09:48 GMT 35.875305 -83.412209 33,975 275 426 0
2021-10-21 14:09:45 GMT 35.873806 -83.388390 33,975 275 426 0
2021-10-21 14:09:39 GMT 35.873806 -83.388390 33,975 275 426 0
2021-10-21 14:09:35 GMT 35.873428 -83.382454 33,975 275 426 0
2021-10-21 14:09:32 GMT 35.872742 -83.371582 33,975 275 426 0
2021-10-21 14:09:28 GMT 35.872223 -83.363266 33,975 275 426 0
2021-10-21 14:09:25 GMT 35.871826 -83.357330 33,975 275 425 0
2021-10-21 14:09:21 GMT 35.871140 -83.346230 33,975 275 425 0
2021-10-21 14:09:18 GMT 35.870682 -83.339027 33,975 275 425 0
2021-10-21 14:09:14 GMT 35.870224 -83.332047 33,975 275 425 0
2021-10-21 14:09:11 GMT 35.869492 -83.320198 33,975 275 425 0
2021-10-21 14:09:08 GMT 35.869011 -83.312599 33,975 275 425 0
2021-10-21 14:09:04 GMT 35.868668 -83.307671 33,975 275 425 0
2021-10-21 14:09:00 GMT 35.867943 -83.296005 33,975 275 425 0
2021-10-21 14:08:56 GMT 35.867336 -83.287064 33,975 275 425 0
2021-10-21 14:08:53 GMT 35.866730 -83.277184 33,975 275 425 0
2021-10-21 14:08:49 GMT 35.866077 -83.267311 33,975 275 425 -64
2021-10-21 14:08:45 GMT 35.865646 -83.260460 33,975 275 425 -64
2021-10-21 14:08:42 GMT 35.865101 -83.252411 34,000 275 425 -64
2021-10-21 14:08:37 GMT 35.864273 -83.239975 34,000 275 425 -64
2021-10-21 14:08:34 GMT 35.863815 -83.232536 34,000 275 425 -64
2021-10-21 14:08:31 GMT 35.863403 -83.226242 34,025 275 425 -64
2021-10-21 14:08:28 GMT 35.862808 -83.217606 34,000 275 425 -64
2021-10-21 14:08:25 GMT 35.862495 -83.212143 34,000 275 425 -64
2021-10-21 14:08:22 GMT 35.861843 -83.202499 34,025 275 425 -64
2021-10-21 14:08:17 GMT 35.861095 -83.190933 34,025 275 425 -64
2021-10-21 14:08:13 GMT 35.860245 -83.177322 34,025 275 425 -64
2021-10-21 14:08:10 GMT 35.860245 -83.177322 34,025 275 426 0
2021-10-21 14:08:06 GMT 35.859467 -83.165863 34,025 275 425 0
2021-10-21 14:08:03 GMT 35.859100 -83.159981 34,025 275 426 0
2021-10-21 14:07:59 GMT 35.858231 -83.146423 34,025 275 426 0
2021-10-21 14:07:56 GMT 35.857819 -83.140182 34,025 275 426 -64
2021-10-21 14:07:50 GMT 35.857048 -83.127701 34,025 275 426 -64
2021-10-21 14:07:46 GMT 35.856491 -83.119125 34,025 275 426 0
2021-10-21 14:07:43 GMT 35.855885 -83.109818 34,025 275 426 0
2021-10-21 14:07:39 GMT 35.855392 -83.102417 34,025 275 427 0
2021-10-21 14:07:35 GMT 35.854660 -83.091087 34,025 275 427 0
2021-10-21 14:07:32 GMT 35.854248 -83.084793 34,025 275 427 0
2021-10-21 14:07:28 GMT 35.853653 -83.076324 34,025 275 427 0
2021-10-21 14:07:24 GMT 35.852810 -83.062836 34,025 275 427 0
2021-10-21 14:07:21 GMT 35.852486 -83.058273 34,025 275 427 0
2021-10-21 14:07:18 GMT 35.851776 -83.047485 34,025 275 427 0
2021-10-21 14:07:15 GMT 35.851368 -83.041267 34,050 275 428 0
2021-10-21 14:07:12 GMT 35.850903 -83.033791 34,025 275 428 0
2021-10-21 14:07:09 GMT 35.850578 -83.029175 34,025 275 428 0
2021-10-21 14:07:07 GMT 35.850109 -83.022163 34,025 275 428 0
2021-10-21 14:07:03 GMT 35.849648 -83.014854 34,025 275 428 0
2021-10-21 14:07:00 GMT 35.848900 -83.003929 34,025 275 428 0
2021-10-21 14:06:54 GMT 35.847977 -82.989983 34,025 275 428 64
2021-10-21 14:06:51 GMT 35.847610 -82.984657 34,025 275 428 64
2021-10-21 14:06:46 GMT 35.846714 -82.970680 34,025 275 428 64
2021-10-21 14:06:42 GMT 35.846107 -82.961967 34,025 275 428 64
2021-10-21 14:06:39 GMT 35.845551 -82.953438 34,025 275 428 64
2021-10-21 14:06:32 GMT 35.844452 -82.936821 34,000 275 429 64
2021-10-21 14:06:29 GMT 35.844177 -82.932930 34,000 275 429 64
2021-10-21 14:06:26 GMT 35.843685 -82.925507 34,000 275 429 64
2021-10-21 14:06:24 GMT 35.843216 -82.918343 34,000 275 429 64
2021-10-21 14:06:21 GMT 35.842754 -82.911659 34,000 275 429 64
2021-10-21 14:06:18 GMT 35.842197 -82.903358 34,000 275 429 64
2021-10-21 14:06:14 GMT 35.841385 -82.891563 33,975 275 429 0
2021-10-21 14:06:11 GMT 35.840973 -82.884979 33,975 275 429 0
2021-10-21 14:06:08 GMT 35.840473 -82.877586 34,000 275 429 0
2021-10-21 14:06:01 GMT 35.839359 -82.861282 33,975 275 428 64
2021-10-21 14:05:57 GMT 35.838684 -82.851219 33,975 275 428 0
2021-10-21 14:05:51 GMT 35.837677 -82.836166 33,975 275 428 0
2021-10-21 14:05:48 GMT 35.837402 -82.832504 33,975 275 428 0
2021-10-21 14:05:44 GMT 35.836853 -82.824036 33,975 275 428 0
2021-10-21 14:05:41 GMT 35.836166 -82.813797 33,975 275 428 0
2021-10-21 14:05:38 GMT 35.835728 -82.807640 33,975 275 428 0
2021-10-21 14:05:33 GMT 35.835068 -82.798286 33,975 275 428 0
2021-10-21 14:05:31 GMT 35.834564 -82.790924 34,000 275 428 0
2021-10-21 14:05:27 GMT 35.833862 -82.780701 34,000 275 427 0
2021-10-21 14:05:24 GMT 35.833466 -82.774544 34,000 275 427 0
2021-10-21 14:05:21 GMT 35.832870 -82.766075 34,000 275 427 64
2021-10-21 14:05:18 GMT 35.832233 -82.756500 33,975 275 427 64
2021-10-21 14:05:15 GMT 35.831772 -82.750252 33,975 275 427 64
2021-10-21 14:05:11 GMT 35.831211 -82.742012 33,975 275 427 0
2021-10-21 14:05:07 GMT 35.830559 -82.732079 33,975 275 427 0
2021-10-21 14:05:04 GMT 35.830048 -82.724831 33,975 275 427 0
2021-10-21 14:05:01 GMT 35.829391 -82.715034 33,975 275 427 0
2021-10-21 14:04:57 GMT 35.828979 -82.709198 33,975 275 427 0
2021-10-21 14:04:54 GMT 35.828278 -82.698708 33,975 275 427 0
2021-10-21 14:04:51 GMT 35.827927 -82.693748 33,975 275 427 0
2021-10-21 14:04:48 GMT 35.827148 -82.682365 33,975 275 426 -64
2021-10-21 14:04:45 GMT 35.826881 -82.678604 33,975 275 426 -64
2021-10-21 14:04:42 GMT 35.826508 -82.673286 33,975 275 426 -64
2021-10-21 14:04:36 GMT 35.825317 -82.655525 34,000 275 426 -64
2021-10-21 14:04:33 GMT 35.824905 -82.649513 34,000 275 426 0
2021-10-21 14:04:29 GMT 35.824322 -82.641144 34,000 275 426 0
2021-10-21 14:04:25 GMT 35.822971 -82.621864 34,000 275 426 0
2021-10-21 14:04:21 GMT 35.822971 -82.621864 33,975 275 426 0
2021-10-21 14:04:17 GMT 35.822296 -82.612099 34,000 275 426 -64
2021-10-21 14:04:15 GMT 35.820923 -82.592583 34,000 275 426 -64
2021-10-21 14:04:10 GMT 35.820923 -82.592583 34,000 275 426 -64
2021-10-21 14:04:04 GMT 35.819992 -82.579674 34,025 275 425 -64
2021-10-21 14:03:58 GMT 35.819016 -82.565933 34,025 275 425 -64
2021-10-21 14:03:54 GMT 35.818222 -82.554367 34,025 275 425 0
2021-10-21 14:03:47 GMT 35.817291 -82.540871 34,025 275 425 0
2021-10-21 14:03:44 GMT 35.816071 -82.523628 34,025 275 425 0
2021-10-21 14:03:41 GMT 35.816071 -82.523628 34,025 275 425 0
2021-10-21 14:03:33 GMT 35.814636 -82.503700 34,025 275 426 64
2021-10-21 14:03:29 GMT 35.814194 -82.497543 34,025 275 426 64
2021-10-21 14:03:22 GMT 35.812870 -82.478630 34,000 275 426 64
2021-10-21 14:03:19 GMT 35.812500 -82.473389 34,000 275 426 64
2021-10-21 14:03:12 GMT 35.811146 -82.453735 34,000 275 426 0
2021-10-21 14:03:08 GMT 35.810623 -82.446609 34,000 275 427 0
2021-10-21 14:03:02 GMT 35.809433 -82.429672 34,000 275 427 0
2021-10-21 14:02:58 GMT 35.808746 -82.419777 34,000 275 426 0
2021-10-21 14:02:51 GMT 35.807514 -82.402954 34,000 276 426 0
2021-10-21 14:02:47 GMT 35.807007 -82.395859 34,000 276 426 0
2021-10-21 14:02:42 GMT 35.805954 -82.381325 34,000 276 426 0
2021-10-21 14:02:39 GMT 35.805542 -82.375092 34,000 276 425 64
2021-10-21 14:02:36 GMT 35.804768 -82.364616 34,000 276 425 0
2021-10-21 14:02:32 GMT 35.804123 -82.355804 34,000 276 425 0
2021-10-21 14:02:27 GMT 35.802860 -82.338554 34,000 276 426 0
2021-10-21 14:02:21 GMT 35.802208 -82.329147 34,000 275 426 0
2021-10-21 14:02:14 GMT 35.801147 -82.314774 34,000 275 425 0
2021-10-21 14:02:09 GMT 35.800114 -82.300163 34,000 275 425 0
2021-10-21 14:02:04 GMT 35.799225 -82.287537 34,000 275 425 0
2021-10-21 14:02:01 GMT 35.798859 -82.282806 34,000 275 424 0
2021-10-21 14:01:58 GMT 35.798355 -82.275749 34,000 275 424 0
2021-10-21 14:01:54 GMT 35.797668 -82.266144 34,000 276 423 0
2021-10-21 14:01:49 GMT 35.796810 -82.254051 34,000 276 422 0
2021-10-21 14:01:45 GMT 35.796066 -82.243652 34,000 276 422 -64
2021-10-21 14:01:40 GMT 35.795273 -82.232491 34,000 276 422 -64
2021-10-21 14:01:37 GMT 35.794762 -82.225594 34,025 276 422 -64
2021-10-21 14:01:33 GMT 35.794109 -82.216476 34,025 276 421 -64
2021-10-21 14:01:30 GMT 35.793598 -82.209351 34,025 276 421 0
2021-10-21 14:01:27 GMT 35.792992 -82.200996 34,025 276 421 0
2021-10-21 14:01:23 GMT 35.792435 -82.193336 34,025 276 421 64
2021-10-21 14:01:20 GMT 35.791687 -82.183342 34,000 276 422 64
2021-10-21 14:01:17 GMT 35.791306 -82.178192 34,000 276 422 64
2021-10-21 14:01:13 GMT 35.790619 -82.168503 33,975 276 427 896
2021-10-21 14:01:09 GMT 35.789921 -82.159386 33,950 276 427 384
2021-10-21 14:01:06 GMT 35.789200 -82.149635 33,975 276 426 128
2021-10-21 14:01:03 GMT 35.788616 -82.141563 33,975 276 427 320
2021-10-21 14:00:57 GMT 35.787731 -82.129410 33,950 276 427 576
2021-10-21 14:00:52 GMT 35.786800 -82.117310 33,475 276 428 1024
2021-10-21 14:00:49 GMT 35.786133 -82.108437 33,800 276 429 1280
2021-10-21 14:00:46 GMT 35.785767 -82.103638 33,700 276 430 1408
2021-10-21 14:00:41 GMT 35.784760 -82.090469 33,650 276 432 1408
2021-10-21 14:00:38 GMT 35.784210 -82.083382 33,525 276 433 1344
2021-10-21 14:00:35 GMT 35.783752 -82.077255 33,525 276 433 1344
2021-10-21 14:00:32 GMT 35.782982 -82.067055 33,450 276 434 896
2021-10-21 14:00:25 GMT 35.781921 -82.052940 33,375 276 434 320
2021-10-21 14:00:22 GMT 35.781143 -82.042351 33,350 276 434 256
2021-10-21 14:00:16 GMT 35.780098 -82.028481 33,350 276 432 192
2021-10-21 14:00:11 GMT 35.779312 -82.017570 33,325 276 431 256
2021-10-21 14:00:05 GMT 35.778233 -82.003059 33,275 276 430 576
2021-10-21 14:00:00 GMT 35.777390 -81.991943 33,225 276 430 832
2021-10-21 13:59:55 GMT 35.776245 -81.976830 33,125 276 431 1152
2021-10-21 13:59:51 GMT 35.775536 -81.967415 33,050 276 432 1152
2021-10-21 13:59:44 GMT 35.774372 -81.951225 32,950 276 433 896
2021-10-21 13:59:40 GMT 35.773624 -81.941643 32,900 276 434 640
2021-10-21 13:59:36 GMT 35.772926 -81.932060 32,850 276 434 512
2021-10-21 13:59:33 GMT 35.772278 -81.923004 32,825 276 434 448
2021-10-21 13:59:29 GMT 35.771717 -81.915871 32,800 276 433 384
2021-10-21 13:59:26 GMT 35.770981 -81.905647 32,775 276 433 384
2021-10-21 13:59:20 GMT 35.769855 -81.890800 32,750 276 432 448
2021-10-21 13:59:15 GMT 35.769058 -81.880417 32,700 276 432 704
2021-10-21 13:59:12 GMT 35.768463 -81.872581 32,650 276 432 896
2021-10-21 13:59:09 GMT 35.767960 -81.865997 32,600 276 432 1088
2021-10-21 13:59:06 GMT 35.767410 -81.858620 32,550 276 433 1152
2021-10-21 13:59:02 GMT 35.766502 -81.846977 32,475 276 434 896
2021-10-21 13:58:55 GMT 35.765202 -81.829796 32,400 276 434 320
2021-10-21 13:58:49 GMT 35.763977 -81.813698 32,000 276 433 64
2021-10-21 13:58:44 GMT 35.763199 -81.804146 32,325 276 432 832
2021-10-21 13:58:38 GMT 35.762146 -81.790405 32,250 276 432 1024
2021-10-21 13:58:34 GMT 35.761322 -81.779427 32,150 276 433 1088
2021-10-21 13:58:31 GMT 35.760681 -81.771072 32,100 276 433 896
2021-10-21 13:58:27 GMT 35.760124 -81.764053 32,075 276 434 768
2021-10-21 13:58:24 GMT 35.759216 -81.752419 32,025 276 433 448
2021-10-21 13:58:21 GMT 35.758713 -81.745773 32,000 276 433 192
2021-10-21 13:58:17 GMT 35.757980 -81.736221 32,000 276 432 -64
2021-10-21 13:58:13 GMT 35.757332 -81.727760 32,000 276 432 0
2021-10-21 13:58:07 GMT 35.756149 -81.712708 32,000 276 432 0
2021-10-21 13:58:03 GMT 35.755508 -81.704407 32,000 276 432 0
2021-10-21 13:58:00 GMT 35.754272 -81.688499 32,000 276 431 0
2021-10-21 13:57:57 GMT 35.754272 -81.688499 32,000 276 431 0
2021-10-21 13:57:53 GMT 35.753422 -81.677391 32,000 276 431 0
2021-10-21 13:57:50 GMT 35.752945 -81.671165 32,000 276 431 0
2021-10-21 13:57:45 GMT 35.751892 -81.657539 32,000 276 430 0
2021-10-21 13:57:41 GMT 35.751343 -81.650452 32,000 276 430 0
2021-10-21 13:57:39 GMT 35.750954 -81.645714 32,000 276 430 0
2021-10-21 13:57:34 GMT 35.749557 -81.627335 32,000 276 429 -64
2021-10-21 13:57:31 GMT 35.749557 -81.627335 32,000 276 429 -64
2021-10-21 13:57:26 GMT 35.748535 -81.614098 32,000 276 429 0
2021-10-21 13:57:22 GMT 35.747543 -81.601807 32,025 276 429 0
2021-10-21 13:57:17 GMT 35.746765 -81.591721 32,000 276 432 128
2021-10-21 13:57:13 GMT 35.745987 -81.581673 32,000 276 429 0
2021-10-21 13:57:10 GMT 35.745506 -81.575706 32,000 276 430 64
2021-10-21 13:57:06 GMT 35.744476 -81.562904 31,975 276 432 128
2021-10-21 13:57:00 GMT 35.743553 -81.551048 31,975 276 433 192
2021-10-21 13:56:56 GMT 35.742764 -81.541290 31,950 276 433 192
2021-10-21 13:56:53 GMT 35.742249 -81.534683 31,950 276 433 384
2021-10-21 13:56:50 GMT 35.741550 -81.525627 31,925 276 433 512
2021-10-21 13:56:46 GMT 35.740082 -81.507629 31,875 276 433 576
2021-10-21 13:56:42 GMT 35.740082 -81.507629 31,850 276 432 640
2021-10-21 13:56:39 GMT 35.739502 -81.500206 31,825 276 432 640
2021-10-21 13:56:35 GMT 35.738525 -81.487991 31,775 276 432 768
2021-10-21 13:56:28 GMT 35.737061 -81.469521 31,650 276 433 1024
2021-10-21 13:56:24 GMT 35.736511 -81.462418 31,025 276 436 768
2021-10-21 13:56:19 GMT 35.735550 -81.450691 31,525 276 433 1088
2021-10-21 13:56:14 GMT 35.733536 -81.424942 31,325 276 435 1216
2021-10-21 13:56:09 GMT 35.733536 -81.424942 31,325 276 435 1216
2021-10-21 13:56:04 GMT 35.731339 -81.397881 31,100 276 436 768
2021-10-21 13:55:58 GMT 35.731339 -81.397881 31,150 276 436 768
2021-10-21 13:55:52 GMT 35.730331 -81.385201 31,075 276 436 768
2021-10-21 13:55:47 GMT 35.729187 -81.371040 31,000 276 436 768
2021-10-21 13:55:43 GMT 35.728409 -81.361427 30,875 276 436 832
2021-10-21 13:55:40 GMT 35.727772 -81.353409 30,875 276 436 832
2021-10-21 13:55:37 GMT 35.727356 -81.348381 30,875 276 436 832
2021-10-21 13:55:32 GMT 35.726330 -81.335175 30,750 276 435 832
2021-10-21 13:55:28 GMT 35.725304 -81.322670 30,725 276 436 832
2021-10-21 13:55:25 GMT 35.724884 -81.317596 30,700 276 435 896
2021-10-21 13:55:20 GMT 35.723953 -81.305901 30,625 276 435 896
2021-10-21 13:55:17 GMT 35.723236 -81.296944 30,100 276 437 832
2021-10-21 13:55:14 GMT 35.722824 -81.292023 30,550 276 436 1024
2021-10-21 13:55:11 GMT 35.721954 -81.281532 30,475 276 436 1088
2021-10-21 13:55:04 GMT 35.720791 -81.266747 30,350 276 437 1088
2021-10-21 13:55:00 GMT 35.719856 -81.255409 30,275 276 437 1024
2021-10-21 13:54:57 GMT 35.719116 -81.246643 30,225 276 437 960
2021-10-21 13:54:54 GMT 35.718567 -81.239716 30,175 276 437 896
2021-10-21 13:54:52 GMT 35.718155 -81.234512 30,150 276 437 832
2021-10-21 13:54:49 GMT 35.717670 -81.228470 30,125 276 437 832
2021-10-21 13:54:46 GMT 35.717018 -81.220581 29,900 276 437 832
2021-10-21 13:54:43 GMT 35.716461 -81.213860 30,025 276 437 896
2021-10-21 13:54:39 GMT 35.715668 -81.204277 29,975 276 438 960
2021-10-21 13:54:35 GMT 35.714859 -81.194458 29,900 276 438 960
2021-10-21 13:54:32 GMT 35.714218 -81.186790 29,850 276 438 896
2021-10-21 13:54:30 GMT 35.712799 -81.169510 29,775 276 438 896
2021-10-21 13:54:25 GMT 35.712112 -81.160812 29,750 276 438 960
2021-10-21 13:54:22 GMT 35.712112 -81.160812 29,700 276 438 960
2021-10-21 13:54:19 GMT 35.711384 -81.152031 29,650 276 438 960
2021-10-21 13:54:15 GMT 35.710686 -81.143906 29,550 276 438 1024
2021-10-21 13:54:11 GMT 35.710007 -81.135345 29,525 276 438 1024
2021-10-21 13:54:08 GMT 35.709335 -81.127548 29,475 276 438 1024
2021-10-21 13:54:05 GMT 35.708500 -81.117142 29,400 276 439 1024
2021-10-21 13:54:00 GMT 35.707661 -81.107208 29,325 276 439 1024
2021-10-21 13:53:57 GMT 35.707195 -81.101311 29,300 276 439 960
2021-10-21 13:53:52 GMT 35.706123 -81.088631 29,225 276 439 960
2021-10-21 13:53:48 GMT 35.705055 -81.075249 29,100 276 439 1024
2021-10-21 13:53:43 GMT 35.703415 -81.055298 28,950 276 439 1024
2021-10-21 13:53:39 GMT 35.703415 -81.055298 28,900 276 439 1088
2021-10-21 13:53:34 GMT 35.702362 -81.042877 28,800 276 440 1216
2021-10-21 13:53:27 GMT 35.700714 -81.022736 28,725 276 440 1216
2021-10-21 13:53:21 GMT 35.699799 -81.011520 28,425 276 441 1344
2021-10-21 13:53:18 GMT 35.698929 -81.001343 28,550 276 441 1344
2021-10-21 13:53:15 GMT 35.698425 -80.995331 28,450 276 442 1408
2021-10-21 13:53:12 GMT 35.697830 -80.988121 28,450 276 442 1408
2021-10-21 13:53:08 GMT 35.696960 -80.977592 28,325 276 443 1216
2021-10-21 13:53:05 GMT 35.696350 -80.970230 28,275 276 443 1088
2021-10-21 13:53:01 GMT 35.695465 -80.959717 28,225 276 443 1024
2021-10-21 13:52:55 GMT 35.694122 -80.943542 28,100 276 443 960
2021-10-21 13:52:51 GMT 35.693527 -80.936790 28,050 276 443 0
2021-10-21 13:52:48 GMT 35.692673 -80.926399 27,675 276 443 832
2021-10-21 13:52:44 GMT 35.692112 -80.919624 27,925 276 441 640
2021-10-21 13:52:41 GMT 35.691460 -80.911911 27,925 276 441 640
2021-10-21 13:52:37 GMT 35.690483 -80.900162 27,875 276 442 640
2021-10-21 13:52:34 GMT 35.689693 -80.890930 27,850 276 441 640
2021-10-21 13:52:31 GMT 35.689270 -80.886040 27,825 276 441 640
2021-10-21 13:52:27 GMT 35.688389 -80.875214 27,675 276 440 640
2021-10-21 13:52:22 GMT 35.687225 -80.861534 27,725 276 440 640
2021-10-21 13:52:17 GMT 35.686153 -80.848854 27,250 276 439 640
2021-10-21 13:52:13 GMT 35.685551 -80.841438 27,625 276 439 640
2021-10-21 13:52:09 GMT 35.684692 -80.831390 27,575 276 438 704
2021-10-21 13:52:06 GMT 35.683960 -80.822983 27,525 276 438 896
2021-10-21 13:52:03 GMT 35.683365 -80.815826 27,500 276 438 896
2021-10-21 13:52:00 GMT 35.682850 -80.809525 27,450 276 437 896
2021-10-21 13:51:53 GMT 35.681267 -80.791000 27,350 276 437 960
2021-10-21 13:51:50 GMT 35.680664 -80.783501 27,300 276 437 832
2021-10-21 13:51:46 GMT 35.679657 -80.771889 27,250 276 437 640
2021-10-21 13:51:43 GMT 35.679031 -80.764359 27,200 276 436 640
2021-10-21 13:51:38 GMT 35.678101 -80.753403 27,150 276 435 768
2021-10-21 13:51:35 GMT 35.677002 -80.740128 27,075 276 435 1024
2021-10-21 13:51:32 GMT 35.677002 -80.740128 27,050 276 435 1088
2021-10-21 13:51:28 GMT 35.676239 -80.731453 27,000 276 435 1088
2021-10-21 13:51:23 GMT 35.675167 -80.718658 26,925 276 435 896
2021-10-21 13:51:19 GMT 35.674164 -80.706482 26,850 276 434 896
2021-10-21 13:51:15 GMT 35.673248 -80.695724 26,750 276 434 960
2021-10-21 13:51:12 GMT 35.672699 -80.689087 26,725 276 434 1024
2021-10-21 13:51:08 GMT 35.671864 -80.679443 26,675 276 434 1088
2021-10-21 13:51:04 GMT 35.671165 -80.671089 26,575 276 433 1088
2021-10-21 13:51:01 GMT 35.670547 -80.663857 26,550 276 433 1024
2021-10-21 13:50:58 GMT 35.670044 -80.657501 26,475 276 433 1024
2021-10-21 13:50:54 GMT 35.669037 -80.645767 26,400 276 433 1024
2021-10-21 13:50:50 GMT 35.668324 -80.637604 26,300 277 432 960
2021-10-21 13:50:47 GMT 35.667393 -80.626556 26,300 277 432 960
2021-10-21 13:50:44 GMT 35.666794 -80.619850 26,225 277 432 1024
2021-10-21 13:50:41 GMT 35.666138 -80.612419 26,200 277 432 1088
2021-10-21 13:50:36 GMT 35.665375 -80.603256 26,125 277 432 1152
2021-10-21 13:50:33 GMT 35.664696 -80.595589 26,050 277 432 1216
2021-10-21 13:50:27 GMT 35.663391 -80.581444 25,875 277 432 1216
2021-10-21 13:50:23 GMT 35.662411 -80.570457 25,850 277 432 1216
2021-10-21 13:50:20 GMT 35.661621 -80.562286 25,775 277 432 1088
2021-10-21 13:50:15 GMT 35.660599 -80.551170 25,675 277 432 960
2021-10-21 13:50:12 GMT 35.659149 -80.536484 25,600 278 432 960
2021-10-21 13:50:09 GMT 35.659149 -80.536484 25,600 277 432 960
2021-10-21 13:50:05 GMT 35.658035 -80.525398 25,525 278 431 960
2021-10-21 13:50:00 GMT 35.657089 -80.515823 25,475 277 431 960
2021-10-21 13:49:57 GMT 35.656219 -80.506325 25,400 275 430 704
2021-10-21 13:49:52 GMT 35.655579 -80.495399 25,325 271 429 640
2021-10-21 13:49:49 GMT 35.655441 -80.486588 25,325 269 429 704
2021-10-21 13:49:46 GMT 35.655567 -80.480408 25,275 267 428 896
2021-10-21 13:49:41 GMT 35.656502 -80.466850 25,200 263 428 1152
2021-10-21 13:49:37 GMT 35.657291 -80.459602 25,125 261 428 1280
2021-10-21 13:49:32 GMT 35.659561 -80.445152 24,925 258 429 1600
2021-10-21 13:49:28 GMT 35.661301 -80.435143 24,875 258 429 1536
2021-10-21 13:49:25 GMT 35.662399 -80.428902 24,800 258 430 1280
2021-10-21 13:49:21 GMT 35.663910 -80.420319 24,450 258 428 960
2021-10-21 13:49:17 GMT 35.665627 -80.410629 24,650 258 430 1088
2021-10-21 13:49:14 GMT 35.666740 -80.404205 24,600 258 430 1024
2021-10-21 13:49:10 GMT 35.668808 -80.392632 24,525 258 429 960
2021-10-21 13:49:05 GMT 35.670883 -80.380829 24,450 258 428 960
2021-10-21 13:49:01 GMT 35.672653 -80.370834 24,375 258 428 1024
2021-10-21 13:48:58 GMT 35.673431 -80.366478 24,325 258 428 1024
2021-10-21 13:48:54 GMT 35.675076 -80.357101 24,275 258 427 1024
2021-10-21 13:48:49 GMT 35.677635 -80.342606 24,175 258 426 1024
2021-10-21 13:48:46 GMT 35.678604 -80.337067 24,125 258 426 1024
2021-10-21 13:48:42 GMT 35.679977 -80.329285 24,050 258 425 1152
2021-10-21 13:48:39 GMT 35.681870 -80.318474 23,975 258 425 1280
2021-10-21 13:48:36 GMT 35.683220 -80.310936 23,900 258 425 1280
2021-10-21 13:48:33 GMT 35.684246 -80.305031 23,850 258 425 1344
2021-10-21 13:48:30 GMT 35.685425 -80.298553 23,800 258 425 1344
2021-10-21 13:48:27 GMT 35.686295 -80.293465 23,500 258 425 1280
2021-10-21 13:48:23 GMT 35.688202 -80.282829 23,600 258 425 1216
2021-10-21 13:48:19 GMT 35.689819 -80.273781 23,550 258 424 1088
2021-10-21 13:48:16 GMT 35.690857 -80.267754 23,500 258 424 960
2021-10-21 13:48:12 GMT 35.692486 -80.258575 23,400 258 423 832
2021-10-21 13:48:09 GMT 35.694393 -80.247765 23,375 258 423 832
2021-10-21 13:48:05 GMT 35.695999 -80.238708 23,325 258 422 768
2021-10-21 13:48:02 GMT 35.697002 -80.232979 23,300 258 421 832
2021-10-21 13:47:57 GMT 35.699341 -80.219765 23,200 258 420 960
2021-10-21 13:47:51 GMT 35.701126 -80.209518 22,850 258 416 896
2021-10-21 13:47:48 GMT 35.702728 -80.200424 23,075 258 418 1088
2021-10-21 13:47:44 GMT 35.704403 -80.191025 23,000 258 418 1088
2021-10-21 13:47:41 GMT 35.705242 -80.186172 22,975 258 418 1024
2021-10-21 13:47:36 GMT 35.707989 -80.170624 22,850 258 416 896
2021-10-21 13:47:31 GMT 35.709549 -80.161743 22,800 258 415 768
2021-10-21 13:47:27 GMT 35.711151 -80.152390 22,750 258 412 512
2021-10-21 13:47:23 GMT 35.712830 -80.142982 22,725 258 413 512
2021-10-21 13:47:20 GMT 35.715389 -80.128319 22,525 258 411 512
2021-10-21 13:47:16 GMT 35.715389 -80.128319 22,675 258 410 576
2021-10-21 13:47:13 GMT 35.717159 -80.118088 22,625 258 408 704
2021-10-21 13:47:10 GMT 35.718323 -80.111313 22,575 258 406 640
2021-10-21 13:47:07 GMT 35.719391 -80.105171 22,550 258 405 576
2021-10-21 13:47:02 GMT 35.721130 -80.095200 22,525 258 403 704
2021-10-21 13:46:59 GMT 35.722137 -80.089531 22,475 258 403 768
2021-10-21 13:46:54 GMT 35.724472 -80.075912 22,400 259 401 768
2021-10-21 13:46:50 GMT 35.725769 -80.068420 22,350 259 400 704
2021-10-21 13:46:46 GMT 35.727631 -80.057655 22,300 258 398 832
2021-10-21 13:46:40 GMT 35.729961 -80.044052 21,800 258 390 1664
2021-10-21 13:46:35 GMT 35.731339 -80.035973 22,150 259 396 960
2021-10-21 13:46:32 GMT 35.732567 -80.029030 22,050 259 395 1088
2021-10-21 13:46:29 GMT 35.733685 -80.022659 22,025 258 394 1152
2021-10-21 13:46:25 GMT 35.735275 -80.013313 21,950 259 394 1280
2021-10-21 13:46:21 GMT 35.737106 -80.002846 21,850 258 393 1344
2021-10-21 13:46:18 GMT 35.737747 -79.999352 21,800 258 393 1344
2021-10-21 13:46:15 GMT 35.739258 -79.990601 21,725 258 393 1344
2021-10-21 13:46:09 GMT 35.741684 -79.976639 21,575 258 392 1408
2021-10-21 13:46:05 GMT 35.743195 -79.968109 21,475 258 391 1408
2021-10-21 13:46:02 GMT 35.744339 -79.961586 21,425 258 391 1408
2021-10-21 13:45:57 GMT 35.745880 -79.952766 21,275 259 390 1664
2021-10-21 13:45:54 GMT 35.747543 -79.943108 21,200 258 391 1472
2021-10-21 13:45:50 GMT 35.748871 -79.935493 21,050 258 390 1664
2021-10-21 13:45:47 GMT 35.749649 -79.931145 21,050 258 390 1664
2021-10-21 13:45:44 GMT 35.750977 -79.923531 20,975 259 390 1664
2021-10-21 13:45:41 GMT 35.752258 -79.916016 20,875 259 390 1600
2021-10-21 13:45:38 GMT 35.753330 -79.909935 20,800 259 390 1600
2021-10-21 13:45:34 GMT 35.754730 -79.901794 20,625 259 390 1472
2021-10-21 13:45:28 GMT 35.758823 -79.877853 20,525 259 389 1344
2021-10-21 13:45:23 GMT 35.758823 -79.877853 20,450 259 389 1216
2021-10-21 13:45:20 GMT 35.760033 -79.870895 20,400 259 388 1152
2021-10-21 13:45:17 GMT 35.761093 -79.864540 20,325 259 387 1088
2021-10-21 13:45:12 GMT 35.762741 -79.855042 20,250 259 386 1088
2021-10-21 13:45:06 GMT 35.764919 -79.842087 20,150 259 384 1088
2021-10-21 13:45:03 GMT 35.766411 -79.833557 20,025 259 382 1408
2021-10-21 13:44:58 GMT 35.768131 -79.823563 19,900 259 382 1600
2021-10-21 13:44:55 GMT 35.769379 -79.816246 19,850 259 381 1728
2021-10-21 13:44:50 GMT 35.770798 -79.808182 19,750 259 381 1728
2021-10-21 13:44:46 GMT 35.772491 -79.798225 19,625 259 381 1600
2021-10-21 13:44:41 GMT 35.774460 -79.786949 19,275 259 379 1344
2021-10-21 13:44:37 GMT 35.775349 -79.781548 19,400 259 380 1408
2021-10-21 13:44:34 GMT 35.776836 -79.772896 19,325 259 379 1344
2021-10-21 13:44:30 GMT 35.778095 -79.765770 19,250 259 378 1408
2021-10-21 13:44:26 GMT 35.779446 -79.757759 19,175 259 377 1408
2021-10-21 13:44:23 GMT 35.780518 -79.751450 19,100 259 376 1472
2021-10-21 13:44:19 GMT 35.781784 -79.744034 16,625 259 382 1920
2021-10-21 13:44:16 GMT 35.783478 -79.734192 18,800 259 375 1856
2021-10-21 13:44:13 GMT 35.784256 -79.729553 18,800 259 375 1856
2021-10-21 13:44:10 GMT 35.785538 -79.722061 18,675 259 375 1984
2021-10-21 13:44:07 GMT 35.786613 -79.715630 18,575 259 375 2112
2021-10-21 13:44:03 GMT 35.788010 -79.707581 18,425 259 375 2240
2021-10-21 13:43:59 GMT 35.789200 -79.700485 18,300 259 377 2496
2021-10-21 13:43:56 GMT 35.790337 -79.694061 18,025 259 378 2752
2021-10-21 13:43:52 GMT 35.791763 -79.685555 17,975 259 379 2816
2021-10-21 13:43:48 GMT 35.794479 -79.669754 16,625 259 382 1920
2021-10-21 13:43:45 GMT 35.794479 -79.669754 17,675 259 382 2304
2021-10-21 13:43:41 GMT 35.795738 -79.662331 17,475 259 382 1920
2021-10-21 13:43:38 GMT 35.796799 -79.656090 17,450 259 382 1792
2021-10-21 13:43:33 GMT 35.798950 -79.643326 17,275 259 381 1344
2021-10-21 13:43:30 GMT 35.799957 -79.637375 17,225 259 380 1472
2021-10-21 13:43:27 GMT 35.800579 -79.633873 17,200 259 380 1472
2021-10-21 13:43:21 GMT 35.802933 -79.619865 17,025 259 377 1536
2021-10-21 13:43:18 GMT 35.804165 -79.612602 16,925 259 376 1536
2021-10-21 13:43:14 GMT 35.805653 -79.604012 16,825 259 375 1536
2021-10-21 13:43:10 GMT 35.807098 -79.595490 16,725 259 374 1536
2021-10-21 13:43:07 GMT 35.807888 -79.591042 16,625 258 373 2112
2021-10-21 13:43:03 GMT 35.809204 -79.583183 16,550 258 374 1728
2021-10-21 13:43:00 GMT 35.810310 -79.576836 16,400 258 373 2048
2021-10-21 13:42:57 GMT 35.811584 -79.569511 16,350 258 373 2176
2021-10-21 13:42:52 GMT 35.813599 -79.557838 16,075 258 374 2368
2021-10-21 13:42:49 GMT 35.814175 -79.554634 16,075 258 374 2368
2021-10-21 13:42:46 GMT 35.815430 -79.547256 15,925 259 374 2112
2021-10-21 13:42:40 GMT 35.817444 -79.533005 15,700 263 374 1792
2021-10-21 13:42:35 GMT 35.818268 -79.525169 15,575 265 373 1472
2021-10-21 13:42:32 GMT 35.818920 -79.517235 15,425 265 372 1344
2021-10-21 13:42:29 GMT 35.819321 -79.511833 15,400 265 371 1472
2021-10-21 13:42:26 GMT 35.819962 -79.503197 15,350 265 370 1600
2021-10-21 13:42:22 GMT 35.821060 -79.489349 15,175 265 369 2048
2021-10-21 13:42:18 GMT 35.821060 -79.489349 15,125 265 369 2176
2021-10-21 13:42:15 GMT 35.821609 -79.481789 14,925 265 369 2304
2021-10-21 13:42:12 GMT 35.822182 -79.474396 14,800 265 370 2240
2021-10-21 13:42:09 GMT 35.822708 -79.467773 13,650 265 368 2368
2021-10-21 13:42:06 GMT 35.822926 -79.464523 13,650 265 368 2368
2021-10-21 13:42:03 GMT 35.823532 -79.456673 14,575 265 369 1856
2021-10-21 13:42:00 GMT 35.823944 -79.451241 14,350 265 368 1920
2021-10-21 13:41:57 GMT 35.824696 -79.441498 14,350 265 368 2048
2021-10-21 13:41:51 GMT 35.825626 -79.429634 14,125 265 368 2432
2021-10-21 13:41:48 GMT 35.826004 -79.424515 14,025 265 368 2432
2021-10-21 13:41:44 GMT 35.826462 -79.418221 13,900 265 368 2432
2021-10-21 13:41:41 GMT 35.827194 -79.408836 13,725 265 368 2368
2021-10-21 13:41:37 GMT 35.827625 -79.402695 13,575 265 363 1792
2021-10-21 13:41:34 GMT 35.828232 -79.395157 13,475 265 368 2112
2021-10-21 13:41:26 GMT 35.829536 -79.377625 13,075 265 364 1664
2021-10-21 13:41:21 GMT 35.830093 -79.370613 13,125 265 365 1600
2021-10-21 13:41:18 GMT 35.830650 -79.363129 13,025 265 364 1600
2021-10-21 13:41:15 GMT 35.831131 -79.356827 12,500 265 362 2112
2021-10-21 13:41:11 GMT 35.831680 -79.349838 12,825 265 362 2112
2021-10-21 13:41:06 GMT 35.832550 -79.338165 12,600 265 361 1984
2021-10-21 13:41:03 GMT 35.833073 -79.330872 12,500 265 360 1728
2021-10-21 13:40:59 GMT 35.833694 -79.322601 12,400 265 359 1728
2021-10-21 13:40:55 GMT 35.834282 -79.313927 12,275 266 358 1984
2021-10-21 13:40:52 GMT 35.834656 -79.308586 12,175 266 357 2176
2021-10-21 13:40:46 GMT 35.835251 -79.298225 11,975 268 357 2368
2021-10-21 13:40:43 GMT 35.835400 -79.292244 11,125 269 350 1600
2021-10-21 13:40:38 GMT 35.835754 -79.272881 11,625 269 356 1984
2021-10-21 13:40:34 GMT 35.835754 -79.272881 11,525 269 355 1984
2021-10-21 13:40:31 GMT 35.835846 -79.266815 11,425 269 354 1920
2021-10-21 13:40:27 GMT 35.836006 -79.259460 11,325 269 353 1792
2021-10-21 13:40:24 GMT 35.836143 -79.250816 11,200 269 351 1728
2021-10-21 13:40:21 GMT 35.836193 -79.246841 11,150 269 349 1472
2021-10-21 13:40:14 GMT 35.836441 -79.232826 10,950 269 345 1088
2021-10-21 13:40:11 GMT 35.836578 -79.225555 10,925 269 343 896
2021-10-21 13:40:07 GMT 35.836750 -79.217506 10,850 269 339 832
2021-10-21 13:40:03 GMT 35.836990 -79.205765 10,800 269 336 832
2021-10-21 13:40:00 GMT 35.836990 -79.205765 10,775 269 333 832
2021-10-21 13:39:53 GMT 35.837265 -79.190941 10,675 269 325 832
2021-10-21 13:39:50 GMT 35.837357 -79.186417 10,625 269 321 832
2021-10-21 13:39:45 GMT 35.837543 -79.176773 10,550 269 317 896
2021-10-21 13:39:42 GMT 35.837631 -79.171257 10,500 269 315 896
2021-10-21 13:39:39 GMT 35.837681 -79.167770 10,475 269 312 896
2021-10-21 13:39:34 GMT 35.837814 -79.158897 10,400 269 307 896
2021-10-21 13:39:31 GMT 35.837906 -79.152260 10,350 270 302 896
2021-10-21 13:39:28 GMT 35.837952 -79.148659 10,325 270 300 960
2021-10-21 13:39:25 GMT 35.838055 -79.141769 10,250 270 297 1024
2021-10-21 13:39:22 GMT 35.838135 -79.136871 10,200 270 292 1088
2021-10-21 13:39:18 GMT 35.838181 -79.131828 10,150 270 290 1088
2021-10-21 13:39:15 GMT 35.838272 -79.124512 10,050 269 284 1536
2021-10-21 13:39:11 GMT 35.838333 -79.119736 9,900 269 282 1984
2021-10-21 13:39:08 GMT 35.838409 -79.113869 9,900 269 282 1984
2021-10-21 13:39:04 GMT 35.838474 -79.108337 9,650 270 280 2688
2021-10-21 13:39:00 GMT 35.838566 -79.101974 9,525 270 280 2688
2021-10-21 13:38:56 GMT 35.838612 -79.096245 9,375 270 279 2496
2021-10-21 13:38:53 GMT 35.838684 -79.090630 9,225 270 279 2432
2021-10-21 13:38:50 GMT 35.838707 -79.086540 9,125 270 279 2240
2021-10-21 13:38:46 GMT 35.838776 -79.079819 8,975 270 277 2112
2021-10-21 13:38:42 GMT 35.838821 -79.074959 8,825 270 275 2112
2021-10-21 13:38:39 GMT 35.838844 -79.068665 8,625 270 273 2240
2021-10-21 13:38:35 GMT 35.838940 -79.060600 8,525 270 272 2368
2021-10-21 13:38:32 GMT 35.838959 -79.058189 8,375 270 270 2368
2021-10-21 13:38:29 GMT 35.838985 -79.053642 8,200 270 270 2368
2021-10-21 13:38:24 GMT 35.839050 -79.046974 8,150 270 269 2368
2021-10-21 13:38:20 GMT 35.839142 -79.038849 7,950 270 267 2432
2021-10-21 13:38:17 GMT 35.839218 -79.035294 7,850 269 266 2560
2021-10-21 13:38:11 GMT 35.839325 -79.026428 7,600 269 265 2560
2021-10-21 13:38:07 GMT 35.839462 -79.018761 7,375 269 264 2560
2021-10-21 13:38:01 GMT 35.839588 -79.011040 7,100 269 263 2688
2021-10-21 13:37:58 GMT 35.839645 -79.006348 7,000 269 262 2688
2021-10-21 13:37:53 GMT 35.839783 -78.999481 6,700 269 261 2624
2021-10-21 13:37:49 GMT 35.839966 -78.987747 6,350 269 260 2560
2021-10-21 13:37:39 GMT 35.840103 -78.979485 6,225 269 258 2496
2021-10-21 13:37:36 GMT 35.840195 -78.974136 5,450 269 254 2368
2021-10-21 13:37:29 GMT 35.840336 -78.963295 3,975 268 249 3136
2021-10-21 13:37:26 GMT 35.840427 -78.958328 5,575 269 250 2880
2021-10-21 13:37:21 GMT 35.840569 -78.951202 5,400 269 249 3008
2021-10-21 13:37:18 GMT 35.840607 -78.948273 5,225 269 249 3072
2021-10-21 13:37:15 GMT 35.840710 -78.943954 5,050 269 249 3136
2021-10-21 13:37:06 GMT 35.840988 -78.930634 4,650 269 249 3200
2021-10-21 13:37:01 GMT 35.841267 -78.919876 4,250 268 249 3200
2021-10-21 13:36:54 GMT 35.841385 -78.915138 4,075 268 249 3136
2021-10-21 13:36:45 GMT 35.841824 -78.900597 3,575 268 247 2816
2021-10-21 13:36:36 GMT 35.842163 -78.888931 3,175 268 244 2304
2021-10-21 13:36:32 GMT 35.842339 -78.883881 3,050 268 242 2304
2021-10-21 13:36:24 GMT 35.842667 -78.873428 2,775 269 237 1344
2021-10-21 13:36:18 GMT 35.842896 -78.863693 2,775 269 234 1088
2021-10-21 13:36:14 GMT 35.842987 -78.859924 2,575 269 217 768
2021-10-21 13:36:05 GMT 35.843491 -78.844299 2,375 240 188 896
2021-10-21 13:36:01 GMT 35.843491 -78.844299 2,475 261 198 704
2021-10-21 13:35:55 GMT 35.844990 -78.837074 2,400 248 191 768
2021-10-21 13:35:52 GMT 35.845917 -78.834801 2,375 243 190 832
2021-10-21 13:35:48 GMT 35.847645 -78.831520 2,300 230 186 1152
2021-10-21 13:35:44 GMT 35.852673 -78.825500 2,175 222 182 1408
2021-10-21 13:35:40 GMT 35.852673 -78.825500 2,125 221 180 1472
2021-10-21 13:35:34 GMT 35.857185 -78.820770 1,925 221 171 1664
2021-10-21 13:35:29 GMT 35.859192 -78.818726 1,850 221 168 1664
We lost coverage of the aircraft here for a total of 9 minutes
2021-10-21 13:26:17 GMT 35.891567 -78.777039 0 45 5 0
2021-10-21 13:25:57 GMT 35.891201 -78.777512 0 45 5 0
2021-10-21 13:24:34 GMT 35.891064 -78.777664 0 45 0 0
2021-10-21 13:24:12 GMT 35.891075 -78.777664 0 45 0 0
2021-10-21 13:24:04 GMT 35.891052 -78.777702 0 45 4 0
2021-10-21 13:23:53 GMT 35.890938 -78.777840 0 45 4 0
2021-10-21 13:20:50 GMT 35.886589 -78.784004 0 45 15 0

Making use of Plane Finder data

You are free to use the raw flight data, aircraft information and images provided in this report for your own purposes provided the data is correctly attributed to Plane Finder. We ask that you please credit Plane Finder and link to planefinder.net in close proximity to the content.

Optionally one of the following logos (no smaller then 150x24px) can be used and must link to planefinder.net

Embedding the Plane Finder map

You are welcome to embed the Plane Finder playback map on your website to offer visitors a more interactive experience. We suggest using the following HTML code:

<iframe src="//planefinder.net/data/report/B62953-N612JB-7700-squawk-2021-10-21/map" width="800" height="600" seamless="seamless"></iframe>

Where our data comes from

Plane Finder has a global network of data feeds and antenna radars that receive data broadcast directly from aircraft. The primary technologies used are ADS-B and MLAT. We also show feeds from the FAA and a FLARM glider feed.

Click here to find out more about the Plane Finder network.

How we collect our data